[[{"header":{"parameterUnit":"m.s-1","parameterCategory":1,"la1":30.6,"la2":29.2853,"lo1":-89.7004,"lo2":-87.6739,"dy":0.0162,"dx":0.0183,"nx":112,"ny":82,"refTime":"2024-03-09T06:00:00:Z","depth":0,"parameterNumber":2,"parameterNumberName":"U-component_of_WINDS"},"data":[0.0,0.0,0.0,0.0,0.0,0.0,0.0,0.0,0.0,0.0,0.0,0.0,0.0,0.0,0.0,0.0,0.0,0.0,0.0,0.0,0.0,0.0,0.0,0.0,0.0,0.0,0.0,0.0,0.0,0.0,0.0,0.0,0.0,0.0,0.0,0.0,0.0,0.0,0.0,0.0,0.0,0.0,0.0,0.0,0.0,0.0,0.0,0.0,0.0,0.0,0.0,0.0,0.0,0.0,0.0,0.0,0.0,0.0,0.0,0.0,0.0,0.0,0.0,0.0,0.0,0.0,0.0,0.0,0.0,0.0,0.0,0.0,0.0,0.0,0.0,0.0,0.0,0.0,0.0,0.0,0.0,0.0,0.0,0.0,0.0,0.0,0.0,0.0,0.0,0.0,-3.6828,-3.7383,-3.7544,-3.7602,-3.7602,-3.8302,-3.8772,-3.8881,0.0,0.0,0.0,0.0,0.0,0.0,0.0,0.0,0.0,0.0,0.0,0.0,0.0,0.0,0.0,0.0,0.0,0.0,0.0,0.0,0.0,0.0,0.0,0.0,0.0,0.0,0.0,0.0,0.0,0.0,0.0,0.0,0.0,0.0,0.0,0.0,0.0,0.0,0.0,0.0,0.0,0.0,0.0,0.0,0.0,0.0,0.0,0.0,0.0,0.0,0.0,0.0,0.0,0.0,0.0,0.0,0.0,0.0,0.0,0.0,0.0,0.0,0.0,0.0,0.0,0.0,0.0,0.0,0.0,0.0,0.0,0.0,0.0,0.0,0.0,0.0,0.0,0.0,0.0,0.0,0.0,0.0,0.0,0.0,0.0,0.0,0.0,0.0,0.0,0.0,0.0,0.0,0.0,0.0,0.0,0.0,0.0,0.0,0.0,0.0,0.0,0.0,0.0,0.0,-3.643,-3.591,-3.6399,-3.6783,-3.6783,-3.7499,-3.8218,-3.8854,0.0,0.0,0.0,0.0,0.0,0.0,0.0,0.0,0.0,0.0,0.0,0.0,0.0,0.0,0.0,0.0,0.0,0.0,0.0,0.0,0.0,0.0,0.0,0.0,0.0,0.0,0.0,0.0,0.0,0.0,0.0,0.0,0.0,0.0,0.0,0.0,0.0,0.0,0.0,0.0,0.0,0.0,0.0,0.0,0.0,0.0,0.0,0.0,0.0,0.0,0.0,0.0,0.0,0.0,0.0,0.0,0.0,0.0,0.0,0.0,0.0,0.0,0.0,0.0,0.0,0.0,0.0,0.0,0.0,0.0,0.0,0.0,0.0,0.0,0.0,0.0,0.0,0.0,0.0,0.0,0.0,0.0,0.0,0.0,0.0,0.0,0.0,0.0,0.0,0.0,0.0,0.0,0.0,0.0,0.0,0.0,0.0,0.0,0.0,0.0,0.0,0.0,0.0,-3.6243,-3.5863,-3.5537,-3.5814,-3.6006,-3.6006,-3.6722,-3.7469,-3.8246,-3.9005,0.0,0.0,0.0,0.0,0.0,0.0,0.0,0.0,0.0,0.0,0.0,0.0,0.0,0.0,0.0,0.0,0.0,0.0,0.0,0.0,0.0,0.0,0.0,0.0,0.0,0.0,0.0,0.0,0.0,0.0,0.0,0.0,0.0,0.0,0.0,0.0,0.0,0.0,0.0,0.0,0.0,0.0,0.0,0.0,0.0,0.0,0.0,0.0,0.0,0.0,0.0,0.0,0.0,0.0,0.0,0.0,0.0,0.0,0.0,0.0,0.0,0.0,0.0,0.0,0.0,0.0,0.0,0.0,0.0,0.0,0.0,0.0,0.0,0.0,0.0,0.0,0.0,0.0,0.0,0.0,0.0,0.0,0.0,0.0,0.0,0.0,0.0,0.0,0.0,0.0,0.0,0.0,0.0,0.0,0.0,0.0,0.0,0.0,0.0,0.0,0.0,0.0,-3.5504,-3.5504,-3.5504,-3.5504,-3.5504,-3.5504,-3.6038,-3.6753,-3.7719,-3.833,0.0,0.0,0.0,0.0,0.0,0.0,0.0,0.0,0.0,0.0,0.0,0.0,0.0,0.0,0.0,0.0,0.0,0.0,0.0,0.0,0.0,0.0,0.0,0.0,0.0,0.0,0.0,0.0,0.0,0.0,0.0,0.0,0.0,0.0,0.0,0.0,0.0,0.0,0.0,0.0,0.0,0.0,0.0,0.0,0.0,0.0,0.0,0.0,0.0,0.0,0.0,0.0,0.0,0.0,0.0,0.0,0.0,0.0,0.0,0.0,0.0,0.0,0.0,0.0,0.0,0.0,0.0,0.0,0.0,0.0,0.0,0.0,0.0,0.0,0.0,0.0,0.0,0.0,0.0,0.0,0.0,0.0,0.0,0.0,0.0,0.0,0.0,0.0,0.0,0.0,0.0,0.0,0.0,0.0,0.0,0.0,0.0,0.0,0.0,0.0,0.0,0.0,-3.5504,-3.5504,-3.5504,-3.5504,-3.5504,-3.5504,-3.5569,-3.6227,-3.7706,-3.7835,0.0,0.0,0.0,0.0,0.0,0.0,0.0,0.0,0.0,0.0,0.0,0.0,0.0,0.0,0.0,0.0,0.0,0.0,0.0,0.0,0.0,0.0,0.0,0.0,0.0,0.0,0.0,0.0,0.0,0.0,0.0,0.0,0.0,0.0,0.0,0.0,0.0,0.0,0.0,0.0,0.0,0.0,0.0,0.0,0.0,0.0,0.0,0.0,0.0,0.0,0.0,0.0,0.0,0.0,0.0,0.0,0.0,0.0,0.0,0.0,0.0,0.0,0.0,0.0,0.0,0.0,0.0,0.0,0.0,0.0,0.0,0.0,0.0,0.0,0.0,0.0,0.0,0.0,0.0,0.0,0.0,0.0,0.0,0.0,0.0,0.0,0.0,0.0,0.0,0.0,0.0,0.0,0.0,0.0,0.0,0.0,0.0,0.0,0.0,0.0,0.0,0.0,-3.5504,-3.5504,-3.5504,-3.5504,-3.5504,-3.5504,-3.5504,-3.6148,-3.7706,0.0,0.0,0.0,0.0,0.0,0.0,0.0,0.0,0.0,0.0,0.0,0.0,0.0,0.0,0.0,0.0,0.0,0.0,0.0,0.0,0.0,0.0,0.0,0.0,0.0,0.0,0.0,0.0,0.0,0.0,0.0,0.0,0.0,0.0,0.0,0.0,0.0,0.0,0.0,0.0,0.0,0.0,0.0,0.0,0.0,0.0,0.0,0.0,0.0,0.0,0.0,0.0,0.0,0.0,0.0,0.0,0.0,0.0,0.0,0.0,0.0,0.0,0.0,0.0,0.0,0.0,0.0,0.0,0.0,0.0,0.0,0.0,0.0,0.0,0.0,0.0,0.0,0.0,0.0,0.0,0.0,0.0,0.0,0.0,0.0,0.0,0.0,0.0,0.0,0.0,0.0,0.0,0.0,0.0,0.0,0.0,0.0,0.0,0.0,0.0,0.0,0.0,-3.5504,-3.5504,-3.5504,-3.5504,-3.5504,-3.5504,-3.5504,-3.5504,-3.6053,-3.7338,0.0,0.0,0.0,0.0,0.0,0.0,0.0,0.0,0.0,0.0,0.0,0.0,0.0,0.0,0.0,0.0,0.0,0.0,0.0,0.0,0.0,0.0,0.0,0.0,0.0,0.0,0.0,0.0,0.0,0.0,0.0,0.0,0.0,0.0,0.0,0.0,0.0,0.0,0.0,0.0,0.0,0.0,0.0,0.0,0.0,0.0,0.0,0.0,0.0,0.0,0.0,0.0,0.0,0.0,0.0,0.0,0.0,0.0,0.0,0.0,0.0,0.0,0.0,0.0,0.0,0.0,0.0,0.0,0.0,0.0,0.0,0.0,0.0,0.0,0.0,0.0,0.0,0.0,0.0,0.0,0.0,0.0,0.0,0.0,0.0,0.0,0.0,0.0,0.0,0.0,0.0,0.0,0.0,0.0,0.0,0.0,0.0,0.0,0.0,0.0,0.0,0.0,-3.5504,-3.5504,-3.5504,-3.5504,-3.5504,-3.5504,-3.5504,-3.5504,-3.5799,0.0,0.0,0.0,0.0,0.0,0.0,0.0,0.0,0.0,0.0,0.0,0.0,0.0,0.0,0.0,0.0,0.0,0.0,0.0,0.0,0.0,0.0,0.0,0.0,0.0,0.0,0.0,0.0,0.0,0.0,0.0,0.0,0.0,0.0,0.0,0.0,0.0,0.0,0.0,0.0,0.0,0.0,0.0,0.0,0.0,0.0,0.0,0.0,0.0,0.0,0.0,0.0,0.0,0.0,0.0,0.0,0.0,0.0,0.0,0.0,0.0,0.0,0.0,0.0,0.0,0.0,0.0,0.0,0.0,0.0,0.0,0.0,0.0,0.0,0.0,0.0,0.0,0.0,0.0,0.0,0.0,0.0,0.0,0.0,0.0,0.0,0.0,0.0,0.0,0.0,0.0,0.0,0.0,0.0,0.0,0.0,0.0,0.0,0.0,0.0,0.0,0.0,0.0,-3.5504,-3.5504,-3.5504,-3.5504,-3.5504,-3.5504,-3.5504,-3.5504,-3.5799,-3.6554,0.0,0.0,0.0,0.0,0.0,0.0,0.0,0.0,0.0,0.0,0.0,0.0,0.0,0.0,0.0,0.0,0.0,0.0,0.0,0.0,0.0,0.0,0.0,0.0,0.0,0.0,0.0,0.0,0.0,0.0,0.0,0.0,0.0,0.0,0.0,0.0,0.0,0.0,0.0,0.0,0.0,0.0,0.0,0.0,0.0,0.0,0.0,0.0,0.0,0.0,0.0,0.0,0.0,0.0,0.0,0.0,0.0,0.0,0.0,0.0,0.0,0.0,0.0,0.0,0.0,0.0,0.0,0.0,0.0,0.0,0.0,0.0,0.0,0.0,0.0,0.0,0.0,0.0,0.0,0.0,0.0,0.0,0.0,0.0,0.0,0.0,0.0,0.0,0.0,0.0,0.0,0.0,0.0,0.0,0.0,0.0,0.0,0.0,0.0,0.0,0.0,0.0,-3.5504,-3.5504,-3.5504,-3.5504,-3.5504,-3.5504,-3.5504,-3.5504,-3.5701,-3.6134,0.0,0.0,0.0,0.0,0.0,0.0,0.0,0.0,0.0,0.0,0.0,0.0,0.0,0.0,0.0,0.0,0.0,0.0,0.0,0.0,0.0,0.0,0.0,0.0,0.0,0.0,0.0,0.0,0.0,0.0,0.0,0.0,0.0,0.0,0.0,0.0,0.0,0.0,0.0,0.0,0.0,0.0,0.0,0.0,0.0,0.0,0.0,0.0,0.0,0.0,0.0,0.0,0.0,0.0,0.0,0.0,0.0,0.0,0.0,0.0,0.0,0.0,0.0,0.0,0.0,0.0,0.0,0.0,0.0,0.0,0.0,0.0,0.0,0.0,0.0,0.0,0.0,0.0,0.0,0.0,0.0,0.0,0.0,0.0,0.0,0.0,0.0,0.0,0.0,0.0,0.0,0.0,0.0,0.0,0.0,0.0,0.0,0.0,0.0,0.0,0.0,0.0,-3.5359,-3.5279,-3.5246,-3.5359,-3.5359,-3.5392,-3.5504,-3.5504,-3.5504,-3.5504,0.0,0.0,0.0,0.0,0.0,0.0,0.0,0.0,0.0,0.0,0.0,0.0,0.0,0.0,0.0,0.0,0.0,0.0,0.0,0.0,0.0,0.0,0.0,0.0,0.0,0.0,0.0,0.0,0.0,0.0,0.0,0.0,0.0,0.0,0.0,0.0,0.0,0.0,0.0,0.0,0.0,0.0,0.0,0.0,0.0,0.0,0.0,0.0,0.0,0.0,0.0,0.0,0.0,0.0,0.0,0.0,0.0,0.0,0.0,0.0,-3.6952,-3.7768,0.0,0.0,0.0,0.0,0.0,0.0,0.0,0.0,0.0,0.0,0.0,0.0,0.0,0.0,0.0,0.0,0.0,0.0,0.0,0.0,0.0,0.0,0.0,0.0,0.0,0.0,0.0,0.0,0.0,0.0,0.0,0.0,0.0,0.0,0.0,0.0,0.0,0.0,0.0,0.0,-3.4312,-3.3685,-3.3498,-3.4245,-3.4312,-3.4643,-3.5424,-3.5504,-3.5504,-3.5504,-3.5636,0.0,0.0,0.0,0.0,0.0,0.0,0.0,0.0,0.0,0.0,0.0,0.0,0.0,0.0,0.0,0.0,0.0,0.0,0.0,0.0,0.0,0.0,0.0,0.0,0.0,0.0,0.0,0.0,0.0,0.0,0.0,0.0,0.0,0.0,0.0,0.0,0.0,0.0,0.0,0.0,0.0,0.0,0.0,0.0,0.0,0.0,0.0,0.0,0.0,0.0,0.0,0.0,0.0,0.0,0.0,0.0,0.0,0.0,0.0,-3.5279,-3.6014,0.0,0.0,0.0,0.0,0.0,0.0,0.0,0.0,0.0,0.0,0.0,0.0,0.0,0.0,0.0,0.0,0.0,0.0,0.0,0.0,0.0,0.0,0.0,0.0,0.0,0.0,0.0,0.0,0.0,0.0,0.0,0.0,0.0,0.0,0.0,0.0,0.0,0.0,0.0,0.0,-3.3345,-3.289,-3.2784,-3.3276,-3.3345,-3.3533,-3.4056,-3.4509,-3.4758,-3.4758,-3.5246,0.0,0.0,0.0,0.0,0.0,0.0,0.0,0.0,0.0,0.0,0.0,0.0,0.0,0.0,0.0,0.0,0.0,0.0,0.0,0.0,0.0,0.0,0.0,0.0,0.0,0.0,0.0,0.0,0.0,0.0,0.0,0.0,0.0,0.0,0.0,0.0,0.0,0.0,0.0,0.0,0.0,0.0,0.0,0.0,0.0,0.0,0.0,0.0,0.0,0.0,0.0,0.0,0.0,-3.3895,-3.3765,-3.3765,-3.3765,-3.3273,-3.2502,-3.3387,-3.4002,-3.4369,-3.506,0.0,0.0,0.0,0.0,0.0,0.0,0.0,0.0,0.0,0.0,0.0,0.0,0.0,0.0,0.0,0.0,0.0,0.0,0.0,0.0,0.0,0.0,-3.1156,-3.1938,-3.1513,-3.1193,-3.1924,0.0,0.0,0.0,0.0,0.0,0.0,0.0,0.0,0.0,0.0,0.0,-3.2357,-3.2213,-3.2177,-3.2357,-3.2357,-3.2429,-3.2593,-3.331,-3.3774,-3.3774,-3.4558,-3.5001,0.0,0.0,0.0,0.0,0.0,0.0,0.0,0.0,0.0,0.0,0.0,0.0,0.0,0.0,0.0,0.0,0.0,0.0,0.0,0.0,0.0,0.0,0.0,0.0,0.0,0.0,0.0,0.0,0.0,0.0,0.0,0.0,-3.6198,-3.6198,0.0,0.0,0.0,0.0,0.0,0.0,0.0,0.0,0.0,0.0,0.0,0.0,0.0,-3.4594,-3.4594,-3.3222,-3.2526,-3.2488,-3.1112,-3.0445,-3.0445,-3.0445,-3.0381,-3.0226,-3.0368,0.0,-3.3169,-3.2841,0.0,0.0,0.0,0.0,0.0,0.0,0.0,0.0,0.0,0.0,0.0,0.0,0.0,0.0,0.0,0.0,0.0,0.0,0.0,0.0,0.0,0.0,-2.9998,-3.0152,-3.0075,-2.9998,-3.0139,-3.1439,-3.2593,-3.2593,-3.2593,-3.2593,0.0,0.0,0.0,0.0,0.0,0.0,-3.1389,-3.0671,-3.0495,-3.1291,-3.1389,-3.1706,-3.2522,-3.2713,-3.2784,-3.2784,-3.2925,-3.2996,-3.2996,-3.2996,0.0,0.0,0.0,0.0,0.0,0.0,0.0,0.0,0.0,0.0,0.0,0.0,0.0,0.0,0.0,0.0,0.0,0.0,0.0,0.0,0.0,0.0,0.0,0.0,0.0,0.0,0.0,0.0,0.0,-3.4155,-3.3945,-3.3945,-3.4206,-3.432,0.0,0.0,0.0,0.0,0.0,0.0,0.0,0.0,0.0,-3.2357,-3.2357,-3.2502,-3.2804,-3.2109,-3.1769,-3.1756,-3.1023,-3.0532,-3.0256,-3.0256,-3.0093,-2.9792,-2.9792,-3.0315,-3.1229,-3.1505,-3.2046,-3.2759,0.0,0.0,0.0,0.0,-3.3481,-3.3367,-3.2558,-3.2243,-3.2129,-3.1272,0.0,0.0,0.0,0.0,0.0,0.0,0.0,-3.0419,-3.0419,-3.0101,-2.9792,-2.9792,-2.9792,-2.9792,-2.9792,-3.047,-3.1033,-3.1033,-3.1033,-3.1033,-3.1033,-3.1033,0.0,0.0,0.0,-3.0419,-3.0419,-3.0037,-2.9972,-3.0381,-3.0419,-3.0558,-3.0983,-3.1513,-3.1815,-3.1815,-3.2321,-3.2593,-3.2593,-3.2593,-3.2784,0.0,0.0,0.0,0.0,0.0,0.0,0.0,0.0,0.0,0.0,0.0,0.0,0.0,0.0,0.0,0.0,0.0,0.0,0.0,0.0,0.0,0.0,0.0,0.0,0.0,0.0,0.0,0.0,-3.2365,-3.2001,-3.2001,-3.2346,-3.2541,0.0,0.0,0.0,0.0,0.0,0.0,-3.159,-3.1225,-3.0815,-3.0341,-3.0045,-3.0053,-3.0472,-3.0431,-3.0431,-3.0431,-3.0431,-3.0236,-2.987,-2.987,-2.965,-2.9272,-2.9138,-2.9288,-2.9603,-3.0482,-3.0833,-3.0895,-3.1609,-3.1865,-3.1865,-3.1865,-3.1865,-3.1792,-3.1082,-3.0833,-3.0733,-3.0037,-2.9792,-2.9934,-3.062,0.0,0.0,0.0,0.0,-2.8961,-2.8961,-2.8961,-2.8961,-2.8961,-2.8961,-2.8961,-2.8961,-2.8961,-2.9131,-2.9675,-2.9792,-2.9792,-2.9792,-2.9792,0.0,-2.9792,-2.9792,-2.9792,-2.9792,-2.9792,-2.9792,-2.9792,-2.9792,-2.9792,-2.9792,-3.0457,-3.0833,-3.0833,-3.1513,-3.1865,-3.1865,-3.1865,-3.201,-3.2249,0.0,0.0,0.0,0.0,0.0,0.0,0.0,0.0,0.0,0.0,0.0,0.0,0.0,0.0,0.0,0.0,0.0,0.0,0.0,0.0,0.0,0.0,0.0,0.0,0.0,0.0,0.0,0.0,0.0,-3.1436,-3.1439,0.0,0.0,0.0,0.0,-2.9227,-2.9576,-2.981,-2.9744,-2.8605,-2.8477,-2.9618,-2.8488,-2.784,-2.7906,-2.7906,-2.7906,-2.7906,-2.7906,-2.7851,-2.7872,-2.7872,-2.7818,-2.7762,-2.7399,-2.7839,-2.8891,-2.9576,-2.9856,-2.9869,-2.9934,-2.9934,-2.9934,-2.9934,-2.9934,-2.9934,-2.9908,-2.9856,-2.9856,-2.983,-2.9792,-2.9792,-2.9869,-2.9094,0.0,0.0,-2.7452,-2.6689,-2.6689,-2.6689,-2.6689,-2.6689,-2.6689,-2.6689,-2.6689,-2.6689,-2.7302,-2.9378,-2.9792,-2.9792,-2.9792,0.0,-2.9792,-2.9792,-2.9792,-2.9792,-2.9792,-2.9792,-2.9792,-2.9792,-2.9792,-2.9792,-2.9792,-2.9818,-2.9856,-2.9856,-2.9895,-2.9934,-2.9934,-2.9934,-3.0343,-3.1254,-3.1278,0.0,0.0,0.0,0.0,0.0,0.0,0.0,0.0,0.0,0.0,0.0,0.0,0.0,0.0,0.0,0.0,0.0,0.0,0.0,0.0,0.0,0.0,0.0,0.0,0.0,0.0,0.0,0.0,-2.9141,-2.8841,0.0,-2.8726,-2.8901,-2.8742,-2.8131,-2.8291,-2.8393,-2.8393,-2.7949,-2.8106,-2.8927,-2.8531,-2.8455,-2.8779,-2.8779,-2.8779,-2.8779,-2.8779,-2.8612,-2.8266,-2.8266,-2.8087,-2.7677,-2.7553,-2.7745,-2.8086,-2.8066,-2.8763,-2.9714,-2.8976,-2.9157,-2.9792,-2.9792,-2.9792,-2.9792,-2.9792,-2.9792,-2.9663,-2.8937,-2.8239,-2.7678,-2.7678,-2.7383,-2.7087,-2.7087,-2.6801,-2.6524,-2.6524,-2.6524,-2.6524,-2.6524,-2.6524,-2.6524,-2.6524,-2.6524,-2.673,-2.7516,-2.7678,-2.7879,-2.8609,-2.8727,-2.8937,-2.9702,-2.9792,-2.9792,-2.9792,-2.9792,-2.9792,-2.9792,-2.9792,-2.9792,-2.9792,-2.9792,-2.9792,-2.9792,-2.9792,-2.9792,-2.9792,-2.9792,-2.9972,-3.0279,-3.0317,-3.0457,0.0,0.0,0.0,0.0,0.0,0.0,0.0,0.0,0.0,0.0,0.0,0.0,0.0,0.0,0.0,0.0,0.0,0.0,0.0,0.0,0.0,0.0,0.0,0.0,0.0,-2.7965,-2.7323,-2.7594,-2.745,-2.743,-2.7655,-2.7887,-2.7811,-2.7413,-2.7532,-2.7664,-2.7664,-2.7259,-2.742,-2.8245,-2.7845,-2.7811,-2.8168,-2.8168,-2.8168,-2.8168,-2.8168,-2.7961,-2.7615,-2.7615,-2.7387,-2.7033,-2.6862,-2.7022,-2.7291,-2.6517,-2.7282,-2.8783,-2.7926,-2.8039,-2.8673,-2.8673,-2.8673,-2.8673,-2.8673,-2.8673,-2.8542,-2.7827,-2.7087,-2.6524,-2.6524,-2.6224,-2.5933,-2.5933,-2.5641,-2.5358,-2.5358,-2.5358,-2.5358,-2.5358,-2.5358,-2.5358,-2.5358,-2.5358,-2.5358,-2.5358,-2.5975,-2.6719,-2.7452,-2.7562,-2.7947,-2.9067,-2.891,-2.8831,-2.9197,-2.891,-2.8831,-2.9197,-2.9236,-2.9365,-2.9753,-2.9792,-2.9792,-2.9792,-2.9792,-2.9792,-2.9792,-2.9792,-2.9792,-2.9792,-2.9792,-2.9792,-2.9792,0.0,0.0,0.0,0.0,0.0,0.0,0.0,0.0,0.0,0.0,0.0,0.0,0.0,0.0,0.0,0.0,0.0,0.0,0.0,0.0,0.0,0.0,0.0,-2.7151,-2.7126,-2.701,-2.7021,-2.7389,-2.7634,-2.7645,-2.8188,-2.8027,-2.6758,-2.7186,-2.7542,-2.7542,-2.639,-2.6294,-2.7494,-2.6342,-2.5693,-2.5693,-2.5693,-2.5693,-2.5693,-2.5693,-2.5693,-2.5693,-2.5693,-2.5693,-2.5664,-2.5283,-2.5718,-2.6542,-2.5063,-2.5451,-2.7019,-2.6613,-2.6494,-2.6524,-2.6524,-2.6524,-2.6524,-2.6524,-2.6483,-2.6431,-2.6431,-2.6431,-2.6389,-2.6389,-2.563,-2.4745,-2.4745,-2.3963,-2.3091,-2.3091,-2.3091,-2.3091,-2.3091,-2.3091,-2.3091,-2.3091,-2.3091,-2.3091,-2.3091,-2.4893,-2.6389,-2.6431,-2.6431,-2.6801,-2.7896,-2.7168,0.0,-2.7936,-2.7128,-2.6924,-2.7976,-2.8096,-2.8557,-2.9702,-2.9792,-2.9792,-2.9792,-2.9792,-2.9792,-2.9792,-2.9792,-2.9792,-2.9792,-2.9792,-2.9792,-2.9792,0.0,0.0,0.0,0.0,0.0,0.0,0.0,0.0,0.0,0.0,0.0,0.0,0.0,0.0,0.0,0.0,0.0,0.0,0.0,0.0,0.0,-2.6245,-2.5735,-2.5903,-2.5474,-2.5275,-2.561,-2.5752,-2.5908,-2.6205,-2.6395,-2.6333,-2.6018,-2.6127,-2.6197,-2.6197,-2.5878,-2.5878,-2.6197,-2.5878,-2.5693,-2.5693,-2.5693,-2.5693,-2.5693,-2.5693,-2.5693,-2.5693,-2.5693,-2.5693,-2.5684,-2.5557,-2.5691,-2.593,-2.521,-2.5179,-2.5661,-2.5704,-2.6029,-2.6524,-2.6524,-2.6524,-2.6524,-2.6524,-2.5975,-2.5252,-2.5252,-2.4713,-2.4016,-2.4016,-2.38,-2.3551,-2.3551,-2.3343,-2.3091,-2.3091,-2.3091,-2.3091,-2.3091,-2.3091,-2.3091,-2.3091,-2.3091,-2.3091,-2.3091,-2.3604,-2.4307,-2.5126,-2.5252,-2.5672,-2.6748,-2.6678,-2.6595,-2.6883,-2.6678,-2.6924,-2.7976,-2.8096,-2.8557,-2.9702,-2.9792,-2.9792,-2.9792,-2.9792,-2.9792,-2.9792,-2.9792,-2.9792,-2.9792,-2.9792,-2.9792,0.0,0.0,0.0,0.0,0.0,0.0,0.0,0.0,0.0,0.0,0.0,0.0,0.0,0.0,0.0,0.0,0.0,0.0,0.0,0.0,0.0,0.0,-2.5558,-2.5289,-2.5289,-2.4937,-2.4785,-2.5086,-2.5234,-2.5449,-2.5664,-2.5693,-2.5693,-2.5693,-2.5693,-2.5693,-2.5693,-2.5693,-2.5693,-2.5693,-2.5693,-2.5693,-2.5693,-2.5693,-2.5693,-2.5693,-2.5693,-2.5693,-2.5693,-2.5693,-2.5693,-2.5693,-2.5693,-2.5693,-2.5664,-2.5459,-2.5234,-2.5075,0.0,0.0,0.0,0.0,-2.5062,-2.5062,-2.5062,-2.4638,-2.4082,-2.4082,-2.3637,-2.3091,-2.3091,-2.3091,-2.3091,-2.3091,-2.3091,-2.3091,-2.3091,-2.3091,-2.3091,-2.3091,-2.3091,-2.3091,-2.3091,-2.3091,-2.3091,-2.3091,-2.3091,0.0,-2.3963,-2.4082,-2.4457,-2.5641,-2.5389,-2.5263,-2.5714,-2.5347,-2.5515,-2.6603,-2.6726,-2.7186,-2.8343,-2.8422,0.0,0.0,0.0,-2.9314,-2.9792,-2.9792,0.0,0.0,0.0,-2.9792,-2.9792,-2.9792,0.0,0.0,-2.9792,-2.9792,0.0,0.0,0.0,0.0,0.0,0.0,0.0,0.0,0.0,0.0,0.0,0.0,0.0,0.0,0.0,0.0,-2.5243,-2.5135,-2.5184,-2.5194,-2.5194,-2.5194,-2.5498,-2.5693,-2.5693,-2.5693,-2.5693,-2.5693,-2.5693,-2.5693,-2.5693,-2.5693,0.0,0.0,0.0,-2.5693,-2.5693,-2.5693,-2.5693,-2.5693,-2.5693,-2.5693,-2.5693,-2.5693,-2.5693,-2.5693,-2.5693,-2.5693,-2.5693,-2.5693,-2.5478,-2.5028,-2.4131,-2.376,-2.3672,-2.3237,-2.3091,-2.3091,-2.3091,0.0,0.0,-2.3091,-2.3091,-2.3091,-2.3091,-2.3091,-2.3091,-2.3091,-2.3091,-2.3091,-2.3091,-2.3091,-2.3091,-2.3091,-2.3091,-2.3091,-2.3091,-2.3091,-2.3091,-2.3091,-2.3091,-2.3091,-2.3091,-2.3091,-2.343,-2.4457,-2.3757,-2.3464,-2.4457,-2.3714,-2.3551,-2.467,-2.4787,0.0,-2.6389,-2.6524,-2.6924,-2.7844,-2.8044,-2.8597,-2.9753,-2.9792,-2.9792,-2.9792,-2.9792,-2.9792,-2.9792,-2.9792,-2.9792,-2.9792,-2.9792,-2.9792,0.0,0.0,0.0,0.0,0.0,0.0,0.0,0.0,0.0,0.0,0.0,0.0,0.0,0.0,0.0,-2.5139,-2.5139,-2.5195,-2.5557,-2.5557,-2.5557,-2.5557,-2.5635,-2.5693,-2.5693,-2.5693,-2.5693,-2.5693,-2.5693,-2.5693,-2.5693,-2.5693,-2.5693,-2.5693,-2.5693,-2.5693,-2.5693,-2.5693,-2.5693,-2.5693,-2.5693,0.0,-2.5693,-2.5693,-2.5693,-2.5693,-2.5693,-2.5693,-2.5693,-2.5693,-2.5478,-2.5028,-2.4131,-2.3574,-2.3208,-2.312,-2.3091,-2.3091,-2.3091,-2.3091,-2.3091,-2.3091,-2.3091,-2.3091,-2.3091,-2.3091,0.0,-2.3091,-2.3091,-2.3091,-2.3091,-2.3091,-2.3091,-2.3091,-2.3091,-2.3091,-2.3091,-2.3091,-2.3091,-2.3091,-2.3091,-2.3091,-2.3091,-2.3091,-2.3178,-2.3387,-2.3266,-2.3178,-2.3387,-2.3266,-2.3551,-2.467,-2.4787,-2.5252,-2.6389,-2.6524,-2.6595,-2.6801,-2.7602,-2.8597,-2.9753,-2.9792,-2.9792,-2.9792,-2.9792,-2.9792,-2.9792,-2.9792,-2.9792,-2.9792,-2.9792,-2.9792,0.0,0.0,0.0,0.0,0.0,0.0,0.0,0.0,0.0,0.0,0.0,-2.561,-2.5386,0.0,-2.4814,-2.5077,-2.5254,-2.5478,-2.5654,-2.5693,-2.5693,-2.5693,-2.5693,-2.5693,-2.5693,-2.5693,-2.5693,-2.5693,-2.5693,-2.5693,-2.5693,-2.5693,-2.5693,-2.5693,-2.5693,-2.5693,-2.5693,-2.5693,-2.5693,-2.5693,-2.5693,-2.5693,-2.5693,-2.5693,-2.5693,-2.5693,-2.5693,-2.5693,-2.5693,-2.5693,-2.5478,-2.5077,-2.46,-2.4033,-2.3437,-2.3179,-2.3091,-2.3091,-2.3091,-2.3091,-2.3091,-2.3091,-2.3091,-2.3091,-2.3091,-2.3091,-2.3091,-2.3091,-2.3091,-2.3091,-2.3091,-2.3091,-2.3091,-2.3091,-2.3091,-2.3091,-2.3091,-2.3091,-2.3091,-2.3091,-2.3091,-2.3091,-2.3091,-2.3091,-2.3091,-2.3091,-2.3091,-2.3091,-2.3091,-2.3091,-2.3299,-2.3877,-2.3963,-2.4178,-2.4766,-2.5305,-2.563,-2.563,-2.6707,-2.7545,-2.8131,-2.8648,-2.8937,-2.8937,-2.9495,-2.9792,-2.9792,-2.9792,-2.9792,-2.9792,-2.9197,-2.9236,0.0,0.0,0.0,0.0,0.0,0.0,0.0,-2.6819,-2.6324,-2.5996,-2.548,-2.4961,-2.4609,-2.4902,-2.5195,-2.5195,-2.5508,-2.5693,-2.5693,-2.5693,-2.5693,-2.5693,-2.5693,-2.5693,-2.5693,-2.5693,-2.5693,-2.5693,-2.5693,-2.5693,-2.5693,-2.5693,-2.5693,-2.5693,-2.5693,-2.5693,-2.5693,-2.5693,-2.5693,-2.5693,-2.5693,-2.5693,-2.5693,-2.5693,-2.5693,-2.5693,-2.5693,-2.5693,-2.5693,-2.5693,-2.5527,-2.5195,-2.5145,-2.46,-2.3857,-2.3383,-2.3169,-2.3091,-2.3091,-2.3091,-2.3091,-2.3091,-2.3091,-2.3091,-2.3091,-2.3091,-2.3091,-2.3091,-2.3091,-2.3091,-2.3091,-2.3091,-2.3091,-2.3091,-2.3091,-2.3091,-2.3091,-2.3091,-2.3091,-2.3091,-2.3091,-2.3091,-2.3091,-2.3091,-2.3091,-2.3091,-2.3091,-2.3091,-2.3091,-2.3091,-2.3091,-2.3091,-2.3091,-2.3091,-2.3091,-2.392,-2.4542,-2.4787,-2.5672,-2.6265,-2.6483,-2.7331,-2.7804,-2.7804,-2.87,-2.917,-2.917,-2.9365,-2.9365,-2.9131,-2.8438,-2.8727,-2.8044,-2.82,-2.7914,-2.6259,-2.6167,-2.6112,0.0,-2.4499,-2.4647,-2.4598,-2.4849,-2.5096,-2.5047,-2.5361,-2.5615,-2.5615,-2.5654,-2.5693,-2.5693,-2.5693,-2.5693,-2.5693,-2.5693,-2.5693,-2.5693,-2.5693,-2.5693,-2.5693,-2.5693,-2.5693,-2.5693,-2.5693,-2.5693,-2.5693,-2.5693,-2.5693,-2.5693,-2.5693,-2.5693,-2.5693,-2.5693,-2.5693,-2.5693,-2.5693,-2.5693,-2.5693,-2.5693,-2.5693,-2.5693,-2.5693,-2.5664,-2.5625,-2.5225,-2.4775,-2.4297,-2.3877,-2.3467,-2.3091,-2.3091,-2.3091,-2.3091,-2.3091,-2.3091,-2.3091,-2.3091,-2.3091,-2.3091,-2.3091,-2.3091,-2.3091,-2.3091,-2.3091,-2.3091,-2.3091,-2.3091,-2.3091,-2.3091,-2.3091,-2.3091,-2.3091,-2.3091,-2.3091,-2.3091,-2.3091,-2.3091,-2.3091,-2.3091,-2.3091,-2.3091,-2.3091,-2.3091,-2.3091,-2.3091,-2.3091,-2.3091,-2.3222,-2.3714,-2.4755,-2.4914,-2.5462,-2.6483,-2.6637,-2.6678,-2.6678,-2.6801,-2.6894,-2.6894,-2.7827,-2.7815,-2.6894,-2.7735,-2.8727,-2.6301,-2.5721,-2.5039,-2.4331,-2.4503,-2.4651,-2.3963,-2.4307,-2.4795,-2.4795,-2.5146,-2.5459,-2.5459,-2.5605,-2.5693,-2.5693,-2.5693,-2.5693,-2.5693,-2.5693,-2.5693,-2.5693,-2.5693,-2.5693,-2.5693,-2.5693,-2.5693,-2.5693,-2.5693,-2.5693,-2.5693,-2.5693,-2.5693,-2.5693,-2.5693,-2.5693,-2.5693,-2.5693,-2.5693,-2.5693,-2.5693,-2.5693,-2.5693,-2.5693,-2.5693,-2.5693,-2.5693,-2.5693,-2.5693,-2.5693,-2.5693,-2.5674,-2.5527,-2.5029,-2.4365,-2.3945,-2.3516,-2.3091,-2.3091,-2.3091,-2.3091,-2.3091,-2.3091,-2.3091,-2.3091,-2.3091,-2.3091,-2.3091,-2.3091,-2.3091,-2.3091,-2.3091,-2.3091,-2.3091,-2.3091,-2.3091,-2.3091,-2.3091,-2.3091,-2.3091,-2.3091,-2.3091,-2.3091,-2.3091,-2.3091,-2.3091,-2.3091,-2.3091,-2.3091,-2.3091,-2.3091,-2.3091,-2.3091,-2.3091,-2.3091,-2.3091,-2.3299,-2.38,-2.38,-2.4006,-2.452,-2.5179,-2.5504,-2.5504,-2.6141,-2.6524,-2.6524,-2.6964,-2.6924,-2.6472,-2.6284,-2.6778,-2.4553,-2.3804,-2.3276,-2.3276,-2.3643,-2.3994,-2.4111,-2.4666,-2.5145,-2.5225,-2.5508,-2.5693,-2.5693,-2.5693,-2.5693,-2.5693,-2.5693,-2.5693,-2.5693,-2.5693,-2.5693,-2.5693,-2.5791,-2.5869,-2.5869,-2.5762,-2.5693,-2.5693,-2.5693,-2.5693,-2.5693,-2.5693,-2.5693,-2.5693,-2.5693,-2.5693,-2.5693,-2.5693,-2.5693,-2.5693,-2.5693,-2.5693,-2.5693,-2.5693,-2.5693,-2.5693,-2.5693,-2.5693,-2.5693,-2.5693,-2.5693,-2.5693,-2.5693,-2.5273,-2.4541,-2.4121,-2.3613,-2.3091,-2.3091,-2.3091,-2.3091,-2.3091,-2.3091,-2.3091,-2.3091,-2.3091,-2.3091,-2.3091,-2.3091,-2.3091,-2.3091,-2.3091,-2.3091,-2.3091,-2.3091,-2.3091,-2.3091,-2.3091,-2.3091,-2.3091,-2.3091,-2.3091,-2.3091,-2.3091,-2.3091,-2.3091,-2.3091,-2.3091,-2.3091,-2.3091,-2.3091,-2.3091,-2.3091,-2.3091,-2.3091,-2.3091,-2.3091,-2.3091,-2.3091,-2.3091,-2.3091,-2.3877,-2.4339,-2.4339,-2.5136,-2.5557,-2.5557,-2.5891,-2.585,-2.5557,-2.5041,-2.5083,-2.3178,-2.3447,-2.3769,-2.3769,-2.4082,-2.4502,-2.4979,-2.5096,-2.5195,-2.5577,-2.5674,-2.5693,-2.5693,-2.5693,-2.5693,-2.5693,-2.5693,-2.5693,-2.5693,-2.5693,-2.5693,-2.5693,-2.6113,-2.6367,-2.6367,-2.5986,-2.5693,-2.5693,-2.5693,-2.5693,-2.5693,-2.5693,-2.5693,-2.5693,-2.5693,-2.5693,-2.5693,-2.5693,-2.5693,-2.5693,-2.5693,-2.5693,-2.5693,-2.5693,-2.5693,-2.5693,-2.5693,-2.5693,-2.5693,-2.5693,-2.5693,-2.5693,-2.5693,-2.5449,-2.5047,-2.456,-2.3822,-2.3091,-2.3091,-2.3091,-2.3091,-2.3091,-2.3091,-2.3091,-2.3091,-2.3091,-2.3091,-2.3091,-2.3091,-2.3091,-2.3091,-2.3091,-2.3091,-2.3091,-2.3091,-2.3091,-2.3091,-2.3091,-2.3091,-2.3091,-2.3091,-2.3091,-2.3091,-2.3091,-2.3091,-2.3091,-2.3091,-2.3091,-2.3091,-2.3091,-2.3091,-2.3091,-2.3091,-2.3091,-2.3091,-2.3091,-2.3091,-2.3091,-2.3091,-2.3091,-2.3091,-2.3135,-2.3135,-2.3135,-2.3178,-2.3222,-2.3222,-2.4296,-2.4296,-2.3222,-2.4296,-2.4211,-2.3091,-2.3457,-2.3789,-2.3789,-2.4326,-2.493,-2.5077,-2.5293,-2.5557,-2.5654,-2.5693,-2.5693,-2.5693,-2.5693,-2.5693,-2.5693,-2.5693,-2.5693,-2.5693,-2.5693,-2.5801,-2.6133,-2.6299,-2.6494,-2.6777,-2.6416,-2.6172,-2.6172,-2.5908,-2.5693,-2.5693,-2.5693,-2.5693,-2.5693,-2.5693,-2.5693,-2.5693,-2.5693,-2.5693,-2.5693,-2.5693,-2.5693,-2.5693,-2.5693,-2.5693,-2.5693,-2.5693,-2.5693,-2.5693,-2.5693,-2.5693,-2.5693,-2.5693,-2.5459,-2.5057,-2.458,-2.4062,-2.3525,-2.3198,-2.3091,-2.3091,-2.3091,-2.3091,-2.3091,-2.3091,-2.3091,-2.3091,-2.3091,-2.3091,-2.3091,-2.3091,-2.3091,-2.3091,-2.3091,-2.3091,-2.3091,-2.3091,-2.3091,-2.3091,-2.3091,-2.3091,-2.3091,-2.3091,-2.3091,-2.3091,-2.3091,-2.3091,-2.3091,-2.3091,-2.3091,-2.3091,-2.3091,-2.3091,-2.3091,-2.3091,-2.3091,-2.3091,-2.3091,-2.3091,-2.3091,-2.3091,-2.3091,-2.3091,-2.3091,-2.3091,-2.3091,-2.3091,-2.3474,-2.3464,-2.3091,-2.3507,-2.3464,-2.3286,-2.3682,-2.4053,-2.4209,-2.4775,-2.5303,-2.5303,-2.5527,-2.5693,-2.5693,-2.5693,-2.5693,-2.5693,-2.5693,-2.5693,-2.5693,-2.582,-2.5869,-2.5713,-2.5947,-2.624,-2.6367,-2.666,-2.6953,-2.7226,-2.6865,-2.6543,-2.6396,-2.6133,-2.5908,-2.5693,-2.5693,-2.5693,-2.5693,-2.5693,-2.5693,-2.5693,-2.5693,-2.5693,-2.5693,-2.5693,-2.5693,-2.5693,-2.5693,-2.5693,-2.5693,-2.5693,-2.5693,-2.5693,-2.5693,-2.5693,-2.5693,-2.5693,-2.5557,-2.5254,-2.4805,-2.4385,-2.3935,-2.3296,-2.3091,-2.3091,-2.3091,-2.3091,-2.3091,-2.3091,-2.3091,-2.3091,-2.3091,-2.3091,-2.3091,-2.3091,-2.3091,-2.3091,-2.3091,-2.3091,-2.3091,-2.3091,-2.3091,-2.3091,-2.3091,-2.3091,-2.3091,-2.3091,-2.3091,-2.3091,-2.3091,-2.3091,-2.3091,-2.3091,-2.3091,-2.3091,-2.3091,-2.3091,-2.3091,-2.3091,-2.3091,-2.3091,-2.3091,-2.3091,-2.3091,-2.3091,-2.3091,-2.3091,-2.3091,-2.3091,-2.3091,-2.3091,-2.3091,-2.3091,-2.3091,-2.3091,-2.3091,-2.3682,-2.4111,-2.4551,-2.4971,-2.54,-2.5693,-2.5693,-2.5693,-2.5693,-2.5693,-2.5693,-2.5693,-2.5693,-2.5693,-2.5693,-2.5693,-2.6084,-2.6211,-2.5742,-2.6435,-2.6816,-2.6465,-2.7139,-2.7699,-2.7748,-2.7305,-2.6875,-2.6455,-2.6387,-2.6172,-2.5713,-2.5693,-2.5693,-2.5693,-2.5693,-2.5693,-2.5693,-2.5693,-2.5693,-2.5693,-2.5693,-2.5693,-2.5693,-2.5693,-2.5693,-2.5693,-2.5693,-2.5693,-2.5693,-2.5693,-2.5693,-2.5693,-2.5693,-2.5693,-2.5635,-2.5234,-2.4805,-2.4326,-2.3452,-2.313,-2.3091,-2.3091,-2.3091,-2.3091,-2.3091,-2.3091,-2.3091,-2.3091,-2.3091,-2.3091,-2.3091,-2.3091,-2.3091,-2.3091,-2.3091,-2.3091,-2.3091,-2.3091,-2.3091,-2.3091,-2.3091,-2.3091,-2.3091,-2.3091,-2.3091,-2.3091,-2.3091,-2.3091,-2.3091,-2.3091,-2.3091,-2.3091,-2.3091,-2.3091,-2.3091,-2.3091,-2.3091,-2.3091,-2.3091,-2.3091,-2.3091,-2.3091,-2.3091,-2.3091,-2.3091,-2.3091,-2.3091,-2.3091,-2.3091,-2.3091,-2.3091,-2.3091,-2.376,-2.4336,-2.4969,-2.5086,-2.54,-2.5693,-2.5693,-2.5693,-2.5693,-2.5693,-2.5693,-2.5693,-2.5693,-2.5693,-2.5693,-2.5693,-2.5781,-2.5859,-2.5703,-2.5879,-2.621,-2.6787,-2.7051,-2.7432,-2.8066,-2.7744,-2.7314,-2.6894,-2.626,-2.581,-2.5693,-2.5693,-2.5693,-2.5693,-2.5693,-2.5693,-2.5693,-2.5693,-2.5693,-2.5693,-2.5693,-2.5693,-2.5693,-2.5693,-2.5693,-2.5693,-2.5693,-2.5693,-2.5693,-2.5693,-2.5693,-2.5693,-2.5693,-2.5693,-2.5635,-2.5234,-2.5047,-2.4824,-2.4277,-2.3627,-2.3091,-2.3091,-2.3091,-2.3091,-2.3091,-2.3091,-2.3091,-2.3091,-2.3091,-2.3091,-2.3091,-2.3091,-2.3091,-2.3091,-2.3091,-2.3091,-2.3091,-2.3091,-2.3091,-2.3091,-2.3091,-2.3091,-2.3091,-2.3091,-2.3091,-2.3091,-2.3091,-2.3091,-2.3091,-2.3091,-2.3091,-2.3091,-2.3091,-2.3091,-2.3091,-2.3091,-2.3091,-2.3091,-2.3091,-2.3091,-2.3091,-2.3091,-2.3091,-2.3091,-2.3091,-2.3091,-2.3091,-2.3091,-2.3091,-2.3091,-2.3091,-2.3091,-2.4014,-2.4551,-2.5165,-2.5312,-2.5557,-2.5693,-2.5693,-2.5693,-2.5693,-2.5693,-2.5693,-2.5693,-2.5693,-2.5693,-2.5693,-2.5693,-2.5849,-2.5957,-2.5713,-2.6015,-2.6406,-2.6709,-2.6904,-2.7207,-2.7685,-2.7353,-2.7002,-2.6758,-2.6289,-2.5937,-2.5703,-2.5693,-2.5693,-2.5693,-2.5693,-2.5693,-2.5693,-2.5693,-2.5693,-2.5693,-2.5693,-2.5693,-2.5693,-2.5693,-2.5693,-2.5693,-2.5693,-2.5693,-2.5693,-2.5693,-2.5693,-2.5693,-2.5693,-2.5693,-2.5664,-2.5449,-2.5234,-2.5077,-2.4785,-2.4258,-2.3627,-2.3442,-2.3247,-2.3091,-2.3091,-2.3091,-2.3091,-2.3091,-2.3091,-2.3091,-2.3091,-2.3091,-2.3091,-2.3091,-2.3091,-2.3091,-2.3091,-2.3091,-2.3091,-2.3091,-2.3091,-2.3091,-2.3091,-2.3091,-2.3091,-2.3091,-2.3091,-2.3091,-2.3091,-2.3091,-2.3091,-2.3091,-2.3091,-2.3091,-2.3091,-2.3091,-2.3091,-2.3091,-2.3091,-2.3091,-2.3091,-2.3091,-2.3091,-2.3091,-2.3091,-2.3091,-2.3091,-2.3091,-2.3091,-2.3091,-2.3091,-2.3091,-2.4316,-2.4775,-2.5254,-2.5596,-2.5693,-2.5693,-2.5693,-2.5693,-2.5693,-2.5693,-2.5693,-2.5693,-2.5693,-2.5693,-2.5693,-2.5693,-2.6055,-2.6172,-2.5742,-2.6327,-2.6728,-2.6426,-2.6709,-2.6953,-2.7012,-2.6631,-2.6387,-2.6387,-2.6338,-2.6133,-2.5703,-2.5693,-2.5693,-2.5693,-2.5693,-2.5693,-2.5693,-2.5693,-2.5693,-2.5693,-2.5693,-2.5693,-2.5693,-2.5693,-2.5693,-2.5693,-2.5693,-2.5693,-2.5693,-2.5693,-2.5693,-2.5693,-2.5693,-2.5693,-2.5693,-2.5693,-2.5488,-2.5156,-2.5156,-2.4873,-2.4434,-2.4014,-2.3613,-2.3266,-2.3266,-2.3266,-2.3266,-2.3266,-2.3218,-2.3179,-2.3179,-2.314,-2.3091,-2.3091,-2.3091,-2.3091,-2.3091,-2.3091,-2.3091,-2.3091,-2.3091,-2.3091,-2.3091,-2.3091,-2.3091,-2.3091,-2.3091,-2.3091,-2.3091,-2.3091,-2.3091,-2.3091,-2.3091,-2.3091,-2.3091,-2.3091,-2.3091,-2.3091,-2.3091,-2.3091,-2.3091,-2.3091,-2.3091,-2.3091,-2.3091,-2.3091,-2.3091,-2.3091,-2.3091,-2.3091,-2.3091,-2.3091,-2.4394,-2.501,-2.5596,-2.5674,-2.5693,-2.5693,-2.5693,-2.5693,-2.5693,-2.5693,-2.5693,-2.5693,-2.5693,-2.5693,-2.5693,-2.5693,-2.5752,-2.5771,-2.5703,-2.582,-2.6015,-2.6357,-2.6455,-2.6631,-2.6982,-2.6631,-2.6387,-2.6387,-2.6055,-2.5771,-2.5693,-2.5693,-2.5693,-2.5693,-2.5693,-2.5693,-2.5693,-2.5693,-2.5693,-2.5693,-2.5693,-2.5693,-2.5693,-2.5693,-2.5693,-2.5693,-2.5693,-2.5693,-2.5693,-2.5693,-2.5693,-2.5693,-2.5693,-2.5693,-2.5693,-2.5693,-2.5635,-2.5625,-2.5625,-2.5322,-2.4883,-2.4443,-2.4258,-2.4153,-2.4153,-2.4153,-2.4153,-2.4153,-2.3945,-2.3682,-2.3682,-2.3408,-2.3091,-2.3091,-2.3091,-2.3091,-2.3091,-2.3091,-2.3091,-2.3091,-2.3091,-2.3091,-2.3091,-2.3091,-2.3091,-2.3091,-2.3091,-2.3091,-2.3091,-2.3091,-2.3091,-2.3091,-2.3091,-2.3091,-2.3091,-2.3091,-2.3091,-2.3091,-2.3091,-2.3091,-2.3091,-2.3091,-2.3091,-2.3091,-2.3091,-2.3091,-2.3091,-2.3091,-2.3091,-2.3091,-2.3091,-2.3091,-2.4552,-2.5021,-2.5693,-2.5693,-2.6197,-2.6524,-2.583,-2.6197,-2.6476,-2.583,-2.5693,-2.5693,-2.5693,-2.5693,-2.5693,-2.5693,-2.5693,-2.5693,-2.5693,-2.5693,-2.5762,-2.6025,-2.6055,-2.6133,-2.6278,-2.6172,-2.6055,-2.6055,-2.581,-2.5693,-2.5693,-2.5693,-2.5693,-2.5693,-2.5693,-2.5693,-2.5693,-2.5693,-2.5693,-2.5693,-2.5693,-2.5693,-2.5693,-2.5693,-2.5693,-2.5693,-2.5693,-2.5693,-2.5693,-2.5693,-2.5693,-2.5693,-2.5693,-2.5693,-2.5693,-2.5693,-2.5693,-2.5693,-2.5693,-2.5547,-2.5381,-2.5176,-2.4795,-2.4414,-2.4414,-2.4414,-2.4414,-2.4414,-2.4277,-2.4111,-2.4111,-2.3965,-2.3799,-2.3799,-2.3633,-2.3418,-2.314,-2.3091,-2.3091,-2.3091,-2.3091,-2.3091,-2.3091,-2.3091,-2.3091,-2.3091,-2.3091,-2.3091,-2.3091,-2.3091,-2.3091,-2.3091,-2.3091,-2.3091,-2.3091,-2.3091,-2.3091,-2.3091,-2.3091,-2.3091,-2.3091,-2.3091,-2.3091,-2.3091,-2.3091,-2.3091,-2.3091,-2.3091,-2.3091,-2.3091,-2.3091,-2.3091,-2.5549,-2.5899,-2.6466,-2.6466,-2.7258,-2.772,-2.6706,-2.7078,-2.7315,-2.6294,-2.5878,-2.5693,-2.5693,-2.5693,-2.5693,-2.5693,-2.5693,-2.5693,-2.5693,-2.5693,-2.5693,-2.5693,-2.5693,-2.5693,-2.5693,-2.5693,-2.5693,-2.5693,-2.5693,-2.5693,-2.5693,-2.5693,-2.5693,-2.5693,-2.5693,-2.5693,-2.5693,-2.5693,-2.5693,-2.5693,-2.5693,-2.5693,-2.5693,-2.5693,-2.5693,-2.5693,-2.5693,-2.5693,-2.5693,-2.5693,-2.5693,-2.5693,-2.5693,-2.5693,-2.5693,-2.5693,-2.5693,-2.5693,-2.5693,-2.5693,-2.5693,-2.5693,-2.5216,-2.4697,-2.4697,-2.4697,-2.4697,-2.4697,-2.4629,-2.456,-2.456,-2.4492,-2.4414,-2.4414,-2.417,-2.3828,-2.3442,-2.3364,-2.3335,-2.3257,-2.3237,-2.3208,-2.311,-2.3091,-2.3091,-2.3091,-2.3091,-2.3091,-2.3091,-2.3091,-2.3091,-2.3091,-2.3091,-2.3091,-2.3091,-2.3091,-2.3091,-2.3091,-2.3091,-2.3091,-2.3091,-2.3091,-2.3091,-2.3091,-2.3091,-2.3091,-2.3091,-2.3091,-2.3091,-2.3091,-2.3091,-2.314,-2.8266,-2.8732,-2.9039,-2.9039,-2.9131,-2.9223,-2.9085,-2.8319,-2.7589,-2.7447,-2.6524,-2.5693,-2.5693,-2.5693,-2.5693,-2.5693,-2.5693,-2.5693,-2.5693,-2.5693,-2.5693,-2.5693,-2.5693,-2.5693,-2.5693,-2.5693,-2.5693,-2.5693,-2.5693,-2.5693,-2.5693,-2.5693,-2.5693,-2.5693,-2.5693,-2.5693,-2.5693,-2.5693,-2.5693,-2.5693,-2.5693,-2.5693,-2.5693,-2.5693,-2.5693,-2.5693,-2.5693,-2.5693,-2.5693,-2.5693,-2.5693,-2.5693,-2.5693,-2.5693,-2.5693,-2.5693,-2.5693,-2.5693,-2.5693,-2.5693,-2.5693,-2.5693,-2.5635,-2.5567,-2.5567,-2.5567,-2.5567,-2.5567,-2.5322,-2.5057,-2.5057,-2.4717,-2.4414,-2.4414,-2.4385,-2.4346,-2.4307,-2.4297,-2.4189,-2.3809,-2.373,-2.3603,-2.3169,-2.3091,-2.3091,-2.3091,-2.3091,-2.3091,-2.3091,-2.3091,-2.3091,-2.3091,-2.3091,-2.3091,-2.3091,-2.3091,-2.3091,-2.3091,-2.3091,-2.3091,-2.3091,-2.3091,-2.3091,-2.3091,-2.3091,-2.3091,-2.3091,-2.3091,-2.3091,-2.3091,-2.3091,-2.3305,-2.8901,-2.9082,-2.9407,-2.9407,-2.9954,-3.0305,-2.959,-2.959,-2.9361,-2.7908,-2.722,-2.662,-2.583,-2.5693,-2.5693,-2.5693,-2.5693,-2.5693,-2.5693,-2.5693,-2.5693,-2.5693,-2.5693,-2.5693,-2.5693,-2.5693,-2.5693,-2.5693,-2.5693,-2.5693,-2.5693,-2.5693,-2.5693,-2.5693,-2.5693,-2.5693,-2.5693,-2.5693,-2.5693,-2.5693,-2.5693,-2.5693,-2.5693,-2.5693,-2.5693,-2.5693,-2.5693,-2.5693,-2.5693,-2.5693,-2.5693,-2.5693,-2.5693,-2.5693,-2.5693,-2.5693,-2.5693,-2.5693,-2.5693,-2.5693,-2.5693,-2.5693,-2.5693,-2.5693,-2.5693,-2.5693,-2.5693,-2.5693,-2.5557,-2.5469,-2.5469,-2.5342,-2.5146,-2.4873,-2.4805,-2.4736,-2.4473,-2.4414,-2.4365,-2.4199,-2.417,-2.4111,-2.389,-2.3861,-2.3861,-2.3861,-2.3691,-2.3525,-2.3525,-2.3257,-2.3091,-2.3091,-2.3091,-2.3091,-2.3091,-2.3091,-2.3091,-2.3091,-2.3091,-2.3091,-2.3091,-2.3091,-2.3091,-2.3091,-2.3091,-2.3091,-2.3091,-2.3091,-2.3227,-2.3525,-2.428,-2.4856,-3.0247,-3.0285,-3.0496,-3.0496,-3.1134,-3.1545,-3.0687,-3.0866,-3.0631,-2.8541,-2.7861,-2.722,-2.5917,-2.5693,-2.5693,0.0,0.0,-2.5693,-2.5693,-2.5693,-2.5693,-2.5693,-2.5693,-2.5693,-2.5693,-2.5693,-2.5693,-2.5693,-2.5693,-2.5693,-2.5693,-2.5693,-2.5693,-2.5693,-2.5693,-2.5693,-2.5693,-2.5693,-2.5693,-2.5693,-2.5693,-2.5693,-2.5693,-2.5693,-2.5693,-2.5693,-2.5693,-2.5693,-2.5693,-2.5693,-2.5693,-2.5693,-2.5693,-2.5693,-2.5693,-2.5693,-2.5693,-2.5693,-2.5693,-2.5693,-2.5693,-2.5693,-2.5693,-2.5693,-2.5693,-2.5693,-2.5693,-2.5693,-2.5693,-2.5693,-2.5693,-2.5693,-2.5615,-2.5342,-2.5264,-2.5185,-2.4873,-2.4758,-2.4766,-2.4639,-2.4609,-2.457,-2.4443,-2.4414,-2.4414,-2.4414,-2.417,-2.3975,-2.3975,-2.3711,-2.3471,-2.3471,-2.3471,-2.3364,-2.312,-2.3091,-2.3091,-2.3091,-2.3091,-2.3091,-2.3091,-2.3091,-2.3091,-2.3091,-2.3218,-2.3286,-2.3286,-2.3413,-2.3627,-2.402,-2.5259,-2.6241,-3.2905,-3.3068,-3.3081,-3.3081,-3.3068,-3.3081,-3.3068,-3.2108,-3.0855,-2.9636,-2.8402,-2.722,-2.5917,-2.5693,-2.5693,-2.5693,-2.5693,0.0,-2.5693,-2.5693,-2.5693,-2.5693,-2.5693,-2.5693,-2.5693,-2.5693,-2.5693,-2.5693,-2.5693,-2.5693,-2.5693,-2.5693,-2.5693,-2.5693,-2.5693,-2.5693,-2.5693,-2.5693,-2.5693,-2.5693,-2.5693,-2.5693,-2.5693,-2.5693,-2.5693,-2.5693,-2.5693,-2.5693,-2.5693,-2.5693,-2.5693,-2.5693,-2.5693,-2.5693,-2.5693,-2.5693,-2.5693,-2.5693,-2.5693,-2.5693,-2.5693,-2.5693,-2.5693,-2.5693,-2.5693,-2.5693,-2.5693,-2.5693,-2.5693,-2.5693,-2.5693,-2.5693,-2.5693,-2.5684,-2.5684,-2.5684,-2.5674,-2.5674,-2.5596,-2.5194,-2.5106,-2.4969,-2.4492,-2.4414,-2.4414,-2.4414,-2.4414,-2.4414,-2.4414,-2.4404,-2.4404,-2.4404,-2.4404,-2.4062,-2.3169,-2.3091,-2.3091,-2.3091,-2.3091,-2.3091,-2.3091,-2.3091,-2.3091,-2.3091,-2.3564,-2.3779,-2.3779,-2.4199,-2.4404,-2.4404,-2.5677,-2.7178,-3.3074,-3.3124,-3.3124,-3.3124,-3.3124,-3.3124,-3.3124,-3.2797,-3.2152,-3.0899,-2.967,-2.8448,-2.721,-2.6294,-2.5693,-2.5693,-2.5693,-2.5693,-2.5693,-2.5693,-2.5693,-2.5693,-2.5693,-2.5693,-2.5693,-2.5693,-2.5693,-2.5693,-2.5693,-2.5693,-2.5693,-2.5693,-2.5693,-2.5693,-2.5693,-2.5693,-2.5693,-2.5693,-2.5693,-2.5693,-2.5693,-2.5693,-2.5693,-2.5693,-2.5693,-2.5693,-2.5693,-2.5693,-2.5693,-2.5693,-2.5693,-2.5693,-2.5693,-2.5693,-2.5693,-2.5693,-2.5693,-2.5693,-2.5693,-2.5693,-2.5693,-2.5693,-2.6294,-2.6849,-2.5965,-2.5693,-2.5693,-2.5693,-2.5693,-2.5693,-2.5693,-2.5693,-2.5693,-2.5693,-2.5693,-2.5693,-2.5693,-2.5693,-2.5645,-2.5557,-2.5527,-2.5478,-2.5294,-2.5274,-2.5274,-2.5274,-2.5059,-2.4863,-2.4863,-2.46,-2.4414,-2.4414,-2.4414,-2.4307,-2.3988,-2.4014,-2.4014,-2.4014,-2.4014,-2.4014,-2.4014,-2.4014,-2.4014,-2.4014,-2.4141,-2.4655,-2.5527,-2.5626,-2.6734,-2.8653,-2.9348,-3.0411,-3.3061,-3.3124,-3.3124,-3.3124,-3.3124,-3.3124,-3.3124,-3.3124,-3.2754,-3.1456,-3.0586,-2.959,-2.7908,-2.6935,-2.6245,-2.5781,-2.5693,-2.5693,-2.5693,-2.5693,-2.5693,-2.5693,-2.5693,-2.5693,-2.5693,-2.5693,-2.5693,-2.5693,-2.5693,-2.5693,-2.5693,-2.5693,-2.5693,-2.5693,-2.5693,-2.5693,-2.5693,-2.5693,-2.5693,-2.5693,-2.5693,-2.5693,-2.5693,-2.5693,-2.5693,-2.5693,-2.5693,-2.5693,0.0,-2.5693,-2.5693,-2.5693,-2.5693,-2.5693,-2.5693,-2.5693,-2.5693,-2.5693,-2.5693,-2.5693,-2.5693,-2.5693,-2.6572,-2.7542,-2.721,-2.6802,-2.6524,-2.6982,-2.7115,-2.7115,-2.7115,-2.7115,-2.7115,-2.7115,-2.7115,-2.7115,-2.7115,-2.7115,-2.7115,-2.7115,-2.6754,-2.6438,-2.6438,-2.6014,-2.5693,-2.5693,-2.5498,-2.5322,-2.5322,-2.5078,-2.4865,-2.4865,-2.4865,-2.4865,-2.4865,-2.4609,-2.4414,-2.4414,-2.4414,-2.4414,-2.4414,-2.4414,-2.4644,-2.5128,-2.5243,-2.5955,-2.7244,-2.7417,-2.8645,-3.0846,-3.1068,-3.1865,0.0,-3.3086,-3.3124,-3.3124,-3.3124,-3.3124,-3.3124,-3.3124,0.0,-3.1589,-3.1267,-3.0496,-2.8179,-2.7683,-2.7173,-2.5927,-2.5693,-2.5693,-2.5693,-2.5693,-2.5693,-2.5693,-2.5693,-2.5693,-2.5693,-2.5693,-2.5693,-2.5693,-2.5693,-2.5693,-2.5693,-2.5693,-2.5693,-2.5693,-2.5693,-2.5693,-2.5693,-2.5693,-2.5693,-2.5693,-2.5693,-2.5693,-2.5693,-2.5693,-2.5693,-2.5693,-2.5693,-2.5693,-2.5693,-2.5693,-2.5693,-2.5693,-2.5693,-2.5693,-2.5693,-2.5693,-2.5693,-2.5684,-2.5781,-2.5781,-2.5732,-2.5927,-2.6754,-2.7955,-2.9269,-2.8773,-2.7955,-2.9085,-2.9407,-2.9407,-2.9407,-2.9407,-2.9407,-2.9407,-2.9407,-2.9407,-2.9407,-2.9407,-2.9407,-2.9407,-2.8495,-2.7731,-2.7731,-2.6668,-2.583,-2.583,-2.5781,-2.5693,-2.5693,-2.5693,-2.5693,-2.5693,-2.5693,-2.5693,-2.5693,-2.4933,-2.4512,-2.4512,-2.4512,-2.4512,-2.4512,-2.4512,-2.5035,-2.6232,-2.6799,-2.7707,-2.8969,-2.9466,-3.0226,-3.1356,-3.1356,-3.1965,-3.2152,0.0,-3.3124,-3.3124,-3.3124,-3.3124,0.0,-3.3124,-3.3025,-3.2698,-3.1877,-3.0721,-2.9269,-2.8226,-2.7173,-2.5927,-2.5693,-2.5693,-2.5693,-2.5693,-2.5693,-2.5693,-2.5693,-2.5693,-2.5693,-2.5693,-2.5693,-2.5693,-2.5693,-2.5693,-2.5693,-2.5693,-2.5693,-2.5693,-2.5693,-2.5693,-2.5693,-2.5693,-2.5693,-2.5693,-2.5693,-2.5693,-2.5693,-2.5693,-2.5693,-2.5693,-2.5693,-2.5693,-2.5693,-2.5693,-2.5693,-2.5693,-2.5693,-2.5693,-2.5693,-2.5693,-2.5693,-2.583,-2.6802,-2.6524,-2.6014,-2.7887,-2.8716,-2.9361,-3.1557,-3.0687,-2.9039,-2.9315,-2.9407,-2.9407,-2.9407,-2.9407,-2.9407,-2.9407,-2.9407,-2.9407,-2.9407,-2.9407,-2.9407,-2.9407,-2.9177,-2.9004,-2.9004,-2.7945,-2.7125,-2.7125,-2.6342,-2.5693,-2.5693,-2.5693,-2.5693,-2.5693,-2.5693,-2.5693,-2.5693,-2.5499,-2.5382,-2.5382,-2.5382,-2.5382,-2.5382,-2.5382,-2.5516,-2.5841,-2.7814,-2.941,-3.0634,-3.1728,-3.2382,-3.2655,-3.2655,-3.2797,-3.1926,-3.2441,-3.2742,-3.3048,-3.3124,-3.3124,-3.3124,-3.3124,-3.3124,-3.3124,-3.2568,-3.15,-2.9727,-2.8866,-2.7814,-2.6014,-2.5693,-2.5693,-2.5693,-2.5693,-2.5693,-2.5693,-2.5693,-2.5693,-2.5693,-2.5693,-2.5693,-2.5693,-2.5693,-2.5693,-2.5693,-2.5693,-2.5693,-2.5693,-2.5693,-2.5693,-2.5693,-2.5693,-2.5693,-2.5693,-2.5693,-2.5693,-2.5693,-2.5693,-2.5693,-2.5693,-2.5693,-2.5693,-2.5693,-2.5693,-2.5693,-2.5693,-2.5693,-2.6062,-2.6476,-2.5927,-2.6428,-2.7437,-2.7542,-2.7494,-2.7709,-2.9624,-3.0226,-3.0586,-3.2525,-3.2152,-3.1101,-3.1101,-3.1101,-3.1101,-3.1101,-3.1101,-3.1101,-3.1101,-3.1101,-3.1101,-3.1101,-3.1101,-3.1101,-3.1101,-3.0181,-2.959,-3.0135,-2.8773,-2.7589,-2.7589,-2.703,-2.6342,-2.5781,-2.5693,-2.5693,-2.5693,-2.5693,-2.5693,-2.5693,-2.5693,-2.5693,-2.5693,-2.5693,-2.5693,-2.5693,-2.5693,-2.6245,-2.7389,-2.9269,-3.081,-3.2052,-3.2754,-3.3124,-3.3124,-3.3124,-3.3124,-3.18,-3.2089,-3.224,-3.2918,-3.3124,-3.3124,-3.3124,-3.3124,-3.3124,-3.3124,-3.2939,-3.2108,-2.9818,-2.9269,-2.8355,-2.6062,-2.5693,-2.5693,-2.5693,-2.5693,-2.5693,-2.5693,-2.5693,-2.5693,-2.5693,-2.5693,-2.5693,-2.5693,-2.5693,-2.5693,-2.5693,-2.5693,-2.5693,-2.5693,-2.5693,-2.5693,-2.5693,-2.5693,-2.5693,-2.5693,-2.5693,-2.5693,-2.5693,-2.5693,-2.5693,-2.5693,-2.5693,-2.5693,-2.5742,-2.5927,-2.5965,-2.6014,-2.6197,-2.6935,-2.772,-2.6658,-2.7626,-2.9269,-2.8226,-2.8773,-3.009,-3.0944,-3.1311,-3.1677,-3.2797,-3.3124,-3.3124,-3.3124,-3.3124,-3.3124,-3.3124,-3.3124,-3.3124,-3.3124,-3.3124,-3.3124,-3.3124,-3.3124,-3.3124,-3.3124,-3.1412,-3.0271,-3.1311,-2.9636,-2.8132,-2.8132,-2.7814,-2.722,-2.611,-2.583,-2.5693,-2.5693,-2.5693,-2.5693,-2.5693,-2.5693,-2.5693,-2.5693,-2.5693,-2.5693,-2.5693,-2.5693,-2.6887,-2.9361,-3.0395,-3.1633,-3.3124,-3.3124,-3.3124,-3.3124,-3.3124,-3.3124,-3.1223,-3.1512,-3.1763,-3.286,-3.3124,-3.3124,-3.3124,-3.3124,-3.3124,-3.3124,-3.2239,-3.1045,-2.9681,-2.8588,-2.74,-2.5927,-2.5693,-2.5693,-2.5693,-2.5693,-2.5693,-2.5693,-2.5693,-2.5693,-2.5693,-2.5693,-2.5693,-2.5693,-2.5693,-2.5693,-2.5693,-2.5693,-2.5693,-2.5693,-2.5693,-2.5693,-2.5693,-2.5693,-2.5693,-2.5693,-2.5693,-2.5693,-2.5693,-2.5693,-2.5693,-2.5693,-2.5693,-2.5693,-2.5781,-2.6849,-2.7315,-2.74,-2.8448,-2.8947,-2.9085,-2.8901,-2.9085,-2.9361,-2.9177,-3.0598,-3.2382,-3.15,-3.1909,-3.284,-3.3025,-3.3124,-3.3124,-3.3124,-3.3124,-3.3124,-3.3124,-3.3124,-3.3124,-3.3124,-3.3124,-3.3124,-3.3124,-3.3124,-3.3124,-3.3124,-3.2797,-3.2568,-3.2797,-3.1601,-3.0631,-3.0631,-2.8912,-2.7542,-2.7305,-2.639,-2.5693,-2.5693,-2.5693,-2.5693,-2.5693,-2.5693,-2.5693,-2.5693,-2.5693,-2.5693,-2.5693,-2.5693,-2.6887,-2.9361,-2.959,-3.0822,-3.3124,-3.3124,-3.3124,-3.3124,-3.3124,-3.3124,-3.1537,-3.1838,-3.2039,-3.2867,-3.3124,-3.3124,-3.3124,-3.3124,-3.3124,-3.3124,-3.2096,-3.081,-2.9636,-2.8402,-2.7173,-2.5927,-2.5693,-2.5693,-2.5693,-2.5693,-2.5693,-2.5693,-2.5693,-2.5693,-2.5693,-2.5693,-2.5693,-2.5693,-2.5693,-2.5693,-2.5693,-2.5693,-2.5693,-2.5693,-2.5693,-2.5693,-2.5693,-2.5693,-2.5693,-2.5693,-2.5693,-2.5693,-2.5693,-2.5693,-2.6062,-2.6716,-2.6716,-2.7125,-2.7757,-2.8308,-2.8588,-2.8634,-2.9177,-2.9818,-3.0451,-3.1146,-3.0956,-3.0451,-3.1146,-3.2152,-3.2982,-3.2426,-3.2612,-3.3124,-3.3124,-3.3124,-3.3124,-3.3124,-3.3124,-3.3124,-3.3124,-3.3124,-3.3124,-3.3124,-3.3124,-3.3124,-3.3124,-3.3124,-3.3124,-3.3124,-3.2556,-3.2283,-3.2982,-3.2052,-3.1223,-3.1223,-3.0271,-2.9085,-2.7778,-2.7078,-2.6476,-2.5781,-2.5693,-2.5693,-2.5693,-2.5693,-2.5693,-2.5693,-2.5693,-2.5693,-2.5693,-2.5693,-2.6887,-2.9361,-2.9407,-3.0643,-3.3124,-3.3124,-3.3124,-3.3124,-3.3124,-3.3124,-3.1951,-3.2215,-3.2353,-3.293,-3.3124,-3.3124,-3.3124,-3.3124,-3.3124,-3.3124,-3.1877,-3.0496,-2.959,-2.8179,-2.6849,-2.5878,-2.5693,-2.5693,-2.5693,-2.5693,-2.5693,-2.5693,-2.5693,-2.5693,-2.5693,-2.5693,-2.5693,-2.5693,-2.5693,-2.5693,-2.5693,-2.5693,-2.5693,-2.5693,-2.5693,-2.5693,-2.5693,-2.5693,-2.5693,-2.5693,-2.6014,-2.6159,-2.6149,-2.6428,-2.7125,-2.8002,-2.8002,-2.8541,-2.9407,-2.9727,-2.9818,-2.9863,-3.0135,-3.0822,-3.1777,-3.2754,-3.2469,-3.1777,-3.2754,-3.3124,-3.3124,-3.3124,-3.3124,-3.3124,-3.3124,-3.3124,-3.3124,-3.3124,-3.3124,-3.3124,-3.3124,-3.3124,-3.3124,-3.3124,-3.3124,-3.3124,-3.3124,-3.3124,-3.3124,-3.3124,-3.2326,-3.1952,-3.2939,-3.2283,-3.1633,-3.1633,-3.14,-3.0451,-2.8319,-2.8002,-2.7542,-2.6294,-2.638,-2.6476,-2.6149,-2.5878,-2.5693,-2.5693,-2.5693,-2.583,-2.6149,-2.6159,-2.7305,-2.9772,-2.9818,-3.0911,-3.3124,-3.3124,-3.3124,-3.3124,-3.3124,-3.3124,-3.2051,-3.2215,-3.2353,-3.293,-3.3124,-3.3124,-3.3124,-3.3124,-3.3124,-3.3124,-3.119,-2.9498,-2.9407,-2.7437,-2.583,-2.5684,-2.5693,-2.5693,-2.5693,-2.5693,-2.5693,-2.5693,-2.5693,-2.5693,-2.5693,-2.5693,-2.5693,-2.5693,-2.5693,-2.5693,-2.5693,-2.5693,-2.5693,-2.5693,-2.5693,-2.5693,-2.5693,-2.5693,-2.5693,-2.5684,-2.6897,-2.7447,-2.7494,-2.8634,-2.9177,-2.9269,-2.9269,-2.9315,-2.9498,-3.0631,-3.1078,-3.1178,-3.2382,-3.2896,-3.2982,-3.3068,-3.3025,-3.2982,-3.3068,-3.3124,-3.3124,-3.3124,-3.3124,-3.3124,-3.3124,-3.3124,-3.3124,-3.3124,-3.3124,-3.3124,-3.3124,-3.3124,-3.3124,-3.3124,-3.3124,-3.3124,-3.3124,-3.3124,-3.3124,-3.3124,-3.3025,-3.2982,-3.3068,-3.3025,-3.2982,-3.2982,-3.1965,-3.0721,-2.9453,-2.9269,-2.8819,-2.7589,-2.8448,-2.868,-2.7542,-2.638,-2.5693,-2.5693,-2.5693,-2.6245,-2.74,-2.7447,-2.8588,-3.1033,-3.1078,-3.1733,-3.3124,-3.3124,-3.3124,-3.3124,-3.3124,-3.3124,-3.2591,-3.2754,-3.2805,-3.3018,-3.3124,-3.3124,-3.3124,-3.3124,-3.2884,-3.2096,-3.0586,-2.8947,-2.7389,-2.6332,-2.5693,-2.5693,-2.5693,-2.5693,-2.5693,-2.5693,-2.5693,-2.5693,-2.5693,-2.5693,-2.5693,-2.5693,-2.5693,-2.5693,-2.5693,-2.5693,-2.5693,-2.5693,-2.5693,-2.5693,-2.5693,-2.5693,-2.5693,-2.5693,-2.5693,-2.5742,-2.6993,-2.7589,-2.7636,-2.8866,-2.9806,-3.0541,-3.0541,-3.0956,-3.1745,-3.2196,-3.2382,-3.2426,-3.2896,-3.3124,-3.3124,-3.3124,-3.3124,-3.3124,-3.3124,-3.3124,-3.3124,-3.3124,-3.3124,-3.3124,-3.3124,-3.3124,-3.3124,-3.3124,-3.3124,-3.3124,-3.3124,-3.3124,-3.3124,-3.3124,-3.3124,-3.3124,-3.3124,-3.3124,-3.3124,-3.3124,-3.3124,-3.3124,-3.3124,-3.3124,-3.3124,-3.3124,-3.2008,-3.1045,-3.0586,-2.9852,-2.9223,-2.8773,-2.9131,-2.8901,-2.7683,-2.7861,-2.7662,-2.6945,-2.6897,-2.7078,-2.7589,-2.8319,-2.9498,-3.1178,-3.1223,-3.1821,-3.3124,-3.3124,-3.3124,-3.3124,-3.3124,-3.3124,-3.2968,-3.3124,-3.3124,-3.3124,-3.3124,-3.2982,-3.2612,-3.2513,-3.2239,-3.1356,-2.9954,-2.8179,-2.611,-2.5693,-2.5693,-2.5693,-2.5693,-2.5693,-2.5693,-2.5693,-2.5693,-2.5693,-2.5693,-2.5693,-2.5693,-2.5693,-2.5693,-2.5693,-2.5693,-2.5693,-2.5693,-2.5693,-2.5693,-2.5693,-2.5693,-2.5693,-2.5693,-2.5693,-2.5917,-2.6294,-2.7589,-2.8179,-2.8226,-2.9818,-3.1,-3.1821,-3.1821,-3.2283,-3.3124,-3.3124,-3.3124,-3.3124,-3.3124,-3.3124,-3.3124,-3.3124,-3.3124,-3.3124,-3.3124,-3.3124,-3.3124,-3.3124,-3.3124,-3.3124,-3.3124,-3.3124,-3.3124,-3.3124,-3.3124,-3.3124,-3.3124,-3.3124,-3.3124,-3.3124,-3.3124,-3.3124,-3.3124,-3.3124,-3.3124,-3.3124,-3.3124,-3.3124,-3.3124,-3.3124,-3.3124,-3.3124,-3.2382,-3.1633,-3.1267,-3.0822,-3.0553,-3.0553,-3.0226,-2.9636,-2.8819,-2.9131,-2.9039,-2.8226,-2.8541,-2.8727,-2.8727,-2.9544,-3.0541,-3.1777,-3.1821,-3.2239,-3.3124,-3.3124,-3.3124,-3.3124,-3.3124,-3.3124,-3.3124,-3.3124,-3.3124,-3.3124,-3.3081,-3.2754,-3.15,-3.1223,-3.1166,-3.1178,-2.9269,-2.722,-2.5917,-2.5693,-2.5693,-2.5693,-2.5693,-2.5693,-2.5693,-2.5693,-2.5693,-2.5693,-2.5693,-2.5693,-2.5693,-2.5693,-2.5693,-2.5693,-2.5693,-2.5693,-2.5693,-2.5693,-2.5693,-2.5693,-2.5693,-2.5693,-2.5693,-2.5693,-2.6342,-2.7589,-2.8819,-2.9407,-2.9498,-3.1965,-3.3124,-3.3124,-3.3124,-3.3124,-3.3124,-3.3124,-3.3124,-3.3124,-3.3124,-3.3124,-3.3124,-3.3124,-3.3124,-3.3124,-3.3124,-3.3124,-3.3124,-3.3124,-3.3124,-3.3124,-3.3124,-3.3124,-3.3124,-3.3124,-3.3124,-3.3124,-3.3124,-3.3124,-3.3124,-3.3124,-3.3124,-3.3124,-3.3124,-3.3124,-3.3124,-3.3124,-3.3124,-3.3124,-3.3124,-3.3124,-3.3124,-3.3124,-3.3081,-3.2612,-3.1368,-3.2339,-3.3136,-3.3136,-3.1977,-3.1235,-3.1235,-3.0147,-2.9464,-2.9418,-3.0553,-3.1223,-3.1223,-3.1223,-3.1821,-3.3081,-3.3124,-3.3124,-3.3124,-3.3124,-3.3124,-3.3124,-3.3124,-3.3124,-3.3124,-3.3124,-3.3124,-3.3124,-3.2426,-3.1677,-3.1311,-3.1223,-3.0721,-2.9004,-2.74,-2.6149,-2.5781,-2.5693,-2.5693,-2.5693,-2.5693,-2.5693,-2.5693,-2.5693,-2.5693,-2.5693,-2.5693,-2.5693,-2.5693,-2.5693,-2.5693,-2.5693,-2.5693,-2.5693,-2.5693,-2.5693,-2.5693,-2.5693,-2.5693,-2.5693,-2.5693,-2.5693,-2.6342,-2.7589,-2.8819,-2.9863,-3.0721,-3.2339,-3.3124,-3.3124,-3.3124,-3.3124,-3.3124,-3.3124,-3.3124,-3.3124,-3.3124,-3.3124,-3.3124,-3.3124,-3.3124,-3.3124,-3.3124,-3.3124,-3.3124,-3.3124,-3.3124,-3.3124,-3.3124,-3.3124,-3.3124,-3.3124,-3.3124,-3.3124,-3.3124,-3.3124,-3.3124,-3.3124,-3.3124,-3.3124,-3.3124,-3.3124,-3.3124,-3.3124,-3.3124,-3.3124,-3.3124,-3.3124,-3.3124,-3.3124,-3.2326,-3.1777,-3.1836,-3.3236,-3.4236,-3.4236,-3.3898,-3.3334,-3.2478,-3.2856,-3.2765,-3.1913,-3.2992,-3.2934,-3.1247,-3.2052,-3.2698,-3.3081,-3.3124,-3.3124,-3.3124,-3.3124,-3.3124,-3.3124,-3.3124,-3.3282,-3.3124,-3.3124,-3.3124,-3.3124,-3.2152,-3.0944,-2.9988,-2.9772,-2.9223,-2.7258,-2.6245,-2.5693,-2.5693,-2.5693,-2.5693,-2.5693,-2.5693,-2.5693,-2.5693,-2.5693,-2.5693,-2.5693,-2.5693,-2.5693,-2.5693,-2.5693,-2.5693,-2.5693,-2.5693,-2.5693,-2.5693,-2.5693,-2.5693,-2.5693,-2.5693,-2.5693,-2.5693,-2.5693,-2.6342,-2.7589,-2.8819,-3.0033,-3.1223,-3.2513,-3.3124,-3.3124,-3.3124,-3.3124,-3.3124,-3.3124,-3.3124,-3.3124,-3.3124,-3.3124,-3.3124,-3.3124,-3.3124,-3.3124,-3.3124,-3.3124,-3.3124,-3.3124,-3.3124,-3.3124,-3.3124,-3.3124,-3.3124,-3.3124,-3.3124,-3.3124,-3.3124,-3.3124,-3.3124,-3.3124,-3.3124,-3.3124,-3.3124,-3.3124,-3.3124,-3.3124,-3.3124,-3.3187,-3.337,-3.3407,-3.3483,-3.3696,-3.3067,-3.2718,-3.3104,-3.4037,-3.468,-3.468,-3.468,-3.4396,-3.3674,-3.4293,-3.4144,-3.2897,-3.4007,-3.3847,-3.1877,-3.3022,-3.3734,-3.3734,-3.3734,-3.3734,-3.3734,-3.3734,-3.3734,-3.3734,-3.3734,-3.3909,-3.3124,-3.3124,-3.3124,-3.3124,-3.2052,-3.0395,-2.8002,-2.7458,-2.7078,-2.5927,-2.5693,-2.5693,-2.5693,-2.5693,-2.5693,-2.5693,-2.5693,-2.5693,-2.5693,-2.5693,-2.5693,-2.5693,-2.5693,-2.5693,-2.5693,-2.5693,-2.5693,-2.5693,-2.5693,-2.5693,-2.5693,-2.5693,-2.5693,-2.5693,-2.5693,-2.5693,-2.5693,-2.5693,-2.638,-2.7767,-2.8866,-3.009,-3.14,-3.2568,-3.3124,-3.3124,-3.3124,-3.3124,-3.3124,-3.3124,-3.3124,-3.3124,-3.3124,-3.3124,-3.3124,-3.3124,-3.3124,-3.3124,-3.3124,-3.3124,-3.3124,-3.3124,-3.3124,-3.3124,-3.3124,-3.3124,-3.3124,-3.3124,-3.3124,-3.3124,-3.3124,-3.3124,-3.3124,-3.3124,-3.3124,-3.3124,-3.3124,-3.3124,-3.3093,-3.3144,-3.3156,-3.3319,-3.3884,-3.3972,-3.4148,-3.465,-3.4718,-3.4756,-3.4756,-3.4839,-3.4831,-3.4682,-3.4682,-3.4636,-3.4487,-3.4487,-3.4004,-3.2935,-3.4004,-3.4188,-3.3075,-3.4102,-3.468,-3.468,-3.468,-3.468,-3.468,-3.468,-3.468,-3.468,-3.468,-3.4751,-3.3124,-3.3124,-3.3124,-3.3124,-3.1424,-2.9131,-2.6658,-2.611,-2.6014,-2.5781,-2.5693,-2.5693,-2.5693,-2.5693,-2.5693,-2.5693,-2.5693,-2.5693,-2.5693,-2.5693,-2.5693,-2.5693,-2.5693,-2.5693,-2.5693,-2.5693,-2.5693,-2.5693,-2.5693,-2.5693,-2.5693,-2.5693,-2.5693,-2.5693,-2.5693,-2.5693,-2.5693,-2.5693,-2.6791,-2.9004,-2.9269,-3.0553,-3.2698,-3.2982,-3.3124,-3.3124,-3.3124,-3.3124,-3.3124,-3.3124,-3.3124,-3.3124,-3.3124,-3.3124,-3.3124,-3.3124,-3.3124,-3.3124,-3.3124,-3.3124,-3.3124,-3.3124,-3.3124,-3.3124,-3.3124,-3.3124,-3.3124,-3.3124,-3.3124,-3.3124,-3.3124,-3.3124,-3.3124,-3.3124,-3.3124,-3.3124,-3.3124,-3.3124,-3.3206,-3.3633,-3.3721,-3.3897,-3.4449,-3.455,-3.4587,-3.4655,-3.5044,-3.532,-3.532,-3.5742,-3.5618,-3.4583,-3.4438,-3.4041,-3.292,-3.2822,-3.3177,-3.3992,-3.4294,-3.4834,-3.5558,-3.5028,-3.468,-3.468,-3.468,-3.468,-3.468,-3.468,-3.468,-3.468,-3.468,-3.4906,-3.324,-3.3124,-3.2797,-3.1613,-3.0373,-2.8762,-2.6294,-2.5693,-2.5693,-2.5693,-2.5693,-2.5693,-2.5693,-2.5693,-2.5693,-2.5693,-2.5693,-2.5693,-2.5693,-2.5693,-2.5693,-2.5693,-2.5693,-2.5693,-2.5693,-2.5693,-2.5693,-2.5693,-2.5693,-2.5693,-2.5693,-2.5693,-2.5693,-2.5693,-2.5693,-2.5693,-2.5693,-2.5693,-2.6658,-2.8541,-2.9131,-3.0687,-3.3124,-3.3124,-3.3124,-3.3124,-3.3124,-3.3124,-3.3124,-3.3124,-3.3124,-3.3124,-3.3124,-3.3124,-3.3124,-3.3124,-3.3124,-3.3124,-3.3124,-3.3124,-3.3124,-3.3124,-3.3124,-3.3124,-3.3124,-3.3124,-3.3124,-3.3124,-3.3124,-3.3124,-3.3124,-3.3124,-3.3124,-3.3124,-3.3124,-3.3124,-3.3124,-3.3282,-3.3558,-3.3847,-3.411,-3.4462,-3.4969,-3.5328,-3.5504,-3.5504,-3.5755,-3.5931,-3.5931,-3.6194,-3.587,-3.4532,-3.4385,-3.3822,-3.2431,-3.228,-3.2593,-3.3353,-3.403,-3.4727,-3.5415,-3.5466,-3.5504,-3.5504,-3.5504,-3.5504,-3.5504,-3.5504,-3.5504,-3.5504,-3.5504,-3.5667,-3.3398,-3.3124,-3.2525,-3.0,-2.9407,-2.8762,-2.6294,-2.5693,-2.5693,-2.5693,-2.5693,-2.5693,-2.5693,-2.5693,-2.5693,-2.5693,-2.5693,-2.5693,-2.5693,-2.5693,-2.5693,-2.5693,-2.5693,-2.5693,-2.5693,-2.5693,-2.5693,-2.5693,-2.5693,-2.5693,-2.5693,-2.5693,-2.5693,-2.5693,-2.5693,-2.5693,-2.5693,-2.5927,-2.6658,-2.7908,-2.9361,-3.1101,-3.3124,-3.3124,-3.3124,-3.3124,-3.3124,-3.3124,-3.3124,-3.3124,-3.3124,-3.3124,-3.3124,-3.3124,-3.3124,-3.3124,-3.3124,-3.3124,-3.3124,-3.3124,-3.3124,-3.3124,-3.3124,-3.3124,-3.3124,-3.3124,-3.3124,-3.3124,-3.3124,-3.3124,-3.3124,-3.3124,-3.3106,-3.3206,-3.3262,-3.3262,-3.3262,-3.3583,-3.396,-3.4148,-3.4625,-3.5152,-3.5558,-3.6056,-3.6405,-3.6405,-3.6405,-3.6405,-3.6405,-3.6405,-3.587,-3.4532,-3.4385,-3.3723,-3.2079,-3.218,-3.228,-3.228,-3.3613,-3.4483,-3.4727,-3.581,-3.6405,-3.6405,-3.6405,-3.6405,-3.6405,-3.6405,-3.6405,-3.6405,-3.6405,-3.6405,-3.3398,-3.3124,-3.2525,-3.0,-2.9407,-2.8762,-2.6294,-2.5693,-2.5693,-2.5693,-2.5693,-2.5693,-2.5693,-2.5693,-2.5693,-2.5693,-2.5693,-2.5693,-2.5693,-2.5693,-2.5693,-2.5693,-2.5693,-2.5693,-2.5693,-2.5693,-2.5693,-2.5693,-2.5693,-2.5693,-2.5693,-2.5693,-2.5693,-2.5693,-2.5693,-2.5693,-2.5693,-2.6802,-2.7955,-2.9177,-3.1512,-3.2797,-3.3124,-3.3124,-3.3124,-3.3124,-3.3124,-3.3124,-3.3124,-3.3124,-3.3124,-3.3124,-3.3124,-3.3124,-3.3124,-3.3124,-3.3124,-3.3124,-3.3124,-3.3124,-3.3124,-3.3124,-3.3124,-3.3124,-3.3124,-3.3124,-3.3124,-3.3124,-3.3124,-3.3124,-3.3124,-3.3124,-3.3206,-3.3671,-3.3796,-3.3796,-3.3796,-3.3847,-3.4173,-3.5094,-3.5768,-3.6216,-3.6279,-3.6367,-3.6405,-3.6405,-3.6405,-3.6405,-3.6405,-3.6405,-3.587,-3.4532,-3.4385,-3.3365,-3.0773,-3.1633,-3.228,-3.228,-3.3613,-3.4933,-3.6061,-3.631,-3.6405,-3.6405,-3.6405,-3.6405,-3.6405,-3.6405,-3.6405,-3.6405,-3.6405,-3.6405,-3.3556,-3.3124,-3.2655,-3.0866,-3.0406,-2.9772,-2.7305,-2.6754,-2.6572,-2.583,-2.5693,-2.5693,-2.5693,-2.5693,-2.5693,-2.5693,-2.5693,-2.5693,-2.5693,-2.5693,-2.5693,-2.5693,-2.5693,-2.5693,-2.5693,-2.5693,-2.5693,-2.5693,-2.5693,-2.5693,-2.5693,-2.5693,-2.5693,-2.5693,-2.5693,-2.5693,-2.5693,-2.6945,-2.8541,-3.0451,-3.2239,-3.3124,-3.3124,-3.3124,-3.3124,-3.3124,-3.3124,-3.3124,-3.3124,-3.3124,-3.3124,-3.3124,-3.3124,-3.3124,-3.3124,-3.3124,-3.3124,-3.3124,-3.3124,-3.3124,-3.3124,-3.3124,-3.3124,-3.3124,-3.3124,-3.3124,-3.3124,-3.3124,-3.3124,-3.3124,-3.3124,-3.3307,-3.3596,-3.3847,-3.4135,-3.4449,-3.4705,-3.4781,-3.5052,-3.5843,-3.6194,-3.6405,-3.6405,-3.6405,-3.6405,-3.6405,-3.6405,-3.6405,-3.6405,-3.6405,-3.587,-3.4532,-3.4385,-3.3563,-3.1582,-3.1977,-3.2644,-3.3415,-3.408,-3.4981,-3.6358,-3.6405,-3.6405,-3.6405,-3.6405,-3.6405,-3.6405,-3.6405,-3.6405,-3.6405,-3.6405,-3.6405,-3.3586,-3.3124,-3.2797,-3.1545,-3.1223,-3.0586,-2.8132,-2.7589,-2.722,-2.5965,-2.5693,-2.5693,-2.5693,-2.5693,-2.5693,-2.5693,-2.5693,-2.5693,-2.5693,-2.5693,-2.5693,-2.5693,-2.5693,-2.5693,-2.5693,-2.5693,-2.5693,-2.5693,-2.5693,-2.5693,-2.5693,-2.5693,-2.5693,-2.5693,-2.5693,-2.5693,-2.5693,-2.7268,-2.9269,-3.1677,-3.2655,-3.3124,-3.3124,-3.3124,-3.3124,-3.3124,-3.3124,-3.3124,-3.3124,-3.3124,-3.3124,-3.3124,-3.3124,-3.3124,-3.3124,-3.3124,-3.3124,-3.3124,-3.3124,-3.3124,-3.3124,-3.3124,-3.3124,-3.3124,-3.3124,-3.3124,-3.3124,-3.3124,-3.3124,-3.3106,-3.3257,-3.3596,-3.3972,-3.4248,-3.4625,-3.4994,-3.5408,-3.5608,-3.5868,-3.6329,-3.6405,-3.6405,-3.6405,-3.6405,-3.6405,-3.6405,-3.6405,-3.6405,-3.6405,-3.6405,-3.6013,-3.503,-3.4933,-3.4374,-3.2944,-3.3143,-3.365,-3.4337,-3.4727,-3.5367,-3.6358,-3.6405,-3.6405,-3.6405,-3.6405,-3.6405,-3.6405,-3.6405,-3.6405,-3.6405,-3.6405,-3.6405,-3.3398,-3.3124,-3.2797,-3.1545,-3.1223,-3.0586,-2.8132,-2.7589,-2.722,-2.5965,-2.5693,-2.5693,-2.5693,-2.5693,-2.5693,-2.5693,-2.5693,-2.5693,-2.5693,-2.5693,-2.5693,-2.5693,-2.5693,-2.5693,-2.5693,-2.5693,-2.5693,-2.5693,-2.5693,-2.5693,-2.5693,-2.5693,-2.5693,-2.5693,-2.5693,-2.5693,-2.5693,-2.8085,-3.0553,-3.2982,-3.3068,-3.3124,-3.3124,-3.3124,-3.3124,-3.3124,-3.3124,-3.3124,-3.3124,-3.3124,-3.3124,-3.3124,-3.3124,-3.3124,-3.3124,-3.3124,-3.3124,-3.3124,-3.3124,-3.3124,-3.3124,-3.3124,-3.3124,-3.3124,-3.3124,-3.3124,-3.3124,-3.3124,-3.3124,-3.3206,-3.3721,-3.3872,-3.4161,-3.5157,-3.5433,-3.547,-3.5495,-3.5956,-3.6367,-3.6405,-3.6405,-3.6405,-3.6405,-3.6405,-3.6405,-3.6405,-3.6405,-3.6405,-3.6405,-3.6405,-3.6358,-3.631,-3.631,-3.5763,-3.4434,-3.5463,-3.5667,-3.4483,-3.5571,-3.631,-3.6405,-3.6405,-3.6405,-3.6405,-3.6405,-3.6405,-3.6405,-3.6405,-3.6405,-3.6405,-3.6405,-3.6405,-3.4233,-3.3641,-3.2982,-3.2513,-3.2426,-3.1965,-3.0271,-2.9909,-2.9361,-2.7352,-2.6897,-2.6668,-2.583,-2.5693,-2.5693,-2.5693,-2.5693,-2.5693,-2.5693,-2.5693,-2.5693,-2.5693,-2.5693,-2.5693,-2.5693,-2.5693,-2.5693,-2.5693,-2.5693,-2.5693,-2.5693,-2.5693,-2.5693,-2.5693,-2.5693,-2.6466,-2.8075,-2.9715,-3.1412,-3.3124,-3.3124,-3.3124,-3.3124,-3.3124,-3.3124,-3.3124,-3.3124,-3.3124,-3.3124,-3.3124,-3.3124,-3.3124,-3.3124,-3.3124,-3.3124,-3.3124,-3.3124,-3.3124,-3.3124,-3.3124,-3.3124,-3.3124,-3.3124,-3.3124,-3.3124,-3.3124,-3.3124,-3.3124,-3.3332,-3.3658,-3.3847,-3.4424,-3.514,-3.5893,-3.6069,-3.6069,-3.6069,-3.6267,-3.6405,-3.6405,-3.6405,-3.6405,-3.6405,-3.6405,-3.6405,-3.6405,-3.6405,-3.6405,-3.6405,-3.6405,-3.6405,-3.6405,-3.5619,-3.4933,-3.4434,-3.4824,-3.4933,-3.4434,-3.5667,-3.6405,-3.6405,-3.6405,-3.6405,-3.6405,-3.6405,-3.6405,-3.6405,-3.6405,-3.6405,-3.6405,-3.6405,-3.6405,-3.4787,-3.3911,-3.3124,-3.3124,-3.3124,-3.2754,-3.15,-3.1223,-3.0541,-2.8085,-2.7589,-2.722,-2.5917,-2.5693,-2.5693,-2.5693,-2.5693,-2.5693,-2.5693,-2.5693,-2.5693,-2.5693,-2.5693,-2.5693,-2.5693,-2.5693,-2.5693,-2.5693,-2.5693,-2.5693,-2.5693,-2.5693,-2.5878,-2.6342,-2.6342,-2.7531,-3.0,-3.081,-3.1821,-3.3124,-3.3124,-3.3124,-3.3124,-3.3124,-3.3124,-3.3124,-3.3124,-3.3124,-3.3124,-3.3124,-3.3124,-3.3124,-3.3124,-3.3124,-3.3124,-3.3124,-3.3124,-3.3124,-3.3124,-3.3124,-3.3124,-3.3124,-3.3124,-3.3124,-3.3124,-3.3124,-3.3162,-3.3307,-3.3621,-3.3985,-3.4349,-3.5127,-3.5906,-3.6317,-3.6405,-3.6405,-3.6405,-3.6405,-3.6405,-3.6405,-3.6405,-3.6405,-3.6405,-3.6405,-3.6405,-3.6405,-3.6405,-3.6405,-3.6405,-3.6405,-3.6216,-3.5775,-3.4921,-3.4227,-3.3723,-3.4129,-3.4385,-3.4385,-3.5667,-3.6405,-3.6405,-3.6405,-3.6405,-3.6405,-3.6405,-3.6405,-3.6405,-3.6405,-3.6405,-3.6405,-3.6405,-3.6405,0.0,0.0,0.0,-3.3124,-3.3124,-3.2797,-3.1545,-3.1267,-3.0586,-2.8179,-2.7683,-2.7268,-2.5965,-2.5732,-2.5693,-2.5693,-2.5693,-2.5693,-2.5693,-2.5693,-2.5693,-2.5693,-2.5693,-2.5693,-2.5693,-2.5693,-2.5693,-2.5693,-2.5693,-2.5693,-2.5693,-2.5693,-2.6294,-2.7542,-2.7636,-2.8773,-3.1178,-3.1223,-3.1877,-3.3124,-3.3124,-3.3124,-3.3124,-3.3124,-3.3124,-3.3124,-3.3124,-3.3124,-3.3124,-3.3124,-3.3124,-3.3124,-3.3124,-3.3124,-3.3124,-3.3124,-3.3124,-3.3124,-3.3124,-3.3124,-3.3124,-3.3124,-3.3124,-3.3124,-3.3136,-3.3106,-3.3262,-3.3771,-3.3935,-3.4198,-3.5245,-3.5968,-3.6405,-3.6405,-3.6405,-3.6405,-3.6405,-3.6405,-3.6405,-3.6405,-3.6405,-3.6405,-3.6405,-3.6405,-3.6405,-3.6405,-3.6405,-3.6405,-3.6405,-3.6405,-3.5906,-3.4581,-3.4385,-3.3822,-3.2482,-3.3563,-3.4337,-3.4385,-3.5667,-3.6405,-3.6405,-3.6405,-3.6405,-3.6405,-3.6405,-3.6405,-3.6405,-3.6405,-3.6405,-3.6405,-3.6405,-3.6405,-3.4787,0.0,0.0,0.0,0.0,0.0,-3.2655,-3.2568,-3.2108,-3.0541,-2.9498,-2.8541,-2.7305,-2.6342,-2.5693,-2.5693,-2.5693,-2.5693,-2.5693,-2.5693,-2.5693,-2.5693,-2.5693,-2.5693,-2.5693,-2.5693,-2.5693,-2.5693,-2.5693,-2.5693,-2.5693,-2.5693,-2.6294,-2.7542,-2.8459,-2.9636,-3.1166,-3.2096,-3.2754,-3.3124,-3.3124,-3.3124,-3.3124,-3.3124,-3.3124,-3.3124,-3.3124,-3.3124,-3.3124,-3.3124,-3.3124,-3.3124,-3.3124,-3.3124,-3.3124,-3.3124,-3.3124,-3.3124,-3.3124,-3.3124,-3.3124,-3.3124,-3.3124,-3.3156,-3.3558,-3.3671,-3.3784,-3.4336,-3.4776,-3.5253,-3.5956,-3.6292,-3.6405,-3.6405,-3.6405,-3.6405,-3.6405,-3.6405,-3.6405,-3.6405,-3.6405,-3.6405,-3.6405,-3.6405,-3.6405,-3.6405,-3.6405,-3.6405,-3.6405,-3.6405,-3.6263,-3.587,-3.4056,-3.3155,-3.3773,-3.3254,-3.3304,-3.4337,-3.5667,-3.6405,-3.6405,-3.6405,-3.6405,-3.6405,-3.6405,-3.6405,-3.6405,-3.6405,-3.6405,-3.6405,-3.6405,-3.6405,0.0,0.0,0.0,-3.3124,0.0,0.0,-3.3124,-3.3124,-3.2754,-3.1456,-3.0631,-2.9636,-2.7908,-2.6993,-2.6342,-2.5781,-2.5693,-2.5693,-2.5693,-2.5693,-2.5693,-2.5693,-2.5693,-2.5693,-2.5693,-2.5693,-2.5693,-2.5693,-2.5693,-2.5693,-2.5693,-2.6197,-2.7078,-2.8319,-2.9544,-3.0721,-3.1965,-3.2742,-3.3124,-3.3124,-3.3124,-3.3124,-3.3124,-3.3124,-3.3124,-3.3124,-3.3124,-3.3124,-3.3124,-3.3124,-3.3124,-3.3124,-3.3124,-3.3124,-3.3124,-3.3124,-3.3124,-3.3124,-3.3124,-3.3124,-3.3124,-3.3124,-3.3232,-3.3483,-3.3809,-3.406,-3.4361,-3.4868,-3.5466,-3.5968,-3.6329,-3.6405,-3.6405,-3.6405,-3.6405,-3.6405,-3.6405,-3.6405,-3.6405,-3.6405,-3.6405,-3.6405,-3.6405,-3.6405,-3.6405,-3.6405,-3.6405,-3.6405,-3.6405,-3.6405,-3.6216,-3.5619,-3.4105,-3.3254,-3.3514,-3.3304,-3.3514,-3.4337,-3.5667,-3.6405,-3.6405,-3.6405,-3.6405,-3.6405,-3.6405,-3.6405,-3.6405,-3.6405,-3.6405,-3.6405,-3.6405,-3.6405,0.0,0.0,0.0,-3.3124,-3.3124,0.0,-3.3124,-3.3124,-3.2797,-3.1633,-3.1311,-3.0541,-2.8412,-2.7908,-2.7447,-2.6294,-2.61,-2.6014,-2.5732,-2.5693,-2.5693,-2.5693,-2.5693,-2.5693,-2.5693,-2.5693,-2.5693,-2.5693,-2.5693,-2.5781,-2.5917,-2.6982,-2.8226,-2.9544,-3.0631,-3.1821,-3.3081,-3.3124,-3.3124,-3.3124,-3.3124,-3.3124,-3.3124,-3.3124,-3.3124,-3.3124,-3.3124,-3.3124,-3.3124,-3.3124,-3.3124,-3.3124,-3.3124,-3.3124,-3.3124,-3.3124,-3.3124,-3.3124,-3.3124,-3.3124,-3.3124,-3.3156,-3.3495,-3.3922,-3.4048,-3.4424,-3.4881,-3.5433,-3.5994,-3.6405,-3.6405,-3.6405,-3.6405,-3.6405,-3.6405,-3.6405,-3.6405,-3.6405,-3.6405,-3.6405,-3.6405,-3.6405,-3.6405,-3.6405,-3.6405,-3.6405,-3.6405,-3.6405,-3.6405,-3.6405,-3.5966,-3.4727,-3.4483,-3.397,-3.2844,-3.3773,-3.4483,-3.4629,-3.5763,-3.6405,-3.6405,-3.6405,-3.6405,-3.6405,-3.6405,-3.6405,-3.6405,-3.6405,-3.6405,-3.6405,-3.6405,-3.6405,-3.3398,-3.3283,-3.3124,-3.3124,-3.3124,0.0,-3.3124,-3.3124,-3.3025,-3.2797,-3.1909,-3.1033,-3.0586,-2.9727,-2.8947,-2.8716,-2.868,-2.7992,-2.5965,-2.5693,-2.5693,-2.5693,-2.5693,-2.5693,-2.5693,-2.5693,-2.5693,-2.5693,-2.5693,-2.6149,-2.7173,-2.7447,-2.8588,-3.0765,-3.1089,-3.1821,-3.3081,-3.3124,-3.3124,-3.3124,-3.3124,-3.3124,-3.3124,-3.3124,-3.3124,-3.3124,-3.3124,-3.3124,-3.3124,-3.3124,-3.3124,-3.3124,-3.3124,-3.3124,-3.3124,-3.3124,-3.3124,-3.3124,-3.3124,-3.3124,-3.3156,-3.3596,-3.3809,-3.406,-3.4906,-3.5257,-3.5458,-3.6044,-3.6329,-3.6405,-3.6405,-3.6405,-3.6405,-3.6405,-3.6405,-3.6405,-3.6405,-3.6405,-3.6405,-3.6405,-3.6405,-3.6405,-3.6405,-3.6405,-3.6405,-3.6405,-3.6405,-3.6405,-3.6405,-3.6405,-3.631,-3.6061,-3.503,-3.4727,-3.5547,-3.4872,-3.4872,-3.5966,-3.6263,-3.6405,-3.6405,-3.6405,-3.6405,-3.6405,-3.6405,-3.6405,-3.6405,-3.6405,-3.6405,-3.6405,-3.6405,-3.6405,-3.3124,-3.3124,-3.3124,-3.3124,-3.3124,0.0,0.0,-3.3124,-3.3124,-3.3124,-3.2612,-3.1952,-3.1311,-3.0721,-3.0079,-2.9498,-2.9407,-2.8947,-2.7709,-2.7531,-2.7531,-2.7531,-2.703,-2.6668,-2.6668,-2.6668,-2.6887,-2.7484,-2.7531,-2.7804,-2.8448,-2.9085,-2.9943,-3.1178,-3.1821,-3.2469,-3.3068,-3.3124,-3.3124,-3.3124,-3.3124,-3.3124,-3.3124,-3.3124,-3.3124,-3.3124,-3.3124,-3.3124,-3.3124,-3.3124,-3.3124,-3.3124,-3.3124,-3.3124,-3.3124,-3.3124,-3.3124,-3.3124,-3.3124,-3.3257,-3.3533,-3.3809,-3.4274,-3.4781,-3.5332,-3.5683,-3.6006,-3.6329,-3.6405,-3.6405,-3.6405,-3.6405,-3.6405,-3.6405,-3.6405,-3.6405,-3.6405,-3.6405,-3.6405,-3.6405,-3.6405,-3.6405,-3.6405,-3.6405,-3.6405,-3.6405,-3.6405,-3.6405,-3.6405,-3.6405,-3.6405,-3.6405,-3.581,-3.5667,-3.6358,-3.5763,-3.5667,-3.6358,-3.6405,-3.6405,-3.6405,-3.6405,-3.6405,-3.6405,-3.6405,-3.6405,-3.6405,-3.6405,-3.6405,-3.6405,-3.6405,-3.6405,-3.3124,-3.3124,-3.3124,-3.3124,-3.3124,-3.3124,0.0,0.0,0.0,-3.3124,-3.3124,-3.2797,-3.1777,-3.1589,-3.1199,-3.0133,-3.0033,-3.0056,-2.9953,-3.0033,-2.9954,-2.9453,-2.8541,-2.7955,-2.7955,-2.7955,-2.8366,-2.9315,-2.9407,-2.9498,-2.9727,-3.0676,-3.1311,-3.1545,-3.2568,-3.3124,-3.3124,-3.3124,-3.3124,-3.3124,-3.3124,-3.3124,-3.3124,-3.3124,-3.3124,-3.3124,-3.3124,-3.3124,-3.3124,-3.3124,-3.3124,-3.3124,-3.3124,-3.3124,-3.3124,-3.3124,-3.3124,-3.3093,-3.3206,-3.3533,-3.3935,-3.4148,-3.4889,-3.5658,-3.5658,-3.6006,-3.6405,-3.6405,-3.6405,-3.6405,-3.6405,-3.6405,-3.6405,-3.6405,-3.6405,-3.6405,-3.6405,-3.6405,-3.6405,-3.6405,-3.6405,-3.6405,-3.6405,-3.6405,-3.6405,-3.6405,-3.6405,-3.6405,-3.6405,-3.6405,-3.6405,-3.6405,-3.6405,-3.6405,-3.6405,-3.6405,-3.6405,-3.6405,-3.6405,-3.6405,-3.6405,-3.6405,-3.6405,-3.6405,-3.6405,-3.6405,-3.6405,-3.6405,-3.6405,-3.6405,-3.6405,-3.6405,-3.3124,-3.3124,-3.3124,-3.3124,-3.3124,-3.3124,-3.3124,0.0,-3.3124,-3.3124,0.0,-3.3081,-3.2896,0.0,0.0,-3.1985,-3.2332,-3.2481,-3.1973,-3.2345,-3.1877,-2.9681,-2.9269,-2.9177,-2.9177,-2.9177,-2.9269,-2.9407,-2.9407,-2.9863,-3.0944,-3.1134,-3.1733,-3.284,-3.3025,-3.3124,-3.3124,-3.3124,-3.3124,-3.3124,-3.3124,-3.3124,-3.3124,-3.3124,-3.3124,-3.3124,-3.3124,-3.3124,-3.3124,-3.3124,-3.3124,-3.3124,-3.3124,-3.3124,-3.3124,-3.3124,-3.3124,-3.3187,-3.3633,-3.3847,-3.406,-3.4994,-3.5768,-3.6317,-3.6317,-3.6367,-3.6405,-3.6405,-3.6405,-3.6405,-3.6405,-3.6405,-3.6405,-3.6405,-3.6405,-3.6405,-3.6405,-3.6405,-3.6405,-3.6405,-3.6405,-3.6405,-3.6405,-3.6405,-3.6405,-3.6405,-3.6405,-3.6405,-3.6405,-3.6405,-3.6405,-3.6405,-3.6405,-3.6405,-3.6405,-3.6405,-3.6405,-3.6405,-3.6405,-3.6405,-3.6405,-3.6405,-3.6405,-3.6405,-3.6405,-3.6405,-3.6405,-3.6405,-3.6405,-3.6405,-3.6405,-3.6405,-3.3124,-3.3124,-3.3124,-3.3124,-3.3124,-3.3124,-3.3124,-3.3124,-3.3124,-3.3124,0.0,0.0,0.0,0.0,0.0,0.0,-3.2918,-3.2993,-3.2754,-3.2918,-3.2711,-3.1645,-3.0911,-3.0451,-3.0451,-3.0451,-3.0732,-3.1512,-3.1557,-3.1789,-3.2295,-3.2283,-3.2568,-3.3068,-3.3124,-3.3124,-3.3124,-3.3124,-3.3124,-3.3124,-3.3124,-3.3124,-3.3124,-3.3124,-3.3124,-3.3124,-3.3124,-3.3124,-3.3124,-3.3124,-3.3124,-3.3124,-3.3124,-3.3124,-3.3124,-3.3124,-3.3282,-3.3583,-3.3822,-3.4324,-3.4931,-3.5768,-3.6169,-3.6405,-3.6405,-3.6405,-3.6405,-3.6405,-3.6405,-3.6405,-3.6405,-3.6405,-3.6405,-3.6405,-3.6405,-3.6405,-3.6405,-3.6405,-3.6405,-3.6405,-3.6405,-3.6405,-3.6405,-3.6405,-3.6405,-3.6405,-3.6405,-3.6405,-3.6405,-3.6405,-3.6405,-3.6405,-3.6405,-3.6405,-3.6405,-3.6405,-3.6405,-3.6405,-3.6405,-3.6405,-3.6405,-3.6405,-3.6405,-3.6405,-3.6405,-3.6405,-3.6405,-3.6405,-3.6405,-3.6405,-3.6405,-3.6405,-3.3124,-3.3124,-3.3124,-3.3124,-3.3124,-3.3124,-3.3124,-3.3124,-3.3124,-3.3124,-3.3124,0.0,0.0,0.0,-3.3074,-3.2867,0.0,-3.3018,-3.2867,-3.3023,-3.3124,-3.3124,-3.2283,-3.1721,-3.1721,-3.1721,-3.2096,-3.3025,-3.3124,-3.3124,-3.3124,-3.3124,-3.3124,-3.3124,-3.3124,-3.3124,-3.3124,-3.3124,-3.3124,-3.3124,-3.3124,-3.3124,-3.3124,-3.3124,-3.3124,-3.3124,-3.3124,-3.3124,-3.3124,-3.3124,-3.3124,-3.3124,-3.3124,-3.3124,-3.3124,-3.3124,-3.342,-3.3922,-3.4073,-3.4851,-3.583,-3.6279,-3.6405,-3.6405,-3.6405,-3.6405,-3.6405,-3.6405,-3.6405,-3.6405,-3.6405,-3.6405,-3.6405,-3.6405,-3.6405,-3.6405,-3.6405,-3.6405,-3.6405,-3.6405,-3.6405,-3.6405,-3.6405,-3.6405,-3.6405,-3.6405,-3.6405,-3.6405,-3.6405,-3.6405,-3.6405,-3.6405,-3.6405,-3.6405,-3.6405,-3.6405,-3.6405,-3.6405,-3.6405,-3.6405,-3.6405,-3.6405,-3.6405,-3.6405,-3.6405,-3.6405,-3.6405,-3.6405,-3.6405,-3.6405,-3.6405,-3.6405,-3.3124,-3.3124,-3.3124,-3.3124,-3.3124,-3.3124,-3.3124,-3.3124,-3.3124,-3.3124,-3.3124,-3.3124,-3.3124,-3.3124,0.0,0.0,0.0,0.0,0.0,-3.2717,-3.3124,-3.3124,-3.3068,-3.3025,-3.3025,-3.3025,-3.3081,-3.3124,-3.3124,-3.3124,-3.3124,-3.3124,-3.3124,-3.3124,-3.3124,-3.3124,-3.3124,-3.3124,-3.3124,-3.3124,-3.3124,-3.3124,-3.3124,-3.3124,-3.3124,-3.3124,-3.3124,-3.3124,-3.3124,-3.3124,-3.3124,-3.3124,-3.3124,-3.3124,-3.3124,-3.3124,-3.342,-3.3972,-3.4512,-3.5416,-3.638,-3.6405,-3.6405,-3.6405,-3.6405,-3.6405,-3.6405,-3.6405,-3.6405,-3.6405,-3.6405,-3.6405,-3.6405,-3.6405,-3.6405,-3.6405,-3.6405,-3.6405,-3.6405,-3.6405,-3.6405,-3.6405,-3.6405,-3.6405,-3.6405,-3.6405,-3.6405,-3.6405,-3.6405,-3.6405,-3.6405,-3.6405,-3.6405,-3.6405,-3.6405,-3.6405,-3.6405,-3.6405,-3.6405,-3.6405,-3.6405,-3.6405,-3.6405,-3.6405,-3.6405,-3.6405,-3.6405,-3.6405,-3.6405,-3.6405,-3.6405,-3.6405,-3.3124,-3.3124,-3.3124,-3.3124,-3.3124,-3.3124,-3.3124,-3.3124,-3.3124,-3.3124,-3.3124,-3.3124,-3.3124,-3.3124,0.0,0.0,0.0,0.0,0.0,-3.46,-3.5143,-3.5143,-3.394,-3.3124,-3.3124,-3.3124,-3.3124,-3.3124,-3.3124,-3.3124,-3.3124,-3.3124,-3.3124,-3.3124,-3.3124,-3.3124,-3.3124,-3.3124,-3.3124,-3.3124,-3.3124,-3.3124,-3.3124,-3.3124,-3.3124,-3.3124,-3.3124,-3.3124,-3.3124,-3.3124,-3.3124,-3.3124,-3.3124,-3.3307,-3.3621,-3.3621,-3.3972,-3.4575,-3.5491,-3.6103,-3.6405,-3.6405,-3.6405,-3.6405,-3.6405,-3.6405,-3.6405,-3.6405,-3.6405,-3.6405,-3.6405,-3.6405,-3.6405,-3.6405,-3.6405,-3.6405,-3.6405,-3.6405,-3.6405,-3.6405,-3.6405,-3.6405,-3.6405,-3.6405,-3.6405,-3.6405,-3.6405,-3.6405,-3.6405,-3.6405,-3.6405,-3.6405,-3.6732,-3.6958,-3.6958,-3.7236,-3.745,-3.745,-3.745,-3.745,-3.745,-3.745,-3.745,-3.745,-3.745,-3.745,-3.745,-3.745,-3.745,-3.745,-3.745,-3.7061,-3.3124,-3.3124,-3.3124,-3.3124,-3.3124,-3.3124,-3.3124,-3.3124,-3.3124,-3.3124,-3.3124,-3.3124,-3.3124,-3.3124,0.0,0.0,0.0,0.0,0.0,-3.5774,-3.6198,-3.6198,-3.4692,-3.367,-3.367,-3.3313,-3.3124,-3.3124,-3.3124,-3.3124,-3.3124,-3.3124,-3.3124,-3.3124,-3.3124,-3.3124,-3.3124,-3.3124,-3.3124,-3.3124,-3.3124,-3.3124,-3.3124,-3.3124,-3.3124,-3.3124,-3.3124,-3.3124,-3.3124,-3.3124,-3.3124,-3.3136,-3.3294,-3.3583,-3.3897,-3.3897,-3.4374,-3.514,-3.6044,-3.6405,-3.6405,-3.6405,-3.6405,-3.6405,-3.6405,-3.6405,-3.6405,-3.6405,-3.6405,-3.6405,-3.6405,-3.6405,-3.6405,-3.6405,-3.6405,-3.6405,-3.6405,-3.6405,-3.6405,-3.6405,-3.6405,-3.6405,-3.6405,-3.6405,-3.6405,-3.6405,-3.6405,-3.6405,-3.6405,-3.6581,-3.6707,-3.6707,-3.7149,-3.7475,-3.7475,-3.7801,-3.8002,-3.8002,-3.8002,-3.8002,-3.8002,-3.8002,-3.8002,-3.8002,-3.8002,-3.8002,-3.8002,-3.8002,-3.8002,-3.8002,-3.8002,-3.7626]},{"header":{"parameterUnit":"m.s-1","parameterCategory":1,"la1":30.6,"la2":29.2853,"lo1":-89.7004,"lo2":-87.6739,"dy":0.0162,"dx":0.0183,"nx":112,"ny":82,"refTime":"2024-03-09T06:00:00:Z","depth":0,"parameterNumber":3,"parameterNumberName":"V-component_of_WINDS"},"data":[0.0,0.0,0.0,0.0,0.0,0.0,0.0,0.0,0.0,0.0,0.0,0.0,0.0,0.0,0.0,0.0,0.0,0.0,0.0,0.0,0.0,0.0,0.0,0.0,0.0,0.0,0.0,0.0,0.0,0.0,0.0,0.0,0.0,0.0,0.0,0.0,0.0,0.0,0.0,0.0,0.0,0.0,0.0,0.0,0.0,0.0,0.0,0.0,0.0,0.0,0.0,0.0,0.0,0.0,0.0,0.0,0.0,0.0,0.0,0.0,0.0,0.0,0.0,0.0,0.0,0.0,0.0,0.0,0.0,0.0,0.0,0.0,0.0,0.0,0.0,0.0,0.0,0.0,0.0,0.0,0.0,0.0,0.0,0.0,0.0,0.0,0.0,0.0,0.0,0.0,2.7815,2.7098,2.6842,2.676,2.676,2.5714,2.4999,2.483,0.0,0.0,0.0,0.0,0.0,0.0,0.0,0.0,0.0,0.0,0.0,0.0,0.0,0.0,0.0,0.0,0.0,0.0,0.0,0.0,0.0,0.0,0.0,0.0,0.0,0.0,0.0,0.0,0.0,0.0,0.0,0.0,0.0,0.0,0.0,0.0,0.0,0.0,0.0,0.0,0.0,0.0,0.0,0.0,0.0,0.0,0.0,0.0,0.0,0.0,0.0,0.0,0.0,0.0,0.0,0.0,0.0,0.0,0.0,0.0,0.0,0.0,0.0,0.0,0.0,0.0,0.0,0.0,0.0,0.0,0.0,0.0,0.0,0.0,0.0,0.0,0.0,0.0,0.0,0.0,0.0,0.0,0.0,0.0,0.0,0.0,0.0,0.0,0.0,0.0,0.0,0.0,0.0,0.0,0.0,0.0,0.0,0.0,0.0,0.0,0.0,0.0,0.0,0.0,2.8398,2.9209,2.8438,2.7844,2.7844,2.6871,2.5839,2.4872,0.0,0.0,0.0,0.0,0.0,0.0,0.0,0.0,0.0,0.0,0.0,0.0,0.0,0.0,0.0,0.0,0.0,0.0,0.0,0.0,0.0,0.0,0.0,0.0,0.0,0.0,0.0,0.0,0.0,0.0,0.0,0.0,0.0,0.0,0.0,0.0,0.0,0.0,0.0,0.0,0.0,0.0,0.0,0.0,0.0,0.0,0.0,0.0,0.0,0.0,0.0,0.0,0.0,0.0,0.0,0.0,0.0,0.0,0.0,0.0,0.0,0.0,0.0,0.0,0.0,0.0,0.0,0.0,0.0,0.0,0.0,0.0,0.0,0.0,0.0,0.0,0.0,0.0,0.0,0.0,0.0,0.0,0.0,0.0,0.0,0.0,0.0,0.0,0.0,0.0,0.0,0.0,0.0,0.0,0.0,0.0,0.0,0.0,0.0,0.0,0.0,0.0,0.0,2.87,2.9236,2.9753,2.9326,2.9028,2.9028,2.7988,2.6912,2.5797,2.467,0.0,0.0,0.0,0.0,0.0,0.0,0.0,0.0,0.0,0.0,0.0,0.0,0.0,0.0,0.0,0.0,0.0,0.0,0.0,0.0,0.0,0.0,0.0,0.0,0.0,0.0,0.0,0.0,0.0,0.0,0.0,0.0,0.0,0.0,0.0,0.0,0.0,0.0,0.0,0.0,0.0,0.0,0.0,0.0,0.0,0.0,0.0,0.0,0.0,0.0,0.0,0.0,0.0,0.0,0.0,0.0,0.0,0.0,0.0,0.0,0.0,0.0,0.0,0.0,0.0,0.0,0.0,0.0,0.0,0.0,0.0,0.0,0.0,0.0,0.0,0.0,0.0,0.0,0.0,0.0,0.0,0.0,0.0,0.0,0.0,0.0,0.0,0.0,0.0,0.0,0.0,0.0,0.0,0.0,0.0,0.0,0.0,0.0,0.0,0.0,0.0,0.0,2.9792,2.9792,2.9792,2.9792,2.9792,2.9792,2.8988,2.7947,2.6595,2.5672,0.0,0.0,0.0,0.0,0.0,0.0,0.0,0.0,0.0,0.0,0.0,0.0,0.0,0.0,0.0,0.0,0.0,0.0,0.0,0.0,0.0,0.0,0.0,0.0,0.0,0.0,0.0,0.0,0.0,0.0,0.0,0.0,0.0,0.0,0.0,0.0,0.0,0.0,0.0,0.0,0.0,0.0,0.0,0.0,0.0,0.0,0.0,0.0,0.0,0.0,0.0,0.0,0.0,0.0,0.0,0.0,0.0,0.0,0.0,0.0,0.0,0.0,0.0,0.0,0.0,0.0,0.0,0.0,0.0,0.0,0.0,0.0,0.0,0.0,0.0,0.0,0.0,0.0,0.0,0.0,0.0,0.0,0.0,0.0,0.0,0.0,0.0,0.0,0.0,0.0,0.0,0.0,0.0,0.0,0.0,0.0,0.0,0.0,0.0,0.0,0.0,0.0,2.9792,2.9792,2.9792,2.9792,2.9792,2.9792,2.9714,2.8752,2.6648,2.6431,0.0,0.0,0.0,0.0,0.0,0.0,0.0,0.0,0.0,0.0,0.0,0.0,0.0,0.0,0.0,0.0,0.0,0.0,0.0,0.0,0.0,0.0,0.0,0.0,0.0,0.0,0.0,0.0,0.0,0.0,0.0,0.0,0.0,0.0,0.0,0.0,0.0,0.0,0.0,0.0,0.0,0.0,0.0,0.0,0.0,0.0,0.0,0.0,0.0,0.0,0.0,0.0,0.0,0.0,0.0,0.0,0.0,0.0,0.0,0.0,0.0,0.0,0.0,0.0,0.0,0.0,0.0,0.0,0.0,0.0,0.0,0.0,0.0,0.0,0.0,0.0,0.0,0.0,0.0,0.0,0.0,0.0,0.0,0.0,0.0,0.0,0.0,0.0,0.0,0.0,0.0,0.0,0.0,0.0,0.0,0.0,0.0,0.0,0.0,0.0,0.0,0.0,2.9792,2.9792,2.9792,2.9792,2.9792,2.9792,2.9792,2.8882,2.6648,0.0,0.0,0.0,0.0,0.0,0.0,0.0,0.0,0.0,0.0,0.0,0.0,0.0,0.0,0.0,0.0,0.0,0.0,0.0,0.0,0.0,0.0,0.0,0.0,0.0,0.0,0.0,0.0,0.0,0.0,0.0,0.0,0.0,0.0,0.0,0.0,0.0,0.0,0.0,0.0,0.0,0.0,0.0,0.0,0.0,0.0,0.0,0.0,0.0,0.0,0.0,0.0,0.0,0.0,0.0,0.0,0.0,0.0,0.0,0.0,0.0,0.0,0.0,0.0,0.0,0.0,0.0,0.0,0.0,0.0,0.0,0.0,0.0,0.0,0.0,0.0,0.0,0.0,0.0,0.0,0.0,0.0,0.0,0.0,0.0,0.0,0.0,0.0,0.0,0.0,0.0,0.0,0.0,0.0,0.0,0.0,0.0,0.0,0.0,0.0,0.0,0.0,2.9792,2.9792,2.9792,2.9792,2.9792,2.9792,2.9792,2.9792,2.9,2.7128,0.0,0.0,0.0,0.0,0.0,0.0,0.0,0.0,0.0,0.0,0.0,0.0,0.0,0.0,0.0,0.0,0.0,0.0,0.0,0.0,0.0,0.0,0.0,0.0,0.0,0.0,0.0,0.0,0.0,0.0,0.0,0.0,0.0,0.0,0.0,0.0,0.0,0.0,0.0,0.0,0.0,0.0,0.0,0.0,0.0,0.0,0.0,0.0,0.0,0.0,0.0,0.0,0.0,0.0,0.0,0.0,0.0,0.0,0.0,0.0,0.0,0.0,0.0,0.0,0.0,0.0,0.0,0.0,0.0,0.0,0.0,0.0,0.0,0.0,0.0,0.0,0.0,0.0,0.0,0.0,0.0,0.0,0.0,0.0,0.0,0.0,0.0,0.0,0.0,0.0,0.0,0.0,0.0,0.0,0.0,0.0,0.0,0.0,0.0,0.0,0.0,0.0,2.9792,2.9792,2.9792,2.9792,2.9792,2.9792,2.9792,2.9792,2.9314,0.0,0.0,0.0,0.0,0.0,0.0,0.0,0.0,0.0,0.0,0.0,0.0,0.0,0.0,0.0,0.0,0.0,0.0,0.0,0.0,0.0,0.0,0.0,0.0,0.0,0.0,0.0,0.0,0.0,0.0,0.0,0.0,0.0,0.0,0.0,0.0,0.0,0.0,0.0,0.0,0.0,0.0,0.0,0.0,0.0,0.0,0.0,0.0,0.0,0.0,0.0,0.0,0.0,0.0,0.0,0.0,0.0,0.0,0.0,0.0,0.0,0.0,0.0,0.0,0.0,0.0,0.0,0.0,0.0,0.0,0.0,0.0,0.0,0.0,0.0,0.0,0.0,0.0,0.0,0.0,0.0,0.0,0.0,0.0,0.0,0.0,0.0,0.0,0.0,0.0,0.0,0.0,0.0,0.0,0.0,0.0,0.0,0.0,0.0,0.0,0.0,0.0,0.0,2.9792,2.9792,2.9792,2.9792,2.9792,2.9792,2.9792,2.9792,2.9314,2.8176,0.0,0.0,0.0,0.0,0.0,0.0,0.0,0.0,0.0,0.0,0.0,0.0,0.0,0.0,0.0,0.0,0.0,0.0,0.0,0.0,0.0,0.0,0.0,0.0,0.0,0.0,0.0,0.0,0.0,0.0,0.0,0.0,0.0,0.0,0.0,0.0,0.0,0.0,0.0,0.0,0.0,0.0,0.0,0.0,0.0,0.0,0.0,0.0,0.0,0.0,0.0,0.0,0.0,0.0,0.0,0.0,0.0,0.0,0.0,0.0,0.0,0.0,0.0,0.0,0.0,0.0,0.0,0.0,0.0,0.0,0.0,0.0,0.0,0.0,0.0,0.0,0.0,0.0,0.0,0.0,0.0,0.0,0.0,0.0,0.0,0.0,0.0,0.0,0.0,0.0,0.0,0.0,0.0,0.0,0.0,0.0,0.0,0.0,0.0,0.0,0.0,0.0,2.9792,2.9792,2.9792,2.9792,2.9792,2.9792,2.9792,2.9792,2.9495,2.8806,0.0,0.0,0.0,0.0,0.0,0.0,0.0,0.0,0.0,0.0,0.0,0.0,0.0,0.0,0.0,0.0,0.0,0.0,0.0,0.0,0.0,0.0,0.0,0.0,0.0,0.0,0.0,0.0,0.0,0.0,0.0,0.0,0.0,0.0,0.0,0.0,0.0,0.0,0.0,0.0,0.0,0.0,0.0,0.0,0.0,0.0,0.0,0.0,0.0,0.0,0.0,0.0,0.0,0.0,0.0,0.0,0.0,0.0,0.0,0.0,0.0,0.0,0.0,0.0,0.0,0.0,0.0,0.0,0.0,0.0,0.0,0.0,0.0,0.0,0.0,0.0,0.0,0.0,0.0,0.0,0.0,0.0,0.0,0.0,0.0,0.0,0.0,0.0,0.0,0.0,0.0,0.0,0.0,0.0,0.0,0.0,0.0,0.0,0.0,0.0,0.0,0.0,2.9934,2.9998,3.0037,2.9934,2.9934,2.9895,2.9792,2.9792,2.9792,2.9792,0.0,0.0,0.0,0.0,0.0,0.0,0.0,0.0,0.0,0.0,0.0,0.0,0.0,0.0,0.0,0.0,0.0,0.0,0.0,0.0,0.0,0.0,0.0,0.0,0.0,0.0,0.0,0.0,0.0,0.0,0.0,0.0,0.0,0.0,0.0,0.0,0.0,0.0,0.0,0.0,0.0,0.0,0.0,0.0,0.0,0.0,0.0,0.0,0.0,0.0,0.0,0.0,0.0,0.0,0.0,0.0,0.0,0.0,0.0,0.0,3.3712,3.3858,0.0,0.0,0.0,0.0,0.0,0.0,0.0,0.0,0.0,0.0,0.0,0.0,0.0,0.0,0.0,0.0,0.0,0.0,0.0,0.0,0.0,0.0,0.0,0.0,0.0,0.0,0.0,0.0,0.0,0.0,0.0,0.0,0.0,0.0,0.0,0.0,0.0,0.0,0.0,0.0,3.0895,3.1549,3.1719,3.097,3.0895,3.0582,2.9856,2.9792,2.9792,2.9792,2.9573,0.0,0.0,0.0,0.0,0.0,0.0,0.0,0.0,0.0,0.0,0.0,0.0,0.0,0.0,0.0,0.0,0.0,0.0,0.0,0.0,0.0,0.0,0.0,0.0,0.0,0.0,0.0,0.0,0.0,0.0,0.0,0.0,0.0,0.0,0.0,0.0,0.0,0.0,0.0,0.0,0.0,0.0,0.0,0.0,0.0,0.0,0.0,0.0,0.0,0.0,0.0,0.0,0.0,0.0,0.0,0.0,0.0,0.0,0.0,3.4292,3.4176,0.0,0.0,0.0,0.0,0.0,0.0,0.0,0.0,0.0,0.0,0.0,0.0,0.0,0.0,0.0,0.0,0.0,0.0,0.0,0.0,0.0,0.0,0.0,0.0,0.0,0.0,0.0,0.0,0.0,0.0,0.0,0.0,0.0,0.0,0.0,0.0,0.0,0.0,0.0,0.0,3.1852,3.2321,3.2429,3.1924,3.1852,3.1683,3.1206,3.0733,3.0482,3.0482,3.0037,0.0,0.0,0.0,0.0,0.0,0.0,0.0,0.0,0.0,0.0,0.0,0.0,0.0,0.0,0.0,0.0,0.0,0.0,0.0,0.0,0.0,0.0,0.0,0.0,0.0,0.0,0.0,0.0,0.0,0.0,0.0,0.0,0.0,0.0,0.0,0.0,0.0,0.0,0.0,0.0,0.0,0.0,0.0,0.0,0.0,0.0,0.0,0.0,0.0,0.0,0.0,0.0,0.0,3.4492,3.451,3.451,3.451,3.4986,3.5782,3.4877,3.4525,3.4519,3.3563,0.0,0.0,0.0,0.0,0.0,0.0,0.0,0.0,0.0,0.0,0.0,0.0,0.0,0.0,0.0,0.0,0.0,0.0,0.0,0.0,0.0,0.0,3.4075,3.329,3.3719,3.4041,3.3276,0.0,0.0,0.0,0.0,0.0,0.0,0.0,0.0,0.0,0.0,0.0,3.2855,3.2996,3.3031,3.2855,3.2855,3.2784,3.2593,3.1888,3.1426,3.1426,3.0709,3.0292,0.0,0.0,0.0,0.0,0.0,0.0,0.0,0.0,0.0,0.0,0.0,0.0,0.0,0.0,0.0,0.0,0.0,0.0,0.0,0.0,0.0,0.0,0.0,0.0,0.0,0.0,0.0,0.0,0.0,0.0,0.0,0.0,3.6198,3.6198,0.0,0.0,0.0,0.0,0.0,0.0,0.0,0.0,0.0,0.0,0.0,0.0,0.0,3.4293,3.4293,3.4629,3.4804,3.4839,3.5166,3.5333,3.5333,3.5333,3.5414,3.5547,3.54,0.0,3.5647,3.4911,0.0,0.0,0.0,0.0,0.0,0.0,0.0,0.0,0.0,0.0,0.0,0.0,0.0,0.0,0.0,0.0,0.0,0.0,0.0,0.0,0.0,0.0,3.5279,3.5148,3.5213,3.5279,3.5133,3.3788,3.2593,3.2593,3.2593,3.2593,0.0,0.0,0.0,0.0,0.0,0.0,3.3808,3.4591,3.4773,3.3925,3.3808,3.3484,3.2664,3.25,3.2429,3.2429,3.2285,3.2213,3.2213,3.2213,0.0,0.0,0.0,0.0,0.0,0.0,0.0,0.0,0.0,0.0,0.0,0.0,0.0,0.0,0.0,0.0,0.0,0.0,0.0,0.0,0.0,0.0,0.0,0.0,0.0,0.0,0.0,0.0,0.0,3.7684,3.7453,3.7453,3.6602,3.593,0.0,0.0,0.0,0.0,0.0,0.0,0.0,0.0,0.0,3.5544,3.5544,3.5703,3.6035,3.6213,3.6305,3.629,3.6484,3.6387,3.6058,3.6058,3.5863,3.5504,3.5504,3.5573,3.561,3.4761,3.429,3.4072,0.0,0.0,0.0,0.0,3.3335,3.3367,3.3641,3.3755,3.3783,3.4128,0.0,0.0,0.0,0.0,0.0,0.0,0.0,3.4839,3.4839,3.5166,3.5504,3.5504,3.5504,3.5504,3.5504,3.482,3.424,3.424,3.424,3.424,3.424,3.424,0.0,0.0,0.0,3.4839,3.4839,3.5246,3.5326,3.4872,3.4839,3.4691,3.4259,3.3719,3.338,3.338,3.289,3.2593,3.2593,3.2593,3.2429,0.0,0.0,0.0,0.0,0.0,0.0,0.0,0.0,0.0,0.0,0.0,0.0,0.0,0.0,0.0,0.0,0.0,0.0,0.0,0.0,0.0,0.0,0.0,0.0,0.0,0.0,0.0,0.0,3.8571,3.8138,3.8138,3.7046,3.622,0.0,0.0,0.0,0.0,0.0,0.0,3.5864,3.6079,3.6481,3.7053,3.7268,3.7613,3.8053,3.8086,3.8086,3.8086,3.8086,3.7842,3.7384,3.7384,3.7109,3.6636,3.6468,3.6248,3.5991,3.4835,3.4394,3.4312,3.3602,3.3359,3.3359,3.3359,3.3359,3.3429,3.4143,3.4394,3.4509,3.5246,3.5504,3.5359,3.461,0.0,0.0,0.0,0.0,3.6085,3.6085,3.6085,3.6085,3.6085,3.6085,3.6085,3.6085,3.6085,3.5973,3.5602,3.5504,3.5504,3.5504,3.5504,0.0,3.5504,3.5504,3.5504,3.5504,3.5504,3.5504,3.5504,3.5504,3.5504,3.5504,3.4806,3.4394,3.4394,3.3719,3.3359,3.3359,3.3359,3.322,3.2961,0.0,0.0,0.0,0.0,0.0,0.0,0.0,0.0,0.0,0.0,0.0,0.0,0.0,0.0,0.0,0.0,0.0,0.0,0.0,0.0,0.0,0.0,0.0,0.0,0.0,0.0,0.0,0.0,0.0,3.7464,3.7385,0.0,0.0,0.0,0.0,3.7493,3.8112,3.85,3.8501,3.9282,3.9375,3.8598,3.9391,3.9852,3.9854,3.9854,3.9854,3.9854,3.9854,3.9868,3.9806,3.9806,3.982,3.974,3.904,3.8318,3.7482,3.6039,3.5424,3.5439,3.5359,3.5359,3.5359,3.5359,3.5359,3.5359,3.5407,3.5424,3.5424,3.5472,3.5504,3.5504,3.5439,3.5928,0.0,0.0,3.71,3.7677,3.7677,3.7677,3.7677,3.7677,3.7677,3.7677,3.7677,3.7677,3.7235,3.5797,3.5504,3.5504,3.5504,0.0,3.5504,3.5504,3.5504,3.5504,3.5504,3.5504,3.5504,3.5504,3.5504,3.5504,3.5504,3.5457,3.5424,3.5424,3.5392,3.5359,3.5359,3.5359,3.4905,3.3959,3.391,0.0,0.0,0.0,0.0,0.0,0.0,0.0,0.0,0.0,0.0,0.0,0.0,0.0,0.0,0.0,0.0,0.0,0.0,0.0,0.0,0.0,0.0,0.0,0.0,0.0,0.0,0.0,0.0,3.8935,3.8623,0.0,3.8733,3.8968,3.9109,3.9167,3.9389,3.9532,3.9532,3.9823,4.0047,4.0182,4.0464,4.0828,4.1292,4.1292,4.1292,4.1292,4.1292,4.1052,4.065,4.065,4.0394,3.9989,3.9718,3.9441,3.9103,3.8103,3.6815,3.5569,3.6023,3.5926,3.5504,3.5504,3.5504,3.5504,3.5504,3.5504,3.5587,3.6054,3.6554,3.6981,3.6981,3.7175,3.7368,3.7368,3.7573,3.7793,3.7793,3.7793,3.7793,3.7793,3.7793,3.7793,3.7793,3.7793,3.7648,3.7101,3.6981,3.6829,3.629,3.6196,3.6054,3.5554,3.5504,3.5504,3.5504,3.5504,3.5504,3.5504,3.5504,3.5504,3.5504,3.5504,3.5504,3.5504,3.5504,3.5504,3.5504,3.5504,3.5326,3.4986,3.4953,3.4806,0.0,0.0,0.0,0.0,0.0,0.0,0.0,0.0,0.0,0.0,0.0,0.0,0.0,0.0,0.0,0.0,0.0,0.0,0.0,0.0,0.0,0.0,0.0,0.0,0.0,3.8757,3.9022,3.95,3.9386,3.9448,3.9957,4.02,4.0466,4.0737,4.101,4.111,4.111,4.1379,4.1624,4.1777,4.2069,4.2419,4.2862,4.2862,4.2862,4.2862,4.2862,4.2647,4.222,4.222,4.1972,4.1527,4.1265,4.102,4.0748,4.0254,3.8693,3.6675,3.6892,3.6707,3.629,3.629,3.629,3.629,3.629,3.629,3.6368,3.6844,3.7368,3.7793,3.7793,3.7978,3.8177,3.8177,3.8374,3.8585,3.8585,3.8585,3.8585,3.8585,3.8585,3.8585,3.8585,3.8585,3.8585,3.8585,3.8149,3.7632,3.71,3.6994,3.6753,3.5975,3.6101,3.6164,3.5894,3.6101,3.6164,3.5894,3.5863,3.5782,3.5537,3.5504,3.5504,3.5504,3.5504,3.5504,3.5504,3.5504,3.5504,3.5504,3.5504,3.5504,3.5504,0.0,0.0,0.0,0.0,0.0,0.0,0.0,0.0,0.0,0.0,0.0,0.0,0.0,0.0,0.0,0.0,0.0,0.0,0.0,0.0,0.0,0.0,0.0,3.9047,3.8921,3.9026,3.9042,3.9666,4.0114,4.013,4.0728,4.1454,4.2307,4.2983,4.3336,4.3336,4.4138,4.4196,4.3366,4.4167,4.4615,4.4615,4.4615,4.4615,4.4615,4.4615,4.4615,4.4615,4.4615,4.4615,4.4564,4.3792,4.3015,4.2373,4.2337,4.1028,3.8948,3.8184,3.7838,3.7793,3.7793,3.7793,3.7793,3.7793,3.7822,3.7835,3.7835,3.7835,3.7863,3.7863,3.8358,3.8935,3.8935,3.9489,4.0096,4.0096,4.0096,4.0096,4.0096,4.0096,4.0096,4.0096,4.0096,4.0096,4.0096,3.8887,3.7863,3.7835,3.7835,3.7573,3.6768,3.7308,0.0,3.6737,3.7338,3.7485,3.6707,3.6615,3.6306,3.5554,3.5504,3.5504,3.5504,3.5504,3.5504,3.5504,3.5504,3.5504,3.5504,3.5504,3.5504,3.5504,0.0,0.0,0.0,0.0,0.0,0.0,0.0,0.0,0.0,0.0,0.0,0.0,0.0,0.0,0.0,0.0,0.0,0.0,0.0,0.0,0.0,4.0222,4.0203,3.9792,4.0669,4.1549,4.21,4.2333,4.2695,4.3292,4.3497,4.3717,4.395,4.4135,4.4253,4.4253,4.4485,4.4485,4.4253,4.4485,4.4615,4.4615,4.4615,4.4615,4.4615,4.4615,4.4615,4.4615,4.4615,4.4615,4.4598,4.4378,4.4165,4.3911,4.3337,4.2745,4.1977,4.0153,3.8772,3.7793,3.7793,3.7793,3.7793,3.7793,3.8149,3.8608,3.8608,3.8978,3.948,3.948,3.961,3.9782,3.9782,3.9927,4.0096,4.0096,4.0096,4.0096,4.0096,4.0096,4.0096,4.0096,4.0096,4.0096,4.0096,3.9773,3.9279,3.869,3.8608,3.833,3.7587,3.7661,3.7719,3.7515,3.7661,3.7485,3.6707,3.6615,3.6306,3.5554,3.5504,3.5504,3.5504,3.5504,3.5504,3.5504,3.5504,3.5504,3.5504,3.5504,3.5504,0.0,0.0,0.0,0.0,0.0,0.0,0.0,0.0,0.0,0.0,0.0,0.0,0.0,0.0,0.0,0.0,0.0,0.0,0.0,0.0,0.0,0.0,4.11,4.1472,4.1472,4.223,4.2929,4.3341,4.3707,4.4079,4.4564,4.4615,4.4615,4.4615,4.4615,4.4615,4.4615,4.4615,4.4615,4.4615,4.4615,4.4615,4.4615,4.4615,4.4615,4.4615,4.4615,4.4615,4.4615,4.4615,4.4615,4.4615,4.4615,4.4615,4.4564,4.4096,4.3707,4.3213,0.0,0.0,0.0,0.0,3.8778,3.8778,3.8778,3.9049,3.9394,3.9394,3.9731,4.0096,4.0096,4.0096,4.0096,4.0096,4.0096,4.0096,4.0096,4.0096,4.0096,4.0096,4.0096,4.0096,4.0096,4.0096,4.0096,4.0096,4.0096,0.0,3.9489,3.9394,3.9139,3.8374,3.8541,3.8624,3.8302,3.8569,3.8458,3.7642,3.7555,3.7247,3.6523,3.6461,0.0,0.0,0.0,3.5799,3.5504,3.5504,0.0,0.0,0.0,3.5504,3.5504,3.5504,0.0,0.0,3.5504,3.5504,0.0,0.0,0.0,0.0,0.0,0.0,0.0,0.0,0.0,0.0,0.0,0.0,0.0,0.0,0.0,0.0,4.2116,4.3426,4.3511,4.3527,4.3527,4.3527,4.4164,4.4615,4.4615,4.4615,4.4615,4.4615,4.4615,4.4615,4.4615,4.4615,0.0,0.0,0.0,4.4615,4.4615,4.4615,4.4615,4.4615,4.4615,4.4615,4.4615,4.4615,4.4615,4.4615,4.4615,4.4615,4.4615,4.4615,4.413,4.324,4.1796,4.1153,4.1001,4.035,4.0096,4.0096,4.0096,0.0,0.0,4.0096,4.0096,4.0096,4.0096,4.0096,4.0096,4.0096,4.0096,4.0096,4.0096,4.0096,4.0096,4.0096,4.0096,4.0096,4.0096,4.0096,4.0096,4.0096,4.0096,4.0096,4.0096,4.0096,3.9876,3.9139,3.9636,3.9833,3.9139,3.9662,3.9782,3.9005,3.8908,0.0,3.7863,3.7793,3.7485,3.6783,3.663,3.6275,3.5537,3.5504,3.5504,3.5504,3.5504,3.5504,3.5504,3.5504,3.5504,3.5504,3.5504,3.5504,0.0,0.0,0.0,0.0,0.0,0.0,0.0,0.0,0.0,0.0,0.0,0.0,0.0,0.0,0.0,4.2677,4.3107,4.3639,4.4265,4.4378,4.4378,4.4378,4.4513,4.4615,4.4615,4.4615,4.4615,4.4615,4.4615,4.4615,4.4615,4.4615,4.4615,4.4615,4.4615,4.4615,4.4615,4.4615,4.4615,4.4615,4.4615,0.0,4.4615,4.4615,4.4615,4.4615,4.4615,4.4615,4.4615,4.4615,4.413,4.324,4.1796,4.0832,4.0299,4.0146,4.0096,4.0096,4.0096,4.0096,4.0096,4.0096,4.0096,4.0096,4.0096,4.0096,0.0,4.0096,4.0096,4.0096,4.0096,4.0096,4.0096,4.0096,4.0096,4.0096,4.0096,4.0096,4.0096,4.0096,4.0096,4.0096,4.0096,4.0096,4.0045,3.9901,3.9995,4.0045,3.9901,3.9995,3.9782,3.9005,3.8908,3.8608,3.7863,3.7793,3.7719,3.7573,3.6964,3.6275,3.5537,3.5504,3.5504,3.5504,3.5504,3.5504,3.5504,3.5504,3.5504,3.5504,3.5504,3.5504,0.0,0.0,0.0,0.0,0.0,0.0,0.0,0.0,0.0,0.0,0.0,4.21,4.1733,0.0,4.298,4.3325,4.3741,4.413,4.4547,4.4615,4.4615,4.4615,4.4615,4.4615,4.4615,4.4615,4.4615,4.4615,4.4615,4.4615,4.4615,4.4615,4.4615,4.4615,4.4615,4.4615,4.4615,4.4615,4.4615,4.4615,4.4615,4.4615,4.4615,4.4615,4.4615,4.4615,4.4615,4.4615,4.4615,4.4615,4.413,4.3325,4.2608,4.1627,4.0595,4.0248,4.0096,4.0096,4.0096,4.0096,4.0096,4.0096,4.0096,4.0096,4.0096,4.0096,4.0096,4.0096,4.0096,4.0096,4.0096,4.0096,4.0096,4.0096,4.0096,4.0096,4.0096,4.0096,4.0096,4.0096,4.0096,4.0096,4.0096,4.0096,4.0096,4.0096,4.0096,4.0096,4.0096,4.0096,3.9952,3.9542,3.9489,3.9358,3.8968,3.8596,3.8358,3.8358,3.7616,3.7055,3.6662,3.6259,3.6054,3.6054,3.5701,3.5504,3.5504,3.5504,3.5504,3.5504,3.5894,3.5863,0.0,0.0,0.0,0.0,0.0,0.0,0.0,4.12,4.2026,4.1402,4.2406,4.3234,4.2625,4.3132,4.3639,4.3639,4.4181,4.4615,4.4615,4.4615,4.4615,4.4615,4.4615,4.4615,4.4615,4.4615,4.4615,4.4615,4.4615,4.4615,4.4615,4.4615,4.4615,4.4615,4.4615,4.4615,4.4615,4.4615,4.4615,4.4615,4.4615,4.4615,4.4615,4.4615,4.4615,4.4615,4.4615,4.4615,4.4615,4.4615,4.4215,4.3639,4.3443,4.2608,4.1322,4.0603,4.0231,4.0096,4.0096,4.0096,4.0096,4.0096,4.0096,4.0096,4.0096,4.0096,4.0096,4.0096,4.0096,4.0096,4.0096,4.0096,4.0096,4.0096,4.0096,4.0096,4.0096,4.0096,4.0096,4.0096,4.0096,4.0096,4.0096,4.0096,4.0096,4.0096,4.0096,4.0096,4.0096,4.0096,4.0096,4.0096,4.0096,4.0096,4.0096,3.9516,3.9086,3.8908,3.833,3.795,3.7822,3.7189,3.6813,3.6813,3.6243,3.5941,3.5941,3.5782,3.5782,3.5973,3.6399,3.6196,3.9589,3.9718,3.9681,3.9862,4.0389,4.0889,0.0,4.1694,4.2264,4.2179,4.2824,4.3358,4.3274,4.3927,4.4479,4.4479,4.4547,4.4615,4.4615,4.4615,4.4615,4.4615,4.4615,4.4615,4.4615,4.4615,4.4615,4.4615,4.4615,4.4615,4.4615,4.4615,4.4615,4.4615,4.4615,4.4615,4.4615,4.4615,4.4615,4.4615,4.4615,4.4615,4.4615,4.4615,4.4615,4.4615,4.4615,4.4615,4.4615,4.4615,4.4564,4.4384,4.369,4.2912,4.2083,4.1356,4.0646,4.0096,4.0096,4.0096,4.0096,4.0096,4.0096,4.0096,4.0096,4.0096,4.0096,4.0096,4.0096,4.0096,4.0096,4.0096,4.0096,4.0096,4.0096,4.0096,4.0096,4.0096,4.0096,4.0096,4.0096,4.0096,4.0096,4.0096,4.0096,4.0096,4.0096,4.0096,4.0096,4.0096,4.0096,4.0096,4.0096,4.0096,4.0096,4.002,3.9662,3.8951,3.8827,3.8469,3.7822,3.769,3.7661,3.7661,3.7573,3.7531,3.7531,3.6844,3.6828,3.7531,3.6889,3.6196,3.9084,3.9607,3.9973,3.9997,4.0578,4.1127,4.1193,4.21,4.2946,4.2946,4.3555,4.4096,4.4096,4.435,4.4615,4.4615,4.4615,4.4615,4.4615,4.4615,4.4615,4.4615,4.4615,4.4615,4.4615,4.4615,4.4615,4.4615,4.4615,4.4615,4.4615,4.4615,4.4615,4.4615,4.4615,4.4615,4.4615,4.4615,4.4615,4.4615,4.4615,4.4615,4.4615,4.4615,4.4615,4.4615,4.4615,4.4615,4.4615,4.4615,4.4615,4.4581,4.4215,4.3352,4.2202,4.1474,4.073,4.0096,4.0096,4.0096,4.0096,4.0096,4.0096,4.0096,4.0096,4.0096,4.0096,4.0096,4.0096,4.0096,4.0096,4.0096,4.0096,4.0096,4.0096,4.0096,4.0096,4.0096,4.0096,4.0096,4.0096,4.0096,4.0096,4.0096,4.0096,4.0096,4.0096,4.0096,4.0096,4.0096,4.0096,4.0096,4.0096,4.0096,4.0096,4.0096,3.9952,3.961,3.961,3.9463,3.9146,3.8679,3.8442,3.8442,3.8035,3.7793,3.7793,3.7456,3.7485,3.7806,3.7889,3.7541,3.9102,3.9813,4.0417,4.0417,4.095,4.1559,4.1762,4.2615,4.3443,4.369,4.4181,4.4615,4.4615,4.4615,4.4615,4.4615,4.4615,4.4615,4.4615,4.4615,4.4615,4.4615,4.4784,4.4919,4.4919,4.4733,4.4615,4.4615,4.4615,4.4615,4.4615,4.4615,4.4615,4.4615,4.4615,4.4615,4.4615,4.4615,4.4615,4.4615,4.4615,4.4615,4.4615,4.4615,4.4615,4.4615,4.4615,4.4615,4.4615,4.4615,4.4615,4.4615,4.4615,4.3775,4.2506,4.1779,4.0899,4.0096,4.0096,4.0096,4.0096,4.0096,4.0096,4.0096,4.0096,4.0096,4.0096,4.0096,4.0096,4.0096,4.0096,4.0096,4.0096,4.0096,4.0096,4.0096,4.0096,4.0096,4.0096,4.0096,4.0096,4.0096,4.0096,4.0096,4.0096,4.0096,4.0096,4.0096,4.0096,4.0096,4.0096,4.0096,4.0096,4.0096,4.0096,4.0096,4.0096,4.0096,4.0096,4.0096,4.0096,3.9542,3.9236,3.9236,3.8707,3.843,3.843,3.8206,3.8234,3.843,3.8745,3.8718,4.0045,4.0612,4.117,4.117,4.1711,4.2439,4.3156,4.3358,4.3639,4.4412,4.4581,4.4615,4.4615,4.4615,4.4615,4.4615,4.4615,4.4615,4.4615,4.4615,4.4615,4.4615,4.5229,4.5669,4.5669,4.501,4.4615,4.4615,4.4615,4.4615,4.4615,4.4615,4.4615,4.4615,4.4615,4.4615,4.4615,4.4615,4.4615,4.4615,4.4615,4.4615,4.4615,4.4615,4.4615,4.4615,4.4615,4.4615,4.4615,4.4615,4.4615,4.4615,4.4615,4.4079,4.3274,4.254,4.1365,4.0096,4.0096,4.0096,4.0096,4.0096,4.0096,4.0096,4.0096,4.0096,4.0096,4.0096,4.0096,4.0096,4.0096,4.0096,4.0096,4.0096,4.0096,4.0096,4.0096,4.0096,4.0096,4.0096,4.0096,4.0096,4.0096,4.0096,4.0096,4.0096,4.0096,4.0096,4.0096,4.0096,4.0096,4.0096,4.0096,4.0096,4.0096,4.0096,4.0096,4.0096,4.0096,4.0096,4.0096,4.007,4.007,4.007,4.0045,4.002,4.002,3.9262,3.9262,4.002,3.9262,3.9315,4.0096,4.0629,4.1204,4.1204,4.2134,4.3071,4.3325,4.3809,4.4265,4.4547,4.4615,4.4615,4.4615,4.4615,4.4615,4.4615,4.4615,4.4615,4.4615,4.4615,4.4801,4.5263,4.5551,4.5889,4.638,4.5754,4.5331,4.5331,4.4874,4.4615,4.4615,4.4615,4.4615,4.4615,4.4615,4.4615,4.4615,4.4615,4.4615,4.4615,4.4615,4.4615,4.4615,4.4615,4.4615,4.4615,4.4615,4.4615,4.4615,4.4615,4.4615,4.4615,4.4615,4.4096,4.3291,4.2574,4.1677,4.0747,4.0282,4.0096,4.0096,4.0096,4.0096,4.0096,4.0096,4.0096,4.0096,4.0096,4.0096,4.0096,4.0096,4.0096,4.0096,4.0096,4.0096,4.0096,4.0096,4.0096,4.0096,4.0096,4.0096,4.0096,4.0096,4.0096,4.0096,4.0096,4.0096,4.0096,4.0096,4.0096,4.0096,4.0096,4.0096,4.0096,4.0096,4.0096,4.0096,4.0096,4.0096,4.0096,4.0096,4.0096,4.0096,4.0096,4.0096,4.0096,4.0096,3.985,3.9833,4.0096,3.9808,3.9833,4.0434,4.1018,4.166,4.1931,4.2912,4.3826,4.3826,4.4215,4.4615,4.4615,4.4615,4.4615,4.4615,4.4615,4.4615,4.4615,4.4835,4.4919,4.4649,4.5055,4.5449,4.5669,4.6177,4.6684,4.7158,4.6532,4.5974,4.572,4.5263,4.4874,4.4615,4.4615,4.4615,4.4615,4.4615,4.4615,4.4615,4.4615,4.4615,4.4615,4.4615,4.4615,4.4615,4.4615,4.4615,4.4615,4.4615,4.4615,4.4615,4.4615,4.4615,4.4615,4.4615,4.4265,4.3741,4.2963,4.2236,4.1457,4.0451,4.0096,4.0096,4.0096,4.0096,4.0096,4.0096,4.0096,4.0096,4.0096,4.0096,4.0096,4.0096,4.0096,4.0096,4.0096,4.0096,4.0096,4.0096,4.0096,4.0096,4.0096,4.0096,4.0096,4.0096,4.0096,4.0096,4.0096,4.0096,4.0096,4.0096,4.0096,4.0096,4.0096,4.0096,4.0096,4.0096,4.0096,4.0096,4.0096,4.0096,4.0096,4.0096,4.0096,4.0096,4.0096,4.0096,4.0096,4.0096,4.0096,4.0096,4.0096,4.0096,4.0096,4.1018,4.1762,4.2523,4.325,4.3995,4.4615,4.4615,4.4615,4.4615,4.4615,4.4615,4.4615,4.4615,4.4615,4.4615,4.4615,4.5179,4.5399,4.4699,4.5788,4.6447,4.5838,4.7005,4.7855,4.7939,4.7293,4.6549,4.5821,4.5703,4.5331,4.4649,4.4615,4.4615,4.4615,4.4615,4.4615,4.4615,4.4615,4.4615,4.4615,4.4615,4.4615,4.4615,4.4615,4.4615,4.4615,4.4615,4.4615,4.4615,4.4615,4.4615,4.4615,4.4615,4.4615,4.4513,4.3707,4.2963,4.2134,4.0722,4.0163,4.0096,4.0096,4.0096,4.0096,4.0096,4.0096,4.0096,4.0096,4.0096,4.0096,4.0096,4.0096,4.0096,4.0096,4.0096,4.0096,4.0096,4.0096,4.0096,4.0096,4.0096,4.0096,4.0096,4.0096,4.0096,4.0096,4.0096,4.0096,4.0096,4.0096,4.0096,4.0096,4.0096,4.0096,4.0096,4.0096,4.0096,4.0096,4.0096,4.0096,4.0096,4.0096,4.0096,4.0096,4.0096,4.0096,4.0096,4.0096,4.0096,4.0096,4.0096,4.0096,4.1153,4.2151,4.3139,4.3341,4.3995,4.4615,4.4615,4.4615,4.4615,4.4615,4.4615,4.4615,4.4615,4.4615,4.4615,4.4615,4.4767,4.479,4.4632,4.4936,4.5512,4.6397,4.6853,4.7513,4.8612,4.8054,4.731,4.6583,4.5483,4.4818,4.4615,4.4615,4.4615,4.4615,4.4615,4.4615,4.4615,4.4615,4.4615,4.4615,4.4615,4.4615,4.4615,4.4615,4.4615,4.4615,4.4615,4.4615,4.4615,4.4615,4.4615,4.4615,4.4615,4.4615,4.4513,4.3707,4.3274,4.2997,4.2049,4.1027,4.0096,4.0096,4.0096,4.0096,4.0096,4.0096,4.0096,4.0096,4.0096,4.0096,4.0096,4.0096,4.0096,4.0096,4.0096,4.0096,4.0096,4.0096,4.0096,4.0096,4.0096,4.0096,4.0096,4.0096,4.0096,4.0096,4.0096,4.0096,4.0096,4.0096,4.0096,4.0096,4.0096,4.0096,4.0096,4.0096,4.0096,4.0096,4.0096,4.0096,4.0096,4.0096,4.0096,4.0096,4.0096,4.0096,4.0096,4.0096,4.0096,4.0096,4.0096,4.0096,4.1593,4.2523,4.3477,4.3842,4.4265,4.4615,4.4615,4.4615,4.4615,4.4615,4.4615,4.4615,4.4615,4.4615,4.4615,4.4615,4.4886,4.4959,4.4649,4.5173,4.5737,4.6261,4.6599,4.7124,4.7953,4.7378,4.6769,4.6346,4.5534,4.4925,4.4632,4.4615,4.4615,4.4615,4.4615,4.4615,4.4615,4.4615,4.4615,4.4615,4.4615,4.4615,4.4615,4.4615,4.4615,4.4615,4.4615,4.4615,4.4615,4.4615,4.4615,4.4615,4.4615,4.4615,4.4564,4.4079,4.3707,4.3325,4.2929,4.2016,4.1027,4.0705,4.0367,4.0096,4.0096,4.0096,4.0096,4.0096,4.0096,4.0096,4.0096,4.0096,4.0096,4.0096,4.0096,4.0096,4.0096,4.0096,4.0096,4.0096,4.0096,4.0096,4.0096,4.0096,4.0096,4.0096,4.0096,4.0096,4.0096,4.0096,4.0096,4.0096,4.0096,4.0096,4.0096,4.0096,4.0096,4.0096,4.0096,4.0096,4.0096,4.0096,4.0096,4.0096,4.0096,4.0096,4.0096,4.0096,4.0096,4.0096,4.0096,4.0096,4.2117,4.2912,4.3741,4.4445,4.4615,4.4615,4.4615,4.4615,4.4615,4.4615,4.4615,4.4615,4.4615,4.4615,4.4615,4.4615,4.5128,4.5331,4.4699,4.5715,4.6295,4.5771,4.6261,4.6684,4.6786,4.6126,4.5703,4.5703,4.5618,4.5263,4.4632,4.4615,4.4615,4.4615,4.4615,4.4615,4.4615,4.4615,4.4615,4.4615,4.4615,4.4615,4.4615,4.4615,4.4615,4.4615,4.4615,4.4615,4.4615,4.4615,4.4615,4.4615,4.4615,4.4615,4.4615,4.4615,4.4147,4.3572,4.3572,4.3081,4.232,4.1593,4.0899,4.04,4.04,4.04,4.04,4.04,4.0316,4.0248,4.0248,4.018,4.0096,4.0096,4.0096,4.0096,4.0096,4.0096,4.0096,4.0096,4.0096,4.0096,4.0096,4.0096,4.0096,4.0096,4.0096,4.0096,4.0096,4.0096,4.0096,4.0096,4.0096,4.0096,4.0096,4.0096,4.0096,4.0096,4.0096,4.0096,4.0096,4.0096,4.0096,4.0096,4.0096,4.0096,4.0096,4.0096,4.0096,4.0096,4.0096,4.0096,4.2252,4.3318,4.4445,4.4581,4.4615,4.4615,4.4615,4.4615,4.4615,4.4615,4.4615,4.4615,4.4615,4.4615,4.4615,4.4615,4.4716,4.475,4.4632,4.4835,4.5173,4.5652,4.5821,4.6126,4.6735,4.6126,4.5703,4.5703,4.5128,4.475,4.4615,4.4615,4.4615,4.4615,4.4615,4.4615,4.4615,4.4615,4.4615,4.4615,4.4615,4.4615,4.4615,4.4615,4.4615,4.4615,4.4615,4.4615,4.4615,4.4615,4.4615,4.4615,4.4615,4.4615,4.4615,4.4615,4.4513,4.4384,4.4384,4.3859,4.3098,4.2337,4.2016,4.1941,4.1941,4.1941,4.1941,4.1941,4.1474,4.1018,4.1018,4.0544,4.0096,4.0096,4.0096,4.0096,4.0096,4.0096,4.0096,4.0096,4.0096,4.0096,4.0096,4.0096,4.0096,4.0096,4.0096,4.0096,4.0096,4.0096,4.0096,4.0096,4.0096,4.0096,4.0096,4.0096,4.0096,4.0096,4.0096,4.0096,4.0096,4.0096,4.0096,4.0096,4.0096,4.0096,4.0096,4.0096,4.0096,4.0096,4.0096,4.0096,4.2206,4.3447,4.4615,4.4615,4.4253,4.4035,4.4514,4.4253,4.4064,4.4514,4.4615,4.4615,4.4615,4.4615,4.4615,4.4615,4.4615,4.4615,4.4615,4.4615,4.4733,4.5077,4.5128,4.5263,4.563,4.5331,4.5128,4.5128,4.4818,4.4615,4.4615,4.4615,4.4615,4.4615,4.4615,4.4615,4.4615,4.4615,4.4615,4.4615,4.4615,4.4615,4.4615,4.4615,4.4615,4.4615,4.4615,4.4615,4.4615,4.4615,4.4615,4.4615,4.4615,4.4615,4.4615,4.4615,4.4615,4.4615,4.4615,4.4361,4.3961,4.3606,4.2946,4.2286,4.2286,4.2286,4.2286,4.2286,4.2049,4.1762,4.1762,4.1508,4.1221,4.1221,4.0933,4.0561,4.018,4.0096,4.0096,4.0096,4.0096,4.0096,4.0096,4.0096,4.0096,4.0096,4.0096,4.0096,4.0096,4.0096,4.0096,4.0096,4.0096,4.0096,4.0096,4.0096,4.0096,4.0096,4.0096,4.0096,4.0096,4.0096,4.0096,4.0096,4.0096,4.0096,4.0096,4.0096,4.0096,4.0096,4.0096,4.0096,4.1794,4.2997,4.4047,4.4047,4.3515,4.3199,4.3902,4.3651,4.3502,4.4196,4.4485,4.4615,4.4615,4.4615,4.4615,4.4615,4.4615,4.4615,4.4615,4.4615,4.4615,4.4615,4.4615,4.4615,4.4615,4.4615,4.4615,4.4615,4.4615,4.4615,4.4615,4.4615,4.4615,4.4615,4.4615,4.4615,4.4615,4.4615,4.4615,4.4615,4.4615,4.4615,4.4615,4.4615,4.4615,4.4615,4.4615,4.4615,4.4615,4.4615,4.4615,4.4615,4.4615,4.4615,4.4615,4.4615,4.4615,4.4615,4.4615,4.4615,4.4615,4.4615,4.3785,4.2777,4.2777,4.2777,4.2777,4.2777,4.2658,4.254,4.254,4.2422,4.2286,4.2286,4.1863,4.1271,4.0705,4.057,4.0519,4.0383,4.035,4.0299,4.013,4.0096,4.0096,4.0096,4.0096,4.0096,4.0096,4.0096,4.0096,4.0096,4.0096,4.0096,4.0096,4.0096,4.0096,4.0096,4.0096,4.0096,4.0096,4.0096,4.0096,4.0096,4.0096,4.0096,4.0096,4.0096,4.0096,4.0096,4.0096,4.018,4.084,4.161,4.2252,4.2252,4.2189,4.2125,4.2221,4.2785,4.3306,4.3396,4.4035,4.4615,4.4615,4.4615,4.4615,4.4615,4.4615,4.4615,4.4615,4.4615,4.4615,4.4615,4.4615,4.4615,4.4615,4.4615,4.4615,4.4615,4.4615,4.4615,4.4615,4.4615,4.4615,4.4615,4.4615,4.4615,4.4615,4.4615,4.4615,4.4615,4.4615,4.4615,4.4615,4.4615,4.4615,4.4615,4.4615,4.4615,4.4615,4.4615,4.4615,4.4615,4.4615,4.4615,4.4615,4.4615,4.4615,4.4615,4.4615,4.4615,4.4615,4.4615,4.4513,4.4395,4.4395,4.4395,4.4395,4.4395,4.3859,4.3291,4.3291,4.2811,4.2286,4.2286,4.2236,4.2168,4.21,4.2083,4.1897,4.1238,4.1102,4.0882,4.0231,4.0096,4.0096,4.0096,4.0096,4.0096,4.0096,4.0096,4.0096,4.0096,4.0096,4.0096,4.0096,4.0096,4.0096,4.0096,4.0096,4.0096,4.0096,4.0096,4.0096,4.0096,4.0096,4.0096,4.0096,4.0096,4.0096,4.0096,4.0096,4.0468,4.0705,4.1438,4.1997,4.1997,4.1609,4.133,4.1869,4.1869,4.2029,4.3078,4.3562,4.3977,4.4514,4.4615,4.4615,4.4615,4.4615,4.4615,4.4615,4.4615,4.4615,4.4615,4.4615,4.4615,4.4615,4.4615,4.4615,4.4615,4.4615,4.4615,4.4615,4.4615,4.4615,4.4615,4.4615,4.4615,4.4615,4.4615,4.4615,4.4615,4.4615,4.4615,4.4615,4.4615,4.4615,4.4615,4.4615,4.4615,4.4615,4.4615,4.4615,4.4615,4.4615,4.4615,4.4615,4.4615,4.4615,4.4615,4.4615,4.4615,4.4615,4.4615,4.4615,4.4615,4.4615,4.4615,4.4615,4.4615,4.4378,4.4113,4.4113,4.3893,4.3555,4.3081,4.2963,4.2844,4.2388,4.2286,4.2202,4.1914,4.1863,4.1762,4.1484,4.1433,4.1433,4.1433,4.1035,4.0747,4.0747,4.0383,4.0096,4.0096,4.0096,4.0096,4.0096,4.0096,4.0096,4.0096,4.0096,4.0096,4.0096,4.0096,4.0096,4.0096,4.0096,4.0096,4.0096,4.0096,4.0333,4.0747,4.021,4.0363,4.023,4.0835,4.1213,4.1213,4.0758,4.0466,4.1095,4.0961,4.1113,4.2614,4.3108,4.3562,4.444,4.4615,4.4615,0.0,0.0,4.4615,4.4615,4.4615,4.4615,4.4615,4.4615,4.4615,4.4615,4.4615,4.4615,4.4615,4.4615,4.4615,4.4615,4.4615,4.4615,4.4615,4.4615,4.4615,4.4615,4.4615,4.4615,4.4615,4.4615,4.4615,4.4615,4.4615,4.4615,4.4615,4.4615,4.4615,4.4615,4.4615,4.4615,4.4615,4.4615,4.4615,4.4615,4.4615,4.4615,4.4615,4.4615,4.4615,4.4615,4.4615,4.4615,4.4615,4.4615,4.4615,4.4615,4.4615,4.4615,4.4615,4.4615,4.4615,4.4479,4.3893,4.3758,4.3623,4.3081,4.299,4.2895,4.2675,4.2625,4.2557,4.2337,4.2286,4.2286,4.2286,4.1863,4.1525,4.1525,4.1068,4.0756,4.0756,4.0756,4.057,4.0146,4.0096,4.0096,4.0096,4.0096,4.0096,4.0096,4.0096,4.0096,4.0096,4.0316,4.0434,4.0434,4.0654,4.1027,4.1499,4.0619,4.0504,3.9215,3.9409,3.9424,3.9424,3.9409,3.9424,3.9409,4.0095,4.0946,4.1836,4.2707,4.3562,4.444,4.4615,4.4615,4.4615,4.4615,0.0,4.4615,4.4615,4.4615,4.4615,4.4615,4.4615,4.4615,4.4615,4.4615,4.4615,4.4615,4.4615,4.4615,4.4615,4.4615,4.4615,4.4615,4.4615,4.4615,4.4615,4.4615,4.4615,4.4615,4.4615,4.4615,4.4615,4.4615,4.4615,4.4615,4.4615,4.4615,4.4615,4.4615,4.4615,4.4615,4.4615,4.4615,4.4615,4.4615,4.4615,4.4615,4.4615,4.4615,4.4615,4.4615,4.4615,4.4615,4.4615,4.4615,4.4615,4.4615,4.4615,4.4615,4.4615,4.4615,4.4598,4.4598,4.4598,4.4581,4.4581,4.4333,4.3527,4.3375,4.3139,4.2422,4.2286,4.2286,4.2286,4.2286,4.2286,4.2286,4.2269,4.2269,4.2269,4.2269,4.1677,4.0231,4.0096,4.0096,4.0096,4.0096,4.0096,4.0096,4.0096,4.0096,4.0096,4.0815,4.1187,4.1187,4.1914,4.2269,4.2269,4.1393,4.0964,3.9328,3.9388,3.9388,3.9388,3.9388,3.9388,3.9388,3.961,4.006,4.0912,4.1788,4.2676,4.3545,4.4196,4.4615,4.4615,4.4615,4.4615,4.4615,4.4615,4.4615,4.4615,4.4615,4.4615,4.4615,4.4615,4.4615,4.4615,4.4615,4.4615,4.4615,4.4615,4.4615,4.4615,4.4615,4.4615,4.4615,4.4615,4.4615,4.4615,4.4615,4.4615,4.4615,4.4615,4.4615,4.4615,4.4615,4.4615,4.4615,4.4615,4.4615,4.4615,4.4615,4.4615,4.4615,4.4615,4.4615,4.4615,4.4615,4.4615,4.4615,4.4615,4.4196,4.3814,4.4412,4.4615,4.4615,4.4615,4.4615,4.4615,4.4615,4.4615,4.4615,4.4615,4.4615,4.4615,4.4615,4.4615,4.453,4.4265,4.4215,4.413,4.3921,4.3887,4.3887,4.3887,4.3403,4.3064,4.3064,4.2608,4.2286,4.2286,4.2286,4.21,4.1653,4.1593,4.1593,4.1593,4.1593,4.1593,4.1593,4.1593,4.1593,4.1593,4.1813,4.1648,4.105,4.131,4.1069,4.045,4.0673,4.0448,3.9313,3.9388,3.9388,3.9388,3.9388,3.9388,3.9388,3.9388,3.9646,4.0535,4.1147,4.1869,4.3078,4.3739,4.4224,4.4542,4.4615,4.4615,4.4615,4.4615,4.4615,4.4615,4.4615,4.4615,4.4615,4.4615,4.4615,4.4615,4.4615,4.4615,4.4615,4.4615,4.4615,4.4615,4.4615,4.4615,4.4615,4.4615,4.4615,4.4615,4.4615,4.4615,4.4615,4.4615,4.4615,4.4615,4.4615,4.4615,0.0,4.4615,4.4615,4.4615,4.4615,4.4615,4.4615,4.4615,4.4615,4.4615,4.4615,4.4615,4.4615,4.4615,4.4006,4.3336,4.3545,4.3844,4.4035,4.371,4.3604,4.3604,4.3604,4.3604,4.3604,4.3604,4.3604,4.3604,4.3604,4.3604,4.3604,4.3604,4.3873,4.4109,4.4109,4.4384,4.4615,4.4615,4.4164,4.3859,4.3859,4.3436,4.3176,4.3176,4.3176,4.3176,4.3176,4.2625,4.2286,4.2286,4.2286,4.2286,4.2286,4.2286,4.2153,4.182,4.2116,4.1841,4.0967,4.1227,4.091,4.0019,4.0489,4.0239,0.0,3.9343,3.9388,3.9388,3.9388,3.9388,3.9388,3.9388,0.0,4.0432,4.0656,4.1213,4.2878,4.3246,4.3591,4.4457,4.4615,4.4615,4.4615,4.4615,4.4615,4.4615,4.4615,4.4615,4.4615,4.4615,4.4615,4.4615,4.4615,4.4615,4.4615,4.4615,4.4615,4.4615,4.4615,4.4615,4.4615,4.4615,4.4615,4.4615,4.4615,4.4615,4.4615,4.4615,4.4615,4.4615,4.4615,4.4615,4.4615,4.4615,4.4615,4.4615,4.4615,4.4615,4.4615,4.4615,4.4615,4.4598,4.4542,4.4542,4.457,4.4457,4.3873,4.3047,4.2093,4.2458,4.3047,4.2221,4.1997,4.1997,4.1997,4.1997,4.1997,4.1997,4.1997,4.1997,4.1997,4.1997,4.1997,4.1997,4.2645,4.3216,4.3216,4.3948,4.4514,4.4514,4.4542,4.4615,4.4615,4.4615,4.4615,4.4615,4.4615,4.4615,4.4615,4.3295,4.2455,4.2455,4.2455,4.2455,4.2455,4.2455,4.2081,4.1276,4.1864,4.1762,4.0896,4.1501,4.1412,4.0588,4.0588,4.0185,3.8317,0.0,3.9388,3.9388,3.9388,3.9388,0.0,3.9388,3.9445,3.9666,4.0255,4.1046,4.2093,4.2847,4.3591,4.4457,4.4615,4.4615,4.4615,4.4615,4.4615,4.4615,4.4615,4.4615,4.4615,4.4615,4.4615,4.4615,4.4615,4.4615,4.4615,4.4615,4.4615,4.4615,4.4615,4.4615,4.4615,4.4615,4.4615,4.4615,4.4615,4.4615,4.4615,4.4615,4.4615,4.4615,4.4615,4.4615,4.4615,4.4615,4.4615,4.4615,4.4615,4.4615,4.4615,4.4615,4.4615,4.4514,4.3844,4.4035,4.4384,4.3045,4.2473,4.2029,4.0481,4.1095,4.2252,4.2062,4.1997,4.1997,4.1997,4.1997,4.1997,4.1997,4.1997,4.1997,4.1997,4.1997,4.1997,4.1997,4.2157,4.23,4.23,4.3031,4.3621,4.3621,4.4167,4.4615,4.4615,4.4615,4.4615,4.4615,4.4615,4.4615,4.4615,4.4276,4.4073,4.4073,4.4073,4.4073,4.4073,4.4073,4.3973,4.376,4.2626,4.1614,4.0745,4.0247,3.99,3.9702,3.9702,3.961,3.8048,3.8661,3.902,3.9298,3.9388,3.9388,3.9388,3.9388,3.9388,3.9388,3.9773,4.05,4.1772,4.2395,4.3139,4.4384,4.4615,4.4615,4.4615,4.4615,4.4615,4.4615,4.4615,4.4615,4.4615,4.4615,4.4615,4.4615,4.4615,4.4615,4.4615,4.4615,4.4615,4.4615,4.4615,4.4615,4.4615,4.4615,4.4615,4.4615,4.4615,4.4615,4.4615,4.4615,4.4615,4.4615,4.4615,4.4615,4.4615,4.4615,4.4615,4.4615,4.4615,4.4355,4.4064,4.4457,4.4093,4.338,4.3336,4.3366,4.3183,4.182,4.1412,4.1147,3.9809,4.006,4.0808,4.0808,4.0808,4.0808,4.0808,4.0808,4.0808,4.0808,4.0808,4.0808,4.0808,4.0808,4.0808,4.0808,4.1445,4.1869,4.1478,4.2458,4.3306,4.3306,4.368,4.4167,4.4542,4.4615,4.4615,4.4615,4.4615,4.4615,4.4615,4.4615,4.4615,4.4615,4.4615,4.4615,4.4615,4.4615,4.4224,4.341,4.2093,4.0979,4.0115,3.9646,3.9388,3.9388,3.9388,3.9388,3.7898,3.8242,3.8422,3.923,3.9388,3.9388,3.9388,3.9388,3.9388,3.9388,3.9517,4.0095,4.1707,4.2093,4.2738,4.4355,4.4615,4.4615,4.4615,4.4615,4.4615,4.4615,4.4615,4.4615,4.4615,4.4615,4.4615,4.4615,4.4615,4.4615,4.4615,4.4615,4.4615,4.4615,4.4615,4.4615,4.4615,4.4615,4.4615,4.4615,4.4615,4.4615,4.4615,4.4615,4.4615,4.4615,4.4615,4.4615,4.4587,4.4457,4.4412,4.4384,4.4253,4.3739,4.3199,4.3931,4.3259,4.2093,4.2847,4.2458,4.1511,4.0878,4.0622,4.0363,3.961,3.9388,3.9388,3.9388,3.9388,3.9388,3.9388,3.9388,3.9388,3.9388,3.9388,3.9388,3.9388,3.9388,3.9388,3.9388,4.0569,4.1379,4.0622,4.1836,4.2909,4.2909,4.3139,4.3562,4.4327,4.4514,4.4615,4.4615,4.4615,4.4615,4.4615,4.4615,4.4615,4.4615,4.4615,4.4615,4.4615,4.4615,4.3768,4.2029,4.1264,4.0397,3.9388,3.9388,3.9388,3.9388,3.9388,3.9388,3.721,3.7554,3.7853,3.9074,3.9388,3.9388,3.9388,3.9388,3.9388,3.9388,3.999,4.0826,4.1804,4.2583,4.3426,4.4457,4.4615,4.4615,4.4615,4.4615,4.4615,4.4615,4.4615,4.4615,4.4615,4.4615,4.4615,4.4615,4.4615,4.4615,4.4615,4.4615,4.4615,4.4615,4.4615,4.4615,4.4615,4.4615,4.4615,4.4615,4.4615,4.4615,4.4615,4.4615,4.4615,4.4615,4.4615,4.4615,4.4542,4.3814,4.3502,4.3426,4.2676,4.2316,4.2221,4.2347,4.2221,4.2029,4.2157,4.1162,3.99,4.05,4.0205,3.9574,3.9445,3.9388,3.9388,3.9388,3.9388,3.9388,3.9388,3.9388,3.9388,3.9388,3.9388,3.9388,3.9388,3.9388,3.9388,3.9388,3.961,3.9773,3.961,4.0447,4.1113,4.1113,4.2363,4.3336,4.3486,4.4138,4.4615,4.4615,4.4615,4.4615,4.4615,4.4615,4.4615,4.4615,4.4615,4.4615,4.4615,4.4615,4.3768,4.2029,4.1869,4.0995,3.9388,3.9388,3.9388,3.9388,3.9388,3.9388,3.7584,3.7943,3.8182,3.917,3.9388,3.9388,3.9388,3.9388,3.9388,3.9388,4.008,4.0979,4.1836,4.2707,4.3591,4.4457,4.4615,4.4615,4.4615,4.4615,4.4615,4.4615,4.4615,4.4615,4.4615,4.4615,4.4615,4.4615,4.4615,4.4615,4.4615,4.4615,4.4615,4.4615,4.4615,4.4615,4.4615,4.4615,4.4615,4.4615,4.4615,4.4615,4.4615,4.4615,4.4355,4.3919,4.3919,4.3621,4.3152,4.2769,4.2583,4.2552,4.2157,4.1707,4.1247,4.0774,4.0894,4.1247,4.0774,4.006,3.9481,3.9864,3.9737,3.9388,3.9388,3.9388,3.9388,3.9388,3.9388,3.9388,3.9388,3.9388,3.9388,3.9388,3.9388,3.9388,3.9388,3.9388,3.9388,3.9388,3.9758,3.9955,3.9481,4.0115,4.069,4.069,4.1379,4.2221,4.3185,4.3651,4.4064,4.4542,4.4615,4.4615,4.4615,4.4615,4.4615,4.4615,4.4615,4.4615,4.4615,4.4615,4.3768,4.2029,4.1997,4.1129,3.9388,3.9388,3.9388,3.9388,3.9388,3.9388,3.8078,3.8392,3.8556,3.9245,3.9388,3.9388,3.9388,3.9388,3.9388,3.9388,4.0255,4.1213,4.1869,4.2878,4.3814,4.4485,4.4615,4.4615,4.4615,4.4615,4.4615,4.4615,4.4615,4.4615,4.4615,4.4615,4.4615,4.4615,4.4615,4.4615,4.4615,4.4615,4.4615,4.4615,4.4615,4.4615,4.4615,4.4615,4.4615,4.4615,4.4384,4.4298,4.4281,4.4093,4.3621,4.3017,4.3017,4.2614,4.1997,4.1772,4.1707,4.1674,4.1478,4.0995,4.0309,3.9646,3.9829,4.0309,3.9646,3.9388,3.9388,3.9388,3.9388,3.9388,3.9388,3.9388,3.9388,3.9388,3.9388,3.9388,3.9388,3.9388,3.9388,3.9388,3.9388,3.9388,3.9388,3.9388,3.9388,3.9388,3.992,4.017,3.9517,3.9955,4.0397,4.0397,4.0554,4.1247,4.2785,4.3017,4.3336,4.4196,4.4121,4.4064,4.4281,4.4485,4.4615,4.4615,4.4615,4.4514,4.4281,4.4298,4.3486,4.1739,4.1707,4.0927,3.9388,3.9388,3.9388,3.9388,3.9388,3.9388,3.8197,3.8392,3.8556,3.9245,3.9388,3.9388,3.9388,3.9388,3.9388,3.9388,4.074,4.1933,4.1997,4.338,4.4514,4.4598,4.4615,4.4615,4.4615,4.4615,4.4615,4.4615,4.4615,4.4615,4.4615,4.4615,4.4615,4.4615,4.4615,4.4615,4.4615,4.4615,4.4615,4.4615,4.4615,4.4615,4.4615,4.4615,4.4615,4.4598,4.3785,4.3396,4.3366,4.2552,4.2157,4.2093,4.2093,4.2062,4.1933,4.1113,4.0777,4.0724,3.99,3.9553,3.9481,3.9409,3.9445,3.9481,3.9409,3.9388,3.9388,3.9388,3.9388,3.9388,3.9388,3.9388,3.9388,3.9388,3.9388,3.9388,3.9388,3.9388,3.9388,3.9388,3.9388,3.9388,3.9388,3.9388,3.9388,3.9388,3.9445,3.9481,3.9409,3.9445,3.9481,3.9481,4.0185,4.1046,4.1965,4.2093,4.2426,4.3306,4.2676,4.252,4.3336,4.4121,4.4615,4.4615,4.4615,4.4224,4.3426,4.3396,4.2583,4.0811,4.0777,4.0343,3.9388,3.9388,3.9388,3.9388,3.9388,3.9388,3.8841,3.9035,3.9095,3.9349,3.9388,3.9388,3.9388,3.9388,3.9538,4.008,4.1147,4.2316,4.341,4.415,4.4615,4.4615,4.4615,4.4615,4.4615,4.4615,4.4615,4.4615,4.4615,4.4615,4.4615,4.4615,4.4615,4.4615,4.4615,4.4615,4.4615,4.4615,4.4615,4.4615,4.4615,4.4615,4.4615,4.4615,4.4615,4.4587,4.3726,4.3306,4.3276,4.2395,4.1691,4.118,4.118,4.0894,4.0359,4.0025,3.99,3.9864,3.9553,3.9388,3.9388,3.9388,3.9388,3.9388,3.9388,3.9388,3.9388,3.9388,3.9388,3.9388,3.9388,3.9388,3.9388,3.9388,3.9388,3.9388,3.9388,3.9388,3.9388,3.9388,3.9388,3.9388,3.9388,3.9388,3.9388,3.9388,3.9388,3.9388,3.9388,3.9388,3.9388,3.9388,4.015,4.0826,4.1147,4.1658,4.2125,4.2458,4.2189,4.2347,4.3246,4.3108,4.3213,4.3756,4.3785,4.3651,4.3306,4.2785,4.1933,4.0724,4.069,4.0274,3.9388,3.9388,3.9388,3.9388,3.9388,3.9388,3.929,3.9388,3.9388,3.9388,3.9388,3.9481,3.9737,3.9793,3.999,4.0588,4.1609,4.2878,4.4327,4.4615,4.4615,4.4615,4.4615,4.4615,4.4615,4.4615,4.4615,4.4615,4.4615,4.4615,4.4615,4.4615,4.4615,4.4615,4.4615,4.4615,4.4615,4.4615,4.4615,4.4615,4.4615,4.4615,4.4615,4.4615,4.444,4.4196,4.3306,4.2878,4.2847,4.1707,4.086,4.0274,4.0274,3.9955,3.9388,3.9388,3.9388,3.9388,3.9388,3.9388,3.9388,3.9388,3.9388,3.9388,3.9388,3.9388,3.9388,3.9388,3.9388,3.9388,3.9388,3.9388,3.9388,3.9388,3.9388,3.9388,3.9388,3.9388,3.9388,3.9388,3.9388,3.9388,3.9388,3.9388,3.9388,3.9388,3.9388,3.9388,3.9388,3.9388,3.9388,3.9388,3.99,4.0397,4.0656,4.0995,4.1196,4.1196,4.1412,4.1836,4.2426,4.2189,4.2252,4.2847,4.2614,4.2489,4.2489,4.1901,4.118,4.0309,4.0274,3.999,3.9388,3.9388,3.9388,3.9388,3.9388,3.9388,3.9388,3.9388,3.9388,3.9388,3.9424,3.9646,4.05,4.069,4.0709,4.0724,4.2093,4.3562,4.444,4.4615,4.4615,4.4615,4.4615,4.4615,4.4615,4.4615,4.4615,4.4615,4.4615,4.4615,4.4615,4.4615,4.4615,4.4615,4.4615,4.4615,4.4615,4.4615,4.4615,4.4615,4.4615,4.4615,4.4615,4.4615,4.4167,4.3306,4.2426,4.1997,4.1933,4.0185,3.9388,3.9388,3.9388,3.9388,3.9388,3.9388,3.9388,3.9388,3.9388,3.9388,3.9388,3.9388,3.9388,3.9388,3.9388,3.9388,3.9388,3.9388,3.9388,3.9388,3.9388,3.9388,3.9388,3.9388,3.9388,3.9388,3.9388,3.9388,3.9388,3.9388,3.9388,3.9388,3.9388,3.9388,3.9388,3.9388,3.9388,3.9388,3.9388,3.9388,3.9388,3.9388,3.9424,3.9737,4.0603,3.9935,3.9403,3.9403,4.02,4.0706,4.0706,4.1494,4.1981,4.2013,4.1196,4.069,4.069,4.069,4.0274,3.9424,3.9388,3.9388,3.9388,3.9388,3.9388,3.9388,3.9388,3.9388,3.9388,3.9388,3.9388,3.9388,3.9864,4.0363,4.0622,4.069,4.1046,4.23,4.3426,4.4281,4.4542,4.4615,4.4615,4.4615,4.4615,4.4615,4.4615,4.4615,4.4615,4.4615,4.4615,4.4615,4.4615,4.4615,4.4615,4.4615,4.4615,4.4615,4.4615,4.4615,4.4615,4.4615,4.4615,4.4615,4.4615,4.4615,4.4167,4.3306,4.2426,4.1674,4.1046,3.9935,3.9388,3.9388,3.9388,3.9388,3.9388,3.9388,3.9388,3.9388,3.9388,3.9388,3.9388,3.9388,3.9388,3.9388,3.9388,3.9388,3.9388,3.9388,3.9388,3.9388,3.9388,3.9388,3.9388,3.9388,3.9388,3.9388,3.9388,3.9388,3.9388,3.9388,3.9388,3.9388,3.9388,3.9388,3.9388,3.9388,3.9388,3.9388,3.9388,3.9388,3.9388,3.9388,3.992,4.0582,4.1303,4.1043,4.0801,4.0801,4.1031,4.1441,4.2041,4.1771,4.1843,4.2447,4.1663,4.1035,4.0721,4.0115,3.9666,3.9424,3.9388,3.9388,3.9388,3.9388,3.9388,3.9388,3.9388,3.9664,3.9388,3.9388,3.9388,3.9388,4.006,4.0878,4.156,4.1739,4.2125,4.3515,4.4224,4.4615,4.4615,4.4615,4.4615,4.4615,4.4615,4.4615,4.4615,4.4615,4.4615,4.4615,4.4615,4.4615,4.4615,4.4615,4.4615,4.4615,4.4615,4.4615,4.4615,4.4615,4.4615,4.4615,4.4615,4.4615,4.4615,4.4615,4.4167,4.3306,4.2426,4.1528,4.069,3.9793,3.9388,3.9388,3.9388,3.9388,3.9388,3.9388,3.9388,3.9388,3.9388,3.9388,3.9388,3.9388,3.9388,3.9388,3.9388,3.9388,3.9388,3.9388,3.9388,3.9388,3.9388,3.9388,3.9388,3.9388,3.9388,3.9388,3.9388,3.9388,3.9388,3.9388,3.9388,3.9388,3.9388,3.9388,3.9388,3.9388,3.9388,3.9463,3.9768,3.9813,3.9903,4.0157,4.0652,4.1133,4.1525,4.1474,4.1422,4.1422,4.1422,4.1633,4.2145,4.1693,4.179,4.2679,4.1901,4.1427,4.1542,4.0688,4.0202,4.0202,4.0202,4.0202,4.0202,4.0202,4.0202,4.0202,4.0202,4.0412,3.9388,3.9388,3.9388,3.9388,4.0115,4.1264,4.3017,4.3413,4.3651,4.4457,4.4615,4.4615,4.4615,4.4615,4.4615,4.4615,4.4615,4.4615,4.4615,4.4615,4.4615,4.4615,4.4615,4.4615,4.4615,4.4615,4.4615,4.4615,4.4615,4.4615,4.4615,4.4615,4.4615,4.4615,4.4615,4.4615,4.4615,4.4615,4.4121,4.3169,4.2395,4.1511,4.0554,3.9773,3.9388,3.9388,3.9388,3.9388,3.9388,3.9388,3.9388,3.9388,3.9388,3.9388,3.9388,3.9388,3.9388,3.9388,3.9388,3.9388,3.9388,3.9388,3.9388,3.9388,3.9388,3.9388,3.9388,3.9388,3.9388,3.9388,3.9388,3.9388,3.9388,3.9388,3.9388,3.9388,3.9388,3.9388,3.9439,3.9499,3.9514,3.9709,4.0382,4.0487,4.0696,4.1294,4.1467,4.1512,4.1512,4.1519,4.1602,4.1701,4.1701,4.1738,4.1836,4.1836,4.218,4.2922,4.218,4.2031,4.2814,4.1925,4.1422,4.1422,4.1422,4.1422,4.1422,4.1422,4.1422,4.1422,4.1422,4.1414,3.9388,3.9388,3.9388,3.9388,4.0585,4.2189,4.3931,4.4327,4.4384,4.4542,4.4615,4.4615,4.4615,4.4615,4.4615,4.4615,4.4615,4.4615,4.4615,4.4615,4.4615,4.4615,4.4615,4.4615,4.4615,4.4615,4.4615,4.4615,4.4615,4.4615,4.4615,4.4615,4.4615,4.4615,4.4615,4.4615,4.4615,4.4615,4.3827,4.23,4.2093,4.1196,3.9666,3.9481,3.9388,3.9388,3.9388,3.9388,3.9388,3.9388,3.9388,3.9388,3.9388,3.9388,3.9388,3.9388,3.9388,3.9388,3.9388,3.9388,3.9388,3.9388,3.9388,3.9388,3.9388,3.9388,3.9388,3.9388,3.9388,3.9388,3.9388,3.9388,3.9388,3.9388,3.9388,3.9388,3.9388,3.9388,3.9574,4.0083,4.0187,4.0397,4.1055,4.1175,4.122,4.1392,4.1856,4.2186,4.2186,4.2596,4.3208,4.3966,4.4079,4.4363,4.5104,4.5175,4.4939,4.44,4.4192,4.3792,4.3232,4.2023,4.1422,4.1422,4.1422,4.1422,4.1422,4.1422,4.1422,4.1422,4.1422,4.1692,3.9265,3.9388,3.961,4.0462,4.1329,4.2442,4.4196,4.4615,4.4615,4.4615,4.4615,4.4615,4.4615,4.4615,4.4615,4.4615,4.4615,4.4615,4.4615,4.4615,4.4615,4.4615,4.4615,4.4615,4.4615,4.4615,4.4615,4.4615,4.4615,4.4615,4.4615,4.4615,4.4615,4.4615,4.4615,4.4615,4.4615,4.4615,4.3931,4.2614,4.2189,4.1095,3.9388,3.9388,3.9388,3.9388,3.9388,3.9388,3.9388,3.9388,3.9388,3.9388,3.9388,3.9388,3.9388,3.9388,3.9388,3.9388,3.9388,3.9388,3.9388,3.9388,3.9388,3.9388,3.9388,3.9388,3.9388,3.9388,3.9388,3.9388,3.9388,3.9388,3.9388,3.9388,3.9388,3.9388,3.9388,3.9664,3.9993,4.0337,4.0651,4.107,4.1767,4.2102,4.2312,4.2312,4.2611,4.2821,4.2821,4.3135,4.3708,4.4699,4.4812,4.519,4.6103,4.6208,4.6012,4.5488,4.5058,4.4548,4.4028,4.2928,4.2312,4.2312,4.2312,4.2312,4.2312,4.2312,4.2312,4.2312,4.2312,4.2506,3.9104,3.9388,3.9809,4.1576,4.1997,4.2442,4.4196,4.4615,4.4615,4.4615,4.4615,4.4615,4.4615,4.4615,4.4615,4.4615,4.4615,4.4615,4.4615,4.4615,4.4615,4.4615,4.4615,4.4615,4.4615,4.4615,4.4615,4.4615,4.4615,4.4615,4.4615,4.4615,4.4615,4.4615,4.4615,4.4615,4.4615,4.4457,4.3931,4.3078,4.2029,4.0808,3.9388,3.9388,3.9388,3.9388,3.9388,3.9388,3.9388,3.9388,3.9388,3.9388,3.9388,3.9388,3.9388,3.9388,3.9388,3.9388,3.9388,3.9388,3.9388,3.9388,3.9388,3.9388,3.9388,3.9388,3.9388,3.9388,3.9388,3.9388,3.9388,3.9388,3.9454,3.9574,3.9553,3.9553,3.9553,4.0023,4.0472,4.0696,4.1265,4.1893,4.247,4.297,4.329,4.329,4.329,4.329,4.329,4.329,4.3708,4.4699,4.4812,4.5264,4.6349,4.6279,4.6208,4.6208,4.5322,4.4737,4.4548,4.3732,4.329,4.329,4.329,4.329,4.329,4.329,4.329,4.329,4.329,4.329,3.9104,3.9388,3.9809,4.1576,4.1997,4.2442,4.4196,4.4615,4.4615,4.4615,4.4615,4.4615,4.4615,4.4615,4.4615,4.4615,4.4615,4.4615,4.4615,4.4615,4.4615,4.4615,4.4615,4.4615,4.4615,4.4615,4.4615,4.4615,4.4615,4.4615,4.4615,4.4615,4.4615,4.4615,4.4615,4.4615,4.4615,4.3844,4.3047,4.2157,4.0516,3.961,3.9388,3.9388,3.9388,3.9388,3.9388,3.9388,3.9388,3.9388,3.9388,3.9388,3.9388,3.9388,3.9388,3.9388,3.9388,3.9388,3.9388,3.9388,3.9388,3.9388,3.9388,3.9388,3.9388,3.9388,3.9388,3.9388,3.9388,3.9388,3.9388,3.9388,3.9574,4.0127,4.0277,4.0277,4.0277,4.0337,4.0726,4.1916,4.2626,4.3065,4.314,4.3245,4.329,4.329,4.329,4.329,4.329,4.329,4.3708,4.4699,4.4812,4.5504,4.7273,4.6678,4.6208,4.6208,4.5322,4.4412,4.3551,4.3369,4.329,4.329,4.329,4.329,4.329,4.329,4.329,4.329,4.329,4.329,3.8943,3.9388,3.9702,4.0961,4.128,4.1739,4.3486,4.3873,4.4006,4.4514,4.4615,4.4615,4.4615,4.4615,4.4615,4.4615,4.4615,4.4615,4.4615,4.4615,4.4615,4.4615,4.4615,4.4615,4.4615,4.4615,4.4615,4.4615,4.4615,4.4615,4.4615,4.4615,4.4615,4.4615,4.4615,4.4615,4.4615,4.3756,4.2614,4.1247,3.999,3.9388,3.9388,3.9388,3.9388,3.9388,3.9388,3.9388,3.9388,3.9388,3.9388,3.9388,3.9388,3.9388,3.9388,3.9388,3.9388,3.9388,3.9388,3.9388,3.9388,3.9388,3.9388,3.9388,3.9388,3.9388,3.9388,3.9388,3.9388,3.9388,3.9388,3.9694,4.0038,4.0337,4.0681,4.1055,4.1452,4.1542,4.1773,4.2716,4.3135,4.329,4.329,4.329,4.329,4.329,4.329,4.329,4.329,4.329,4.3708,4.4699,4.4812,4.5358,4.6712,4.6419,4.5977,4.5468,4.502,4.4373,4.3329,4.329,4.329,4.329,4.329,4.329,4.329,4.329,4.329,4.329,4.329,4.329,3.8892,3.9388,3.961,4.0466,4.069,4.1147,4.2909,4.3306,4.3562,4.4412,4.4615,4.4615,4.4615,4.4615,4.4615,4.4615,4.4615,4.4615,4.4615,4.4615,4.4615,4.4615,4.4615,4.4615,4.4615,4.4615,4.4615,4.4615,4.4615,4.4615,4.4615,4.4615,4.4615,4.4615,4.4615,4.4615,4.4615,4.3532,4.2093,4.0363,3.9702,3.9388,3.9388,3.9388,3.9388,3.9388,3.9388,3.9388,3.9388,3.9388,3.9388,3.9388,3.9388,3.9388,3.9388,3.9388,3.9388,3.9388,3.9388,3.9388,3.9388,3.9388,3.9388,3.9388,3.9388,3.9388,3.9388,3.9388,3.9388,3.9454,3.9634,4.0038,4.0487,4.0816,4.1265,4.1796,4.2291,4.253,4.2746,4.32,4.329,4.329,4.329,4.329,4.329,4.329,4.329,4.329,4.329,4.329,4.3591,4.4335,4.4412,4.4796,4.5762,4.5618,4.5269,4.4849,4.4548,4.4066,4.3329,4.329,4.329,4.329,4.329,4.329,4.329,4.329,4.329,4.329,4.329,4.329,3.9104,3.9388,3.961,4.0466,4.069,4.1147,4.2909,4.3306,4.3562,4.4412,4.4615,4.4615,4.4615,4.4615,4.4615,4.4615,4.4615,4.4615,4.4615,4.4615,4.4615,4.4615,4.4615,4.4615,4.4615,4.4615,4.4615,4.4615,4.4615,4.4615,4.4615,4.4615,4.4615,4.4615,4.4615,4.4615,4.4615,4.2939,4.1196,3.9481,3.9409,3.9388,3.9388,3.9388,3.9388,3.9388,3.9388,3.9388,3.9388,3.9388,3.9388,3.9388,3.9388,3.9388,3.9388,3.9388,3.9388,3.9388,3.9388,3.9388,3.9388,3.9388,3.9388,3.9388,3.9388,3.9388,3.9388,3.9388,3.9388,3.9574,4.0187,4.0367,4.0711,4.1991,4.2321,4.2366,4.2396,4.2851,4.3245,4.329,4.329,4.329,4.329,4.329,4.329,4.329,4.329,4.329,4.329,4.329,4.3329,4.3369,4.3369,4.3771,4.4774,4.3989,4.3849,4.4737,4.3927,4.3369,4.329,4.329,4.329,4.329,4.329,4.329,4.329,4.329,4.329,4.329,4.329,4.329,3.8271,3.887,3.9481,3.9793,3.9864,4.0185,4.1379,4.1642,4.2029,4.3456,4.3785,4.3948,4.4514,4.4615,4.4615,4.4615,4.4615,4.4615,4.4615,4.4615,4.4615,4.4615,4.4615,4.4615,4.4615,4.4615,4.4615,4.4615,4.4615,4.4615,4.4615,4.4615,4.4615,4.4615,4.4615,4.4047,4.2923,4.1756,4.0569,3.9388,3.9388,3.9388,3.9388,3.9388,3.9388,3.9388,3.9388,3.9388,3.9388,3.9388,3.9388,3.9388,3.9388,3.9388,3.9388,3.9388,3.9388,3.9388,3.9388,3.9388,3.9388,3.9388,3.9388,3.9388,3.9388,3.9388,3.9388,3.9388,3.9723,4.0113,4.0337,4.1025,4.1878,4.2776,4.2985,4.2985,4.2985,4.3125,4.329,4.329,4.329,4.329,4.329,4.329,4.329,4.329,4.329,4.329,4.329,4.329,4.329,4.329,4.3888,4.4412,4.4774,4.4472,4.4412,4.4774,4.3849,4.329,4.329,4.329,4.329,4.329,4.329,4.329,4.329,4.329,4.329,4.329,4.329,4.329,3.7715,3.8583,3.9388,3.9388,3.9388,3.9646,4.05,4.069,4.118,4.2939,4.3306,4.3562,4.444,4.4615,4.4615,4.4615,4.4615,4.4615,4.4615,4.4615,4.4615,4.4615,4.4615,4.4615,4.4615,4.4615,4.4615,4.4615,4.4615,4.4615,4.4615,4.4615,4.4485,4.4167,4.4167,4.332,4.1576,4.0979,4.0274,3.9388,3.9388,3.9388,3.9388,3.9388,3.9388,3.9388,3.9388,3.9388,3.9388,3.9388,3.9388,3.9388,3.9388,3.9388,3.9388,3.9388,3.9388,3.9388,3.9388,3.9388,3.9388,3.9388,3.9388,3.9388,3.9388,3.9388,3.9433,3.9694,4.0068,4.0502,4.0935,4.1863,4.2791,4.3185,4.329,4.329,4.329,4.329,4.329,4.329,4.329,4.329,4.329,4.329,4.329,4.329,4.329,4.329,4.329,4.329,4.3448,4.3786,4.4396,4.4909,4.5264,4.4983,4.4812,4.4812,4.3849,4.329,4.329,4.329,4.329,4.329,4.329,4.329,4.329,4.329,4.329,4.329,4.329,4.329,0.0,0.0,0.0,3.9388,3.9388,3.961,4.0466,4.0656,4.1147,4.2878,4.3246,4.3532,4.4412,4.457,4.4615,4.4615,4.4615,4.4615,4.4615,4.4615,4.4615,4.4615,4.4615,4.4615,4.4615,4.4615,4.4615,4.4615,4.4615,4.4615,4.4615,4.4615,4.4196,4.3336,4.3276,4.2458,4.0724,4.069,4.0255,3.9388,3.9388,3.9388,3.9388,3.9388,3.9388,3.9388,3.9388,3.9388,3.9388,3.9388,3.9388,3.9388,3.9388,3.9388,3.9388,3.9388,3.9388,3.9388,3.9388,3.9388,3.9388,3.9388,3.9388,3.9388,3.9403,3.9454,3.9553,4.0247,4.0442,4.0756,4.2096,4.2865,4.329,4.329,4.329,4.329,4.329,4.329,4.329,4.329,4.329,4.329,4.329,4.329,4.329,4.329,4.329,4.329,4.329,4.329,4.3654,4.4662,4.4812,4.519,4.6067,4.5358,4.4849,4.4812,4.3849,4.329,4.329,4.329,4.329,4.329,4.329,4.329,4.329,4.329,4.329,4.329,4.329,4.329,3.7715,0.0,0.0,0.0,0.0,0.0,3.9702,3.9773,4.0095,4.118,4.1933,4.2614,4.3486,4.4167,4.4615,4.4615,4.4615,4.4615,4.4615,4.4615,4.4615,4.4615,4.4615,4.4615,4.4615,4.4615,4.4615,4.4615,4.4615,4.4615,4.4615,4.4615,4.4196,4.3336,4.2693,4.1836,4.0709,4.008,3.9646,3.9388,3.9388,3.9388,3.9388,3.9388,3.9388,3.9388,3.9388,3.9388,3.9388,3.9388,3.9388,3.9388,3.9388,3.9388,3.9388,3.9388,3.9388,3.9388,3.9388,3.9388,3.9388,3.9388,3.9388,3.9514,3.9993,4.0127,4.0262,4.092,4.1444,4.2013,4.2851,4.3155,4.329,4.329,4.329,4.329,4.329,4.329,4.329,4.329,4.329,4.329,4.329,4.329,4.329,4.329,4.329,4.329,4.329,4.329,4.3409,4.3708,4.4989,4.5634,4.5227,4.5561,4.5525,4.4849,4.3849,4.329,4.329,4.329,4.329,4.329,4.329,4.329,4.329,4.329,4.329,4.329,4.329,4.329,0.0,0.0,0.0,3.9388,0.0,0.0,3.9388,3.9388,3.9646,4.0535,4.1113,4.1836,4.3078,4.3726,4.4167,4.4542,4.4615,4.4615,4.4615,4.4615,4.4615,4.4615,4.4615,4.4615,4.4615,4.4615,4.4615,4.4615,4.4615,4.4615,4.4615,4.4253,4.3651,4.2785,4.1901,4.1046,4.0185,3.9631,3.9388,3.9388,3.9388,3.9388,3.9388,3.9388,3.9388,3.9388,3.9388,3.9388,3.9388,3.9388,3.9388,3.9388,3.9388,3.9388,3.9388,3.9388,3.9388,3.9388,3.9388,3.9388,3.9388,3.9388,3.9604,3.9903,4.0292,4.0591,4.095,4.1647,4.2267,4.2865,4.32,4.329,4.329,4.329,4.329,4.329,4.329,4.329,4.329,4.329,4.329,4.329,4.329,4.329,4.329,4.329,4.329,4.329,4.329,4.329,4.3448,4.3888,4.4952,4.5561,4.5395,4.5525,4.5395,4.4849,4.3849,4.329,4.329,4.329,4.329,4.329,4.329,4.329,4.329,4.329,4.329,4.329,4.329,4.329,0.0,0.0,0.0,3.9388,3.9388,0.0,3.9388,3.9388,3.961,4.0397,4.0622,4.118,4.2724,4.3078,4.3396,4.4196,4.431,4.4384,4.457,4.4615,4.4615,4.4615,4.4615,4.4615,4.4615,4.4615,4.4615,4.4615,4.4615,4.4542,4.444,4.371,4.2847,4.1901,4.1113,4.0274,3.9424,3.9388,3.9388,3.9388,3.9388,3.9388,3.9388,3.9388,3.9388,3.9388,3.9388,3.9388,3.9388,3.9388,3.9388,3.9388,3.9388,3.9388,3.9388,3.9388,3.9388,3.9388,3.9388,3.9388,3.9388,3.9514,3.9918,4.0427,4.0576,4.1025,4.1662,4.2321,4.2895,4.329,4.329,4.329,4.329,4.329,4.329,4.329,4.329,4.329,4.329,4.329,4.329,4.329,4.329,4.329,4.329,4.329,4.329,4.329,4.329,4.329,4.363,4.4548,4.4737,4.5079,4.5834,4.5227,4.4737,4.4624,4.3771,4.329,4.329,4.329,4.329,4.329,4.329,4.329,4.329,4.329,4.329,4.329,4.329,4.329,3.9104,3.9228,3.9388,3.9388,3.9388,0.0,3.9388,3.9388,3.9445,3.961,4.0205,4.0811,4.1147,4.1772,4.2316,4.2473,4.252,4.3,4.4412,4.4615,4.4615,4.4615,4.4615,4.4615,4.4615,4.4615,4.4615,4.4615,4.4615,4.4281,4.3591,4.3396,4.2583,4.1013,4.0792,4.0274,3.9424,3.9388,3.9388,3.9388,3.9388,3.9388,3.9388,3.9388,3.9388,3.9388,3.9388,3.9388,3.9388,3.9388,3.9388,3.9388,3.9388,3.9388,3.9388,3.9388,3.9388,3.9388,3.9388,3.9388,3.9514,4.0038,4.0292,4.0591,4.1692,4.2111,4.2351,4.2955,4.32,4.329,4.329,4.329,4.329,4.329,4.329,4.329,4.329,4.329,4.329,4.329,4.329,4.329,4.329,4.329,4.329,4.329,4.329,4.329,4.329,4.329,4.3369,4.3551,4.4335,4.4548,4.3897,4.4434,4.4434,4.363,4.3409,4.329,4.329,4.329,4.329,4.329,4.329,4.329,4.329,4.329,4.329,4.329,4.329,4.329,3.9388,3.9388,3.9388,3.9388,3.9388,0.0,0.0,3.9388,3.9388,3.9388,3.9737,4.017,4.0622,4.1046,4.1495,4.1933,4.1997,4.2316,4.3183,4.332,4.332,4.332,4.368,4.3948,4.3948,4.3948,4.3768,4.335,4.332,4.3122,4.2676,4.2221,4.1593,4.0724,4.0274,3.9829,3.9409,3.9388,3.9388,3.9388,3.9388,3.9388,3.9388,3.9388,3.9388,3.9388,3.9388,3.9388,3.9388,3.9388,3.9388,3.9388,3.9388,3.9388,3.9388,3.9388,3.9388,3.9388,3.9388,3.9634,3.9963,4.0292,4.0846,4.1542,4.2201,4.262,4.291,4.32,4.329,4.329,4.329,4.329,4.329,4.329,4.329,4.329,4.329,4.329,4.329,4.329,4.329,4.329,4.329,4.329,4.329,4.329,4.329,4.329,4.329,4.329,4.329,4.329,4.3732,4.3849,4.3329,4.3771,4.3849,4.3329,4.329,4.329,4.329,4.329,4.329,4.329,4.329,4.329,4.329,4.329,4.329,4.329,4.329,4.329,3.9388,3.9388,3.9388,3.9388,3.9388,3.9388,0.0,0.0,0.0,3.9388,3.9388,3.961,4.0309,4.0432,4.0659,4.119,4.1432,4.1463,4.1321,4.1432,4.1609,4.1965,4.2614,4.3047,4.3047,4.3047,4.2754,4.2062,4.1997,4.1933,4.1772,4.108,4.0622,4.0466,3.9773,3.9388,3.9388,3.9388,3.9388,3.9388,3.9388,3.9388,3.9388,3.9388,3.9388,3.9388,3.9388,3.9388,3.9388,3.9388,3.9388,3.9388,3.9388,3.9388,3.9388,3.9388,3.9388,3.9439,3.9574,3.9963,4.0442,4.0696,4.1579,4.259,4.259,4.291,4.329,4.329,4.329,4.329,4.329,4.329,4.329,4.329,4.329,4.329,4.329,4.329,4.329,4.329,4.329,4.329,4.329,4.329,4.329,4.329,4.329,4.329,4.329,4.329,4.329,4.329,4.329,4.329,4.329,4.329,4.329,4.329,4.329,4.329,4.329,4.329,4.329,4.329,4.329,4.329,4.329,4.329,4.329,4.329,4.329,4.329,3.9388,3.9388,3.9388,3.9388,3.9388,3.9388,3.9388,0.0,3.9388,3.9388,0.0,3.9424,3.9553,0.0,0.0,3.8887,3.931,3.9491,3.8872,3.9325,4.0255,4.1804,4.2093,4.2157,4.2157,4.2157,4.2093,4.1997,4.1997,4.1674,4.0878,4.0758,4.0343,3.9574,3.9445,3.9388,3.9388,3.9388,3.9388,3.9388,3.9388,3.9388,3.9388,3.9388,3.9388,3.9388,3.9388,3.9388,3.9388,3.9388,3.9388,3.9388,3.9388,3.9388,3.9388,3.9388,3.9388,3.9463,4.0083,4.0337,4.0591,4.1796,4.2626,4.3185,4.3185,4.3245,4.329,4.329,4.329,4.329,4.329,4.329,4.329,4.329,4.329,4.329,4.329,4.329,4.329,4.329,4.329,4.329,4.329,4.329,4.329,4.329,4.329,4.329,4.329,4.329,4.329,4.329,4.329,4.329,4.329,4.329,4.329,4.329,4.329,4.329,4.329,4.329,4.329,4.329,4.329,4.329,4.329,4.329,4.329,4.329,4.329,4.329,3.9388,3.9388,3.9388,3.9388,3.9388,3.9388,3.9388,3.9388,3.9388,3.9388,0.0,0.0,0.0,0.0,0.0,0.0,3.923,3.932,3.9035,3.923,3.9681,4.0413,4.0927,4.1247,4.1247,4.1247,4.1062,4.0516,4.0481,4.0324,3.997,3.9955,3.9773,3.9409,3.9388,3.9388,3.9388,3.9388,3.9388,3.9388,3.9388,3.9388,3.9388,3.9388,3.9388,3.9388,3.9388,3.9388,3.9388,3.9388,3.9388,3.9388,3.9388,3.9388,3.9388,3.9388,3.9664,4.0023,4.0307,4.0905,4.1722,4.2626,4.3105,4.329,4.329,4.329,4.329,4.329,4.329,4.329,4.329,4.329,4.329,4.329,4.329,4.329,4.329,4.329,4.329,4.329,4.329,4.329,4.329,4.329,4.329,4.329,4.329,4.329,4.329,4.329,4.329,4.329,4.329,4.329,4.329,4.329,4.329,4.329,4.329,4.329,4.329,4.329,4.329,4.329,4.329,4.329,4.329,4.329,4.329,4.329,4.329,4.329,3.9388,3.9388,3.9388,3.9388,3.9388,3.9388,3.9388,3.9388,3.9388,3.9388,3.9388,0.0,0.0,0.0,3.9328,3.917,0.0,3.9349,3.917,3.9269,3.9388,3.9388,3.9955,4.0328,4.0328,4.0328,4.008,3.9445,3.9388,3.9388,3.9388,3.9388,3.9388,3.9388,3.9388,3.9388,3.9388,3.9388,3.9388,3.9388,3.9388,3.9388,3.9388,3.9388,3.9388,3.9388,3.9388,3.9388,3.9388,3.9388,3.9388,3.9388,3.9388,3.9388,3.9388,3.9388,3.9828,4.0427,4.0606,4.1534,4.2701,4.314,4.329,4.329,4.329,4.329,4.329,4.329,4.329,4.329,4.329,4.329,4.329,4.329,4.329,4.329,4.329,4.329,4.329,4.329,4.329,4.329,4.329,4.329,4.329,4.329,4.329,4.329,4.329,4.329,4.329,4.329,4.329,4.329,4.329,4.329,4.329,4.329,4.329,4.329,4.329,4.329,4.329,4.329,4.329,4.329,4.329,4.329,4.329,4.329,4.329,4.329,3.9388,3.9388,3.9388,3.9388,3.9388,3.9388,3.9388,3.9388,3.9388,3.9388,3.9388,3.9388,3.9388,3.9388,0.0,0.0,0.0,0.0,0.0,3.899,3.9388,3.9388,3.9409,3.9445,3.9445,3.9445,3.9424,3.9388,3.9388,3.9388,3.9388,3.9388,3.9388,3.9388,3.9388,3.9388,3.9388,3.9388,3.9388,3.9388,3.9388,3.9388,3.9388,3.9388,3.9388,3.9388,3.9388,3.9388,3.9388,3.9388,3.9388,3.9388,3.9388,3.9388,3.9388,3.9388,3.9828,4.0487,4.113,4.2207,4.326,4.329,4.329,4.329,4.329,4.329,4.329,4.329,4.329,4.329,4.329,4.329,4.329,4.329,4.329,4.329,4.329,4.329,4.329,4.329,4.329,4.329,4.329,4.329,4.329,4.329,4.329,4.329,4.329,4.329,4.329,4.329,4.329,4.329,4.329,4.329,4.329,4.329,4.329,4.329,4.329,4.329,4.329,4.329,4.329,4.329,4.329,4.329,4.329,4.329,4.329,4.329,3.9388,3.9388,3.9388,3.9388,3.9388,3.9388,3.9388,3.9388,3.9388,3.9388,3.9388,3.9388,3.9388,3.9388,0.0,0.0,0.0,0.0,0.0,3.7595,3.7276,3.7276,3.8531,3.9388,3.9388,3.9388,3.9388,3.9388,3.9388,3.9388,3.9388,3.9388,3.9388,3.9388,3.9388,3.9388,3.9388,3.9388,3.9388,3.9388,3.9388,3.9388,3.9388,3.9388,3.9388,3.9388,3.9388,3.9388,3.9388,3.9388,3.9388,3.9388,3.9388,3.9694,4.0068,4.0068,4.0487,4.1205,4.2297,4.2931,4.329,4.329,4.329,4.329,4.329,4.329,4.329,4.329,4.329,4.329,4.329,4.329,4.329,4.329,4.329,4.329,4.329,4.329,4.329,4.329,4.329,4.329,4.329,4.329,4.329,4.329,4.329,4.329,4.329,4.329,4.329,4.329,4.3678,4.3947,4.3947,4.4377,4.4631,4.4631,4.4631,4.4631,4.4631,4.4631,4.4631,4.4631,4.4631,4.4631,4.4631,4.4631,4.4631,4.4631,4.4631,4.4167,3.9388,3.9388,3.9388,3.9388,3.9388,3.9388,3.9388,3.9388,3.9388,3.9388,3.9388,3.9388,3.9388,3.9388,0.0,0.0,0.0,0.0,0.0,3.6643,3.6198,3.6198,3.7776,3.8819,3.8819,3.9177,3.9388,3.9388,3.9388,3.9388,3.9388,3.9388,3.9388,3.9388,3.9388,3.9388,3.9388,3.9388,3.9388,3.9388,3.9388,3.9388,3.9388,3.9388,3.9388,3.9388,3.9388,3.9388,3.9388,3.9388,3.9388,3.9403,3.9679,4.0023,4.0397,4.0397,4.0965,4.1878,4.2955,4.329,4.329,4.329,4.329,4.329,4.329,4.329,4.329,4.329,4.329,4.329,4.329,4.329,4.329,4.329,4.329,4.329,4.329,4.329,4.329,4.329,4.329,4.329,4.329,4.329,4.329,4.329,4.329,4.329,4.329,4.3499,4.3648,4.3648,4.4272,4.4661,4.4661,4.505,4.5289,4.5289,4.5289,4.5289,4.5289,4.5289,4.5289,4.5289,4.5289,4.5289,4.5289,4.5289,4.5289,4.5289,4.5289,4.484]}]]